[[{"header":{"parameterUnit":"m.s-1","parameterCategory":1,"la1":30.6,"la2":28.766,"lo1":-90.7593,"lo2":-88.6598,"dy":0.0162,"dx":0.0183,"nx":116,"ny":114,"refTime":"2023-04-30T12:00:00:Z","depth":0,"parameterNumber":2,"parameterNumberName":"U-component_of_WINDS"},"data":[0.0,0.0,0.0,0.0,0.0,0.0,0.0,0.0,0.0,0.0,0.0,0.0,0.0,0.0,0.0,0.0,0.0,0.0,0.0,0.0,0.0,0.0,0.0,0.0,0.0,0.0,0.0,0.0,0.0,0.0,0.0,0.0,0.0,0.0,0.0,0.0,0.0,0.0,0.0,0.0,0.0,0.0,0.0,0.0,0.0,0.0,0.0,0.0,0.0,0.0,0.0,0.0,0.0,0.0,0.0,0.0,0.0,0.0,0.0,0.0,0.0,0.0,0.0,0.0,0.0,0.0,0.0,0.0,0.0,0.0,0.0,0.0,0.0,0.0,0.0,0.0,0.0,0.0,0.0,0.0,0.0,0.0,0.0,0.0,0.0,0.0,0.0,0.0,0.0,0.0,0.0,0.0,0.0,0.0,0.0,0.0,0.0,0.0,0.0,0.0,0.0,0.0,0.0,0.0,0.0,0.0,0.0,0.0,0.0,0.0,0.0,0.0,0.0,0.0,0.0,0.0,0.0,0.0,0.0,0.0,0.0,0.0,0.0,0.0,0.0,0.0,0.0,0.0,0.0,0.0,0.0,0.0,0.0,0.0,0.0,0.0,0.0,0.0,0.0,0.0,0.0,0.0,0.0,0.0,0.0,0.0,0.0,0.0,0.0,0.0,0.0,0.0,0.0,0.0,0.0,0.0,0.0,0.0,0.0,0.0,0.0,0.0,0.0,0.0,0.0,0.0,0.0,0.0,0.0,0.0,0.0,0.0,0.0,0.0,0.0,0.0,0.0,0.0,0.0,0.0,0.0,0.0,0.0,0.0,0.0,0.0,0.0,0.0,0.0,0.0,0.0,0.0,0.0,0.0,0.0,0.0,0.0,0.0,0.0,0.0,0.0,0.0,0.0,0.0,0.0,0.0,0.0,0.0,0.0,0.0,0.0,0.0,0.0,0.0,0.0,0.0,0.0,0.0,0.0,0.0,0.0,0.0,0.0,0.0,0.0,0.0,0.0,0.0,0.0,0.0,0.0,0.0,0.0,0.0,0.0,0.0,0.0,0.0,0.0,0.0,0.0,0.0,0.0,0.0,0.0,0.0,0.0,0.0,0.0,0.0,0.0,0.0,0.0,0.0,0.0,0.0,0.0,0.0,0.0,0.0,0.0,0.0,0.0,0.0,0.0,0.0,0.0,0.0,0.0,0.0,0.0,0.0,0.0,0.0,0.0,0.0,0.0,0.0,0.0,0.0,0.0,0.0,0.0,0.0,0.0,0.0,0.0,0.0,0.0,0.0,0.0,0.0,0.0,0.0,0.0,0.0,0.0,0.0,0.0,0.0,0.0,0.0,0.0,0.0,0.0,0.0,0.0,0.0,0.0,0.0,0.0,0.0,0.0,0.0,0.0,0.0,0.0,0.0,0.0,0.0,0.0,0.0,0.0,0.0,0.0,0.0,0.0,0.0,0.0,0.0,0.0,0.0,0.0,0.0,0.0,0.0,0.0,0.0,0.0,0.0,0.0,0.0,0.0,0.0,0.0,0.0,0.0,0.0,0.0,0.0,0.0,0.0,0.0,0.0,0.0,0.0,0.0,0.0,0.0,0.0,0.0,0.0,0.0,0.0,0.0,0.0,0.0,0.0,0.0,0.0,0.0,0.0,0.0,0.0,0.0,0.0,0.0,0.0,0.0,0.0,0.0,0.0,0.0,0.0,0.0,0.0,0.0,0.0,0.0,0.0,0.0,0.0,0.0,0.0,0.0,0.0,0.0,0.0,0.0,0.0,0.0,0.0,0.0,0.0,0.0,0.0,0.0,0.0,0.0,0.0,0.0,0.0,0.0,0.0,0.0,0.0,0.0,0.0,0.0,0.0,0.0,0.0,0.0,0.0,0.0,0.0,0.0,0.0,0.0,0.0,0.0,0.0,0.0,0.0,0.0,0.0,0.0,0.0,0.0,0.0,0.0,0.0,0.0,0.0,0.0,0.0,0.0,0.0,0.0,0.0,0.0,0.0,0.0,0.0,0.0,0.0,0.0,0.0,0.0,0.0,0.0,0.0,0.0,0.0,0.0,0.0,0.0,0.0,0.0,0.0,0.0,0.0,0.0,0.0,0.0,0.0,0.0,0.0,0.0,0.0,0.0,0.0,0.0,0.0,0.0,0.0,0.0,0.0,0.0,0.0,0.0,0.0,0.0,0.0,0.0,0.0,0.0,0.0,0.0,0.0,0.0,0.0,0.0,0.0,0.0,0.0,0.0,0.0,0.0,0.0,0.0,0.0,0.0,0.0,0.0,0.0,0.0,0.0,0.0,0.0,0.0,0.0,0.0,0.0,0.0,0.0,0.0,0.0,0.0,0.0,0.0,0.0,0.0,0.0,0.0,0.0,0.0,0.0,0.0,0.0,0.0,0.0,0.0,0.0,0.0,0.0,0.0,0.0,0.0,0.0,0.0,0.0,0.0,0.0,0.0,0.0,0.0,0.0,0.0,0.0,0.0,0.0,0.0,0.0,0.0,0.0,0.0,0.0,0.0,0.0,0.0,0.0,0.0,0.0,0.0,0.0,0.0,0.0,0.0,0.0,0.0,0.0,0.0,0.0,0.0,0.0,0.0,0.0,0.0,0.0,0.0,0.0,0.0,0.0,0.0,0.0,0.0,0.0,0.0,0.0,0.0,0.0,0.0,0.0,0.0,0.0,0.0,0.0,0.0,0.0,0.0,0.0,0.0,0.0,0.0,0.0,0.0,0.0,0.0,0.0,0.0,0.0,0.0,0.0,0.0,0.0,0.0,0.0,0.0,0.0,0.0,0.0,0.0,0.0,0.0,0.0,0.0,0.0,0.0,0.0,0.0,0.0,0.0,0.0,0.0,0.0,0.0,0.0,0.0,0.0,0.0,0.0,0.0,0.0,0.0,0.0,0.0,0.0,0.0,0.0,0.0,0.0,0.0,0.0,0.0,0.0,0.0,0.0,0.0,0.0,0.0,0.0,0.0,0.0,0.0,0.0,0.0,0.0,0.0,0.0,0.0,0.0,0.0,0.0,0.0,0.0,0.0,0.0,0.0,0.0,0.0,0.0,0.0,0.0,0.0,0.0,0.0,0.0,0.0,0.0,0.0,0.0,0.0,0.0,0.0,0.0,0.0,0.0,0.0,0.0,0.0,0.0,0.0,0.0,0.0,0.0,0.0,0.0,0.0,0.0,0.0,0.0,0.0,0.0,0.0,0.0,0.0,0.0,0.0,0.0,0.0,0.0,0.0,0.0,0.0,0.0,0.0,0.0,0.0,0.0,0.0,0.0,0.0,0.0,0.0,0.0,0.0,0.0,0.0,0.0,0.0,0.0,0.0,0.0,0.0,0.0,0.0,0.0,0.0,0.0,0.0,0.0,0.0,0.0,0.0,0.0,0.0,0.0,0.0,0.0,0.0,0.0,0.0,0.0,0.0,0.0,0.0,0.0,0.0,0.0,0.0,0.0,0.0,0.0,0.0,0.0,0.0,0.0,0.0,0.0,0.0,0.0,0.0,0.0,0.0,0.0,0.0,0.0,0.0,0.0,0.0,0.0,0.0,0.0,0.0,0.0,0.0,0.0,0.0,0.0,0.0,0.0,0.0,0.0,0.0,0.0,0.0,0.0,0.0,0.0,0.0,0.0,0.0,0.0,0.0,0.0,0.0,0.0,0.0,0.0,0.0,0.0,0.0,0.0,0.0,0.0,0.0,0.0,0.0,0.0,0.0,0.0,0.0,0.0,0.0,0.0,0.0,0.0,0.0,0.0,0.0,0.0,0.0,0.0,0.0,0.0,0.0,0.0,0.0,0.0,0.0,0.0,0.0,0.0,0.0,0.0,0.0,0.0,0.0,0.0,0.0,0.0,0.0,0.0,0.0,0.0,0.0,0.0,0.0,0.0,0.0,0.0,0.0,0.0,0.0,0.0,0.0,0.0,0.0,0.0,0.0,0.0,0.0,0.0,0.0,0.0,0.0,0.0,0.0,0.0,0.0,0.0,0.0,0.0,0.0,0.0,0.0,0.0,0.0,0.0,0.0,0.0,0.0,0.0,0.0,0.0,0.0,0.0,0.0,0.0,0.0,0.0,0.0,0.0,0.0,0.0,0.0,0.0,0.0,0.0,0.0,0.0,0.0,0.0,0.0,0.0,0.0,0.0,0.0,0.0,0.0,0.0,0.0,0.0,0.0,0.0,0.0,0.0,0.0,0.0,0.0,0.0,0.0,0.0,0.0,0.0,0.0,0.0,0.0,0.0,0.0,0.0,0.0,0.0,0.0,0.0,0.0,0.0,0.0,0.0,0.0,0.0,0.0,0.0,0.0,0.0,0.0,0.0,0.0,0.0,0.0,0.0,0.0,0.0,0.0,0.0,0.0,0.0,0.0,0.0,0.0,0.0,0.0,0.0,0.0,0.0,0.0,0.0,0.0,0.0,0.0,0.0,0.0,0.0,0.0,0.0,0.0,0.0,0.0,0.0,0.0,0.0,0.0,0.0,0.0,0.0,0.0,0.0,0.0,0.0,0.0,0.0,0.0,0.0,0.0,0.0,0.0,0.0,0.0,0.0,0.0,0.0,0.0,0.0,0.0,0.0,0.0,0.0,0.0,0.0,0.0,0.0,0.0,0.0,0.0,0.0,0.0,0.0,0.0,0.0,0.0,0.0,0.0,0.0,0.0,0.0,0.0,0.0,0.0,0.0,0.0,0.0,0.0,0.0,0.0,0.0,0.0,0.0,0.0,0.0,0.0,0.0,0.0,0.0,0.0,0.0,0.0,0.0,0.0,0.0,0.0,0.0,0.0,0.0,0.0,0.0,0.0,0.0,0.0,0.0,0.0,0.0,0.0,0.0,0.0,0.0,0.0,0.0,0.0,0.0,0.0,0.0,0.0,0.0,0.0,0.0,0.0,0.0,0.0,0.0,0.0,0.0,0.0,0.0,0.0,0.0,0.0,0.0,0.0,0.0,0.0,0.0,0.0,0.0,0.0,0.0,0.0,0.0,0.0,0.0,0.0,0.0,0.0,0.0,0.0,0.0,0.0,0.0,0.0,0.0,0.0,0.0,0.0,0.0,0.0,0.0,0.0,0.0,0.0,0.0,0.0,0.0,0.0,0.0,0.0,0.0,0.0,0.0,0.0,0.0,0.0,0.0,0.0,0.0,0.0,0.0,0.0,0.0,0.0,0.0,0.0,0.0,0.0,0.0,0.0,0.0,0.0,0.0,0.0,0.0,0.0,0.0,0.0,0.0,0.0,0.0,0.0,0.0,0.0,0.0,0.0,0.0,0.0,0.0,0.0,0.0,0.0,0.0,0.0,0.0,0.0,0.0,0.0,0.0,0.0,0.0,0.0,0.0,0.0,0.0,0.0,0.0,0.0,0.0,0.0,0.0,0.0,0.0,0.0,0.0,0.0,0.0,0.0,0.0,0.0,0.0,0.0,0.0,0.0,0.0,0.0,0.0,0.0,0.0,0.0,0.0,0.0,0.0,0.0,0.0,0.0,0.0,0.0,0.0,0.0,0.0,0.0,0.0,0.0,0.0,0.0,0.0,0.0,0.0,0.0,0.0,0.0,0.0,0.0,0.0,0.0,0.0,0.0,0.0,0.0,0.0,0.0,0.0,0.0,0.0,0.0,0.0,0.0,0.0,0.0,0.0,0.0,0.0,0.0,0.0,0.0,0.0,0.0,0.0,0.0,0.0,0.0,0.0,0.0,0.0,0.0,0.0,0.0,0.0,0.0,0.0,0.0,0.0,0.0,0.0,0.0,0.0,0.0,0.0,0.0,0.0,0.0,0.0,0.0,0.0,0.0,0.0,0.0,0.0,0.0,0.0,0.0,0.0,0.0,0.0,0.0,0.0,0.0,0.0,0.0,0.0,0.0,0.0,0.0,0.0,0.0,0.0,0.0,0.0,0.0,0.0,0.0,0.0,0.0,0.0,0.0,0.0,0.0,0.0,0.0,0.0,0.0,0.0,0.0,0.0,0.0,0.0,0.0,0.0,0.0,0.0,0.0,0.0,0.0,0.0,0.0,0.0,0.0,0.0,0.0,0.0,0.0,0.0,0.0,0.0,0.0,0.0,0.0,0.0,0.0,0.0,0.0,0.0,0.0,0.0,-5.1048,-5.0712,0.0,0.0,0.0,0.0,0.0,0.0,0.0,0.0,0.0,0.0,0.0,0.0,0.0,0.0,0.0,0.0,0.0,0.0,0.0,0.0,0.0,0.0,0.0,0.0,0.0,0.0,0.0,0.0,0.0,0.0,0.0,0.0,0.0,0.0,0.0,0.0,0.0,0.0,0.0,0.0,0.0,0.0,0.0,0.0,0.0,0.0,0.0,0.0,0.0,0.0,0.0,0.0,0.0,0.0,0.0,0.0,0.0,0.0,0.0,0.0,0.0,0.0,0.0,0.0,0.0,0.0,0.0,0.0,0.0,0.0,0.0,0.0,0.0,0.0,0.0,0.0,0.0,0.0,0.0,0.0,0.0,0.0,0.0,0.0,0.0,0.0,0.0,0.0,0.0,0.0,0.0,0.0,0.0,0.0,0.0,0.0,0.0,0.0,0.0,0.0,0.0,0.0,0.0,0.0,0.0,0.0,0.0,0.0,0.0,0.0,0.0,0.0,0.0,0.0,-5.0875,-5.0712,0.0,0.0,0.0,0.0,0.0,0.0,0.0,0.0,0.0,0.0,0.0,0.0,0.0,0.0,0.0,0.0,0.0,0.0,0.0,0.0,0.0,0.0,0.0,0.0,0.0,0.0,0.0,0.0,0.0,0.0,0.0,0.0,0.0,0.0,0.0,0.0,0.0,0.0,0.0,0.0,0.0,0.0,0.0,0.0,0.0,0.0,0.0,0.0,0.0,0.0,0.0,0.0,0.0,0.0,0.0,0.0,0.0,0.0,0.0,0.0,0.0,0.0,0.0,0.0,0.0,0.0,0.0,0.0,0.0,0.0,0.0,0.0,0.0,0.0,0.0,0.0,0.0,0.0,0.0,0.0,0.0,0.0,0.0,0.0,0.0,0.0,0.0,0.0,0.0,0.0,0.0,0.0,0.0,0.0,0.0,0.0,0.0,0.0,0.0,0.0,0.0,0.0,0.0,0.0,0.0,0.0,0.0,0.0,-5.0712,-5.0712,-5.0712,-5.0712,-5.0712,-5.0712,-5.0712,-5.0712,-5.0712,-5.0712,0.0,0.0,0.0,0.0,0.0,0.0,0.0,0.0,0.0,0.0,0.0,0.0,0.0,0.0,0.0,0.0,0.0,0.0,0.0,0.0,0.0,0.0,0.0,0.0,0.0,0.0,0.0,0.0,0.0,0.0,0.0,0.0,0.0,0.0,0.0,0.0,0.0,0.0,-5.0302,-5.0302,-5.0314,-5.0325,-5.039,0.0,0.0,0.0,0.0,0.0,0.0,0.0,0.0,0.0,0.0,0.0,0.0,0.0,0.0,0.0,0.0,0.0,0.0,0.0,0.0,0.0,0.0,0.0,0.0,0.0,0.0,0.0,0.0,0.0,0.0,0.0,0.0,0.0,0.0,0.0,0.0,0.0,0.0,0.0,0.0,0.0,0.0,0.0,-5.0429,-5.0123,0.0,0.0,0.0,0.0,0.0,0.0,0.0,0.0,0.0,0.0,0.0,0.0,0.0,-5.0663,-5.0712,-5.0712,-5.0712,-5.0712,-5.0712,-5.0712,-5.0712,-5.0712,-5.0712,-5.0712,-5.0712,0.0,-5.0712,-5.0712,0.0,0.0,0.0,0.0,0.0,0.0,0.0,0.0,0.0,0.0,0.0,0.0,0.0,0.0,0.0,0.0,0.0,0.0,0.0,0.0,0.0,0.0,0.0,0.0,0.0,0.0,0.0,0.0,0.0,0.0,0.0,0.0,0.0,0.0,0.0,0.0,-5.0302,-5.0302,-5.0302,-5.0302,-5.0302,-5.0302,-5.0325,-5.0359,-5.0382,-5.0435,0.0,0.0,0.0,0.0,0.0,0.0,0.0,0.0,0.0,0.0,0.0,0.0,0.0,0.0,0.0,0.0,0.0,0.0,0.0,0.0,0.0,0.0,0.0,0.0,0.0,0.0,0.0,0.0,0.0,0.0,0.0,0.0,0.0,0.0,0.0,0.0,0.0,0.0,0.0,-4.9846,-4.9962,-4.9746,-4.9655,-4.9541,0.0,0.0,0.0,0.0,0.0,0.0,0.0,0.0,0.0,-4.9961,-4.9974,-5.0032,-5.0178,-5.0178,-5.0178,-5.0178,-5.0178,-5.0178,-5.0178,-5.0178,-5.0178,-5.0178,-5.0178,-5.0279,-5.0432,-5.0624,-5.0712,-5.0712,0.0,0.0,0.0,0.0,-5.0653,-5.0643,0.0,0.0,0.0,0.0,0.0,0.0,0.0,0.0,0.0,0.0,0.0,0.0,0.0,0.0,0.0,-5.0302,0.0,0.0,0.0,0.0,0.0,0.0,0.0,0.0,0.0,0.0,0.0,0.0,-5.0212,-5.0169,-5.0169,-5.0169,-5.0169,-5.0188,-5.0248,-5.0302,-5.0302,-5.0348,-5.0371,0.0,0.0,0.0,0.0,0.0,0.0,0.0,0.0,0.0,0.0,0.0,0.0,0.0,0.0,0.0,0.0,0.0,0.0,0.0,0.0,0.0,0.0,0.0,0.0,0.0,0.0,0.0,0.0,0.0,0.0,0.0,0.0,0.0,0.0,0.0,0.0,0.0,0.0,-4.9345,-4.9499,-4.939,-4.9243,-4.9118,0.0,0.0,0.0,0.0,0.0,0.0,-4.8957,-4.8974,-4.9141,-4.9484,-4.9499,-4.9598,-4.9803,-4.9803,-4.9803,-4.9803,-4.9803,-4.9803,-4.9803,-4.9803,-4.9803,-4.9803,-4.9803,-4.9904,-5.0123,-5.0432,-5.0624,-5.0712,-5.0712,-5.0712,-5.0702,-5.0663,-5.0653,-5.0643,0.0,0.0,0.0,0.0,0.0,0.0,0.0,0.0,0.0,0.0,0.0,0.0,0.0,0.0,-5.0302,-5.0302,-5.0302,-5.0302,0.0,0.0,0.0,0.0,0.0,0.0,0.0,0.0,0.0,-5.0302,-4.9981,-4.983,-4.983,-4.983,-4.983,-4.9844,-5.0156,-5.0302,-5.0302,-5.0302,-5.0337,-5.0401,0.0,0.0,0.0,0.0,0.0,0.0,0.0,0.0,0.0,0.0,0.0,0.0,0.0,0.0,0.0,0.0,0.0,0.0,0.0,0.0,0.0,0.0,0.0,0.0,0.0,0.0,0.0,0.0,0.0,0.0,0.0,0.0,0.0,0.0,0.0,0.0,0.0,0.0,0.0,-4.9055,-4.9023,0.0,0.0,0.0,0.0,-4.8605,-4.8605,-4.8783,-4.9166,-4.9182,-4.9367,-4.9776,-4.979,-4.979,-4.9803,-4.9803,-4.9803,-4.9803,-4.9803,-4.9803,-4.9803,-4.9803,-4.9803,-4.9803,-4.9803,-4.9817,-4.9844,-5.0123,-5.0421,-5.0712,-5.0712,-5.0712,-5.0673,-5.0553,-5.0511,-5.05,0.0,0.0,0.0,0.0,0.0,0.0,0.0,0.0,0.0,0.0,0.0,0.0,0.0,-5.0302,-5.0302,-5.0302,-5.0088,-4.9981,-4.9981,0.0,0.0,0.0,0.0,0.0,0.0,0.0,-4.987,-4.966,-4.9541,-4.9483,-4.9483,-4.9702,-4.9803,-4.9798,-5.0144,-5.0302,-5.0302,-5.0302,-5.0314,-5.0337,-5.039,-5.0412,0.0,0.0,0.0,0.0,0.0,0.0,0.0,0.0,0.0,0.0,0.0,0.0,0.0,0.0,0.0,0.0,0.0,0.0,0.0,0.0,0.0,0.0,0.0,0.0,0.0,0.0,0.0,0.0,0.0,0.0,0.0,0.0,0.0,0.0,0.0,0.0,0.0,-4.8587,-4.8624,0.0,-4.8532,-4.8569,-4.8605,-4.8605,-4.8732,-4.8838,-4.8942,-4.8991,-4.9073,-4.922,-4.9217,-4.9217,-4.9217,-4.9217,-4.9217,-4.9217,-4.9217,-4.9217,-4.9217,-4.9217,-4.9217,-4.9217,-4.9188,-4.9246,-4.9412,-4.9468,-4.9744,-5.0142,-5.0313,-5.0347,-5.0336,-5.0492,-5.0532,-5.05,0.0,0.0,0.0,0.0,0.0,0.0,0.0,0.0,0.0,0.0,0.0,-5.0302,-5.0302,-5.0302,-5.0248,-5.0144,-4.9929,-4.9744,-4.9646,0.0,0.0,0.0,0.0,0.0,0.0,-4.9348,-4.9527,-4.9299,-4.9193,-4.9129,-4.9145,-4.9363,-4.9453,-4.9483,-4.9929,-5.0132,-5.0144,-5.0248,-5.0302,-5.0302,-5.0337,-5.0379,-5.0337,0.0,0.0,0.0,0.0,0.0,0.0,0.0,0.0,0.0,0.0,0.0,0.0,0.0,0.0,0.0,0.0,0.0,0.0,0.0,0.0,0.0,0.0,0.0,0.0,0.0,0.0,0.0,0.0,0.0,0.0,0.0,0.0,0.0,0.0,-4.8382,-4.8419,-4.8382,-4.8419,-4.8457,-4.8494,-4.8513,-4.8495,-4.8495,-4.8624,-4.8697,-4.8697,-4.8751,-4.8786,-4.8803,-4.8839,-4.8839,-4.8803,-4.8874,-4.8891,-4.8856,-4.8891,-4.8909,-4.8909,-4.8909,-4.8909,-4.8909,-4.8839,-4.8942,-4.9087,-4.9023,-4.9185,-4.9506,-4.9832,-4.9936,-4.9936,-5.0245,-5.034,-5.0298,0.0,0.0,0.0,0.0,0.0,0.0,0.0,0.0,0.0,0.0,-5.0302,-5.0302,-5.0302,-5.029,-5.0156,-4.983,-4.9771,-4.9632,-4.9317,-4.8965,0.0,0.0,0.0,0.0,-4.8781,-4.9113,-4.9268,-4.9268,-4.8951,-4.8781,-4.8781,-4.8799,-4.8799,-4.8833,-4.9483,-4.9771,-4.9817,-5.0144,-5.029,-5.029,-5.0302,-5.0302,-5.0259,0.0,0.0,0.0,0.0,0.0,0.0,0.0,0.0,0.0,0.0,0.0,0.0,0.0,0.0,0.0,0.0,0.0,0.0,0.0,0.0,0.0,0.0,0.0,0.0,0.0,0.0,0.0,0.0,0.0,0.0,0.0,0.0,0.0,-4.8306,-4.8306,-4.8363,-4.8476,-4.8382,-4.8363,-4.8476,-4.8382,-4.8306,-4.8306,-4.8306,-4.8363,-4.8476,-4.8513,-4.8513,-4.8587,-4.8732,-4.8732,-4.8605,-4.8785,-4.8856,-4.8787,-4.8856,-4.8891,-4.8891,-4.8891,-4.8891,-4.8891,-4.8891,-4.8891,-4.8891,-4.8822,-4.8787,-4.8821,-4.9302,-4.9493,-4.9522,-4.9798,-4.9878,-4.9923,0.0,0.0,0.0,0.0,0.0,0.0,0.0,0.0,0.0,0.0,-5.0302,-5.0302,-5.0302,-5.0076,-4.9897,-4.9817,-4.9348,-4.905,-4.8951,0.0,0.0,0.0,0.0,0.0,-4.8439,-4.8764,-4.8815,-4.8568,-4.8477,-4.8439,-4.8439,-4.8694,-4.8799,-4.8833,-4.9256,-4.9439,-4.9468,-4.9803,-4.9942,-4.9955,-5.0212,-5.0302,-5.0259,0.0,0.0,0.0,0.0,0.0,0.0,0.0,0.0,0.0,0.0,0.0,0.0,0.0,0.0,0.0,0.0,0.0,0.0,0.0,0.0,0.0,0.0,0.0,0.0,0.0,0.0,0.0,0.0,0.0,0.0,0.0,-4.8306,-4.8306,-4.8306,-4.8306,-4.8306,-4.8363,-4.8306,-4.8306,-4.8363,-4.8401,-4.8401,-4.8306,-4.8439,-4.8513,-4.8513,-4.855,-4.8587,-4.8605,-4.8642,-4.8642,-4.8605,-4.8641,-4.8678,-4.866,-4.8678,-4.8678,-4.8678,-4.8678,-4.8678,-4.8696,-4.8624,-4.8606,-4.8606,-4.8495,-4.8457,-4.8495,-4.9019,-4.918,-4.9164,-4.9439,-4.9512,-4.9483,0.0,0.0,0.0,0.0,0.0,0.0,0.0,0.0,0.0,0.0,-5.0325,-5.0325,-5.0302,-5.0132,-4.9955,-4.9817,-4.9317,-4.8951,-4.8816,0.0,0.0,0.0,0.0,-4.8495,-4.8306,-4.8495,-4.8495,-4.8306,-4.8306,-4.8306,-4.8306,-4.8495,-4.8586,-4.8604,-4.8951,-4.9097,-4.9129,-4.9603,-4.9803,-4.983,-5.0156,-5.0302,-5.0259,-4.9929,-4.9803,-4.9757,-4.9424,-4.9512,-4.9771,-4.9646,0.0,0.0,0.0,0.0,0.0,0.0,0.0,0.0,0.0,0.0,0.0,0.0,0.0,0.0,0.0,0.0,0.0,0.0,0.0,0.0,0.0,0.0,0.0,0.0,-4.8306,-4.8306,-4.8306,-4.8306,-4.8306,-4.8306,-4.8306,-4.8306,-4.8306,-4.8363,-4.8382,-4.8306,-4.842,-4.8458,-4.8419,-4.8458,-4.8458,-4.8458,-4.8532,-4.8532,-4.8458,-4.855,-4.8587,-4.8569,-4.8587,-4.8605,-4.8605,-4.8605,-4.8605,-4.8587,-4.8569,-4.8532,-4.8532,-4.842,-4.8382,-4.842,0.0,0.0,0.0,0.0,-4.9206,-4.9299,0.0,0.0,0.0,0.0,0.0,0.0,0.0,0.0,0.0,0.0,0.0,-5.0359,-5.0302,-5.0278,-5.0132,-4.983,-4.9498,-4.9158,0.0,0.0,0.0,-4.8345,-4.8363,-4.8344,-4.8306,-4.8306,-4.8306,-4.8306,-4.8306,-4.8306,-4.8306,-4.8306,-4.8306,-4.8306,-4.8604,-4.8746,-4.8799,-4.9453,-4.9744,-4.979,-5.0144,-5.0302,-5.0278,-4.9968,-4.9857,-4.9817,-4.9527,-4.9599,-4.9817,-4.9512,0.0,0.0,0.0,0.0,0.0,0.0,0.0,0.0,0.0,0.0,0.0,0.0,0.0,0.0,0.0,0.0,0.0,0.0,0.0,0.0,0.0,0.0,0.0,0.0,-4.821,-4.821,-4.821,-4.8172,-4.8172,-4.8287,-4.8267,-4.823,-4.8287,-4.8267,-4.823,-4.8287,-4.8306,-4.8306,-4.8306,-4.8306,0.0,0.0,0.0,-4.8419,-4.8306,-4.8495,-4.8532,-4.8476,-4.8532,-4.8569,-4.8569,-4.8569,-4.8569,-4.8569,-4.8569,-4.8569,-4.855,-4.8495,-4.8494,-4.8457,-4.8343,-4.8306,-4.8344,-4.8641,-4.8934,-4.9193,0.0,0.0,0.0,0.0,0.0,0.0,0.0,0.0,0.0,-5.0587,-5.0453,-5.0359,-5.0302,-5.0063,-4.987,-4.9817,-4.9498,-4.9268,0.0,0.0,-4.8982,-4.873,-4.8693,-4.8568,-4.8306,-4.8306,-4.8306,-4.8306,-4.8306,-4.8306,-4.8306,-4.8306,-4.8306,-4.8306,-4.8364,-4.8402,-4.8439,-4.9113,-4.9409,-4.9453,-5.0051,-5.0302,-5.029,-5.0224,-5.0212,-5.0181,-5.0132,-5.0144,-5.0181,-5.0132,-5.0144,-5.0144,-4.9817,0.0,0.0,0.0,0.0,0.0,0.0,0.0,0.0,0.0,0.0,0.0,0.0,0.0,0.0,0.0,0.0,0.0,0.0,0.0,0.0,-4.7713,-4.7754,-4.7754,-4.7754,-4.7399,-4.746,-4.821,-4.7975,-4.7877,-4.8267,-4.7975,-4.7897,-4.8267,-4.8306,-4.8306,-4.8306,-4.8306,-4.8306,-4.8306,-4.8343,-4.8343,-4.8306,-4.8344,-4.8344,-4.8343,-4.8344,0.0,-4.8363,-4.8363,-4.8363,-4.8363,-4.8363,-4.8363,-4.8363,-4.8344,-4.8343,-4.8343,-4.8306,-4.8306,-4.8306,-4.8364,-4.8439,-4.8477,0.0,0.0,0.0,0.0,0.0,0.0,0.0,0.0,0.0,0.0,-5.0652,-5.0547,-5.0457,-5.0237,-5.0088,-5.0051,-4.9744,0.0,0.0,-4.9299,-4.924,-4.9048,-4.9048,-4.8965,-4.8797,-4.8641,-4.855,-4.855,-4.8383,-4.8306,-4.8306,-4.8306,-4.8306,-4.8306,-4.8306,-4.8306,-4.8326,-4.9015,-4.9299,-4.9363,-5.0038,-5.0302,-5.0302,-5.0302,-5.0302,-5.0302,-5.0302,-5.0302,-5.0302,-5.0302,-5.0302,-5.0278,-5.0088,-4.983,-4.9483,0.0,0.0,0.0,0.0,0.0,0.0,0.0,0.0,0.0,0.0,0.0,0.0,0.0,0.0,-4.7026,-4.7506,0.0,-4.7335,-4.7569,-4.7399,-4.7248,-4.7248,-4.7066,-4.716,-4.7856,-4.7736,-4.7695,-4.7935,-4.7955,-4.8035,-4.8287,-4.8306,-4.8306,-4.8306,-4.8306,-4.8306,-4.8306,-4.8306,-4.8306,-4.8306,-4.8306,-4.8306,-4.8306,-4.8306,-4.8306,-4.8306,-4.8306,-4.8306,-4.8306,-4.8306,-4.8306,-4.8306,-4.8306,-4.8306,-4.8306,-4.8306,-4.8306,-4.8306,-4.8306,-4.8306,-4.8306,0.0,0.0,0.0,0.0,0.0,0.0,0.0,0.0,0.0,0.0,-5.0877,-5.0784,-5.0614,-5.0507,-5.0396,0.0,0.0,0.0,0.0,-4.9498,-4.9468,-4.9409,-4.9409,-4.9378,-4.9299,-4.9031,-4.89,-4.89,-4.8641,-4.8477,-4.8477,-4.8477,-4.8458,-4.8402,-4.8458,-4.8458,-4.8439,-4.9113,-4.9409,-4.9453,-5.0051,-5.0302,-5.0302,-5.0302,-5.0302,-5.0302,-5.0302,-5.0302,-5.0302,-5.0302,-5.0302,-5.029,-5.0224,-4.983,-4.936,-4.9256,-4.8815,0.0,0.0,0.0,0.0,0.0,0.0,0.0,0.0,-4.7754,-4.7632,-4.7248,-4.7093,-4.7138,-4.7527,-4.7226,-4.6981,-4.7291,-4.7004,-4.6771,-4.6771,-4.6678,-4.6776,-4.727,-4.7335,-4.736,-4.7464,-4.7733,-4.7935,-4.8015,-4.8015,-4.8073,-4.8152,-4.8172,-4.8209,-4.8287,-4.8306,-4.8306,-4.8306,-4.8306,-4.8306,-4.8306,-4.8306,-4.8306,-4.8306,-4.8306,-4.8306,-4.8306,-4.8306,-4.8306,-4.8306,-4.8306,-4.8306,-4.8306,-4.8306,-4.8306,-4.8306,-4.8306,-4.8306,-4.8306,0.0,0.0,0.0,0.0,0.0,0.0,0.0,0.0,0.0,0.0,0.0,0.0,0.0,0.0,0.0,0.0,0.0,0.0,-5.0181,-5.02,-5.0051,-4.9757,-4.9744,-4.9599,-4.9317,-4.9252,-4.9237,-4.9237,-4.9224,-4.9193,-4.9193,-4.9193,-4.9031,-4.8764,-4.9048,-4.9015,-4.8799,-4.9453,-4.9744,-4.979,-5.0144,-5.0302,-5.0302,-5.0302,-5.0302,-5.0302,-5.0302,-5.0302,-5.0302,-5.0302,-5.0302,-5.0248,-4.9955,-4.9798,-4.9632,-4.9034,0.0,-4.8694,-4.8383,-4.8306,-4.8306,-4.8306,-4.8306,-4.8287,0.0,-4.821,-4.8209,-4.8152,-4.7816,-4.7548,-4.7591,-4.7226,-4.6771,-4.6411,-4.6315,-4.6284,-4.6284,-4.5879,-4.5778,-4.6291,-4.6363,-4.6531,-4.6954,-4.6654,-4.6607,-4.7044,-4.7066,-4.7226,-4.7653,-4.7674,-4.7877,-4.8287,-4.8306,-4.8306,-4.8306,-4.8306,-4.8306,-4.8306,-4.8306,-4.8306,-4.8306,-4.8306,-4.8306,-4.8306,-4.8306,-4.8306,-4.8306,-4.8306,-4.8306,-4.8306,-4.8306,-4.8306,-4.8306,-4.8306,-4.8306,-4.8306,0.0,0.0,0.0,0.0,0.0,0.0,0.0,0.0,0.0,0.0,0.0,0.0,0.0,0.0,0.0,0.0,0.0,0.0,-5.0302,-5.0302,-5.0236,-5.0107,-5.0088,-5.0038,-4.9903,-4.9688,-4.9584,-4.9584,-4.9409,-4.9299,-4.9299,-4.9299,-4.924,-4.9097,-4.924,-4.9206,-4.9129,-4.9603,-4.9803,-4.983,-5.0156,-5.0302,-5.0302,-5.0302,-5.0302,-5.0259,-5.0076,-5.0012,0.0,0.0,-4.987,-4.973,-4.9771,-4.9527,-4.9161,-4.8883,-4.8658,0.0,-4.8344,-4.8306,-4.8306,-4.8306,-4.8306,-4.8306,-4.8306,-4.8306,-4.8306,-4.8306,-4.8152,-4.7917,-4.7653,-4.7226,-4.6747,-4.6284,-4.5955,-4.5727,-4.5727,-4.5537,-4.5485,-4.5718,-4.5727,-4.5938,-4.6435,-4.656,-4.6678,-4.6886,-4.6908,-4.7093,-4.7569,-4.7611,-4.7816,-4.8287,-4.8306,-4.8306,-4.8306,-4.8306,-4.8306,-4.8306,-4.8306,-4.8306,-4.8306,-4.8306,-4.8306,-4.8306,-4.8306,-4.8306,-4.8306,-4.8306,-4.8306,-4.8306,-4.8306,-4.8306,-4.8306,-4.8306,-4.8306,-4.8306,0.0,0.0,0.0,0.0,0.0,0.0,0.0,0.0,0.0,0.0,0.0,0.0,0.0,0.0,0.0,0.0,0.0,0.0,0.0,-5.0302,-5.0302,-5.0302,-5.0302,0.0,-5.0302,-5.0063,-4.9942,-4.9942,-4.9702,-4.957,-4.957,-4.957,-4.9527,-4.9453,-4.9541,-4.9527,-4.9468,-4.9803,-4.9942,-4.9955,-5.0212,-5.0302,-5.0302,-5.0302,-5.0302,-5.0267,-4.9929,-4.9803,0.0,0.0,-4.9498,-4.9333,-4.9468,-4.9193,-4.8781,-4.8694,-4.8495,-4.8306,-4.8306,-4.8306,-4.8306,-4.8306,-4.8306,-4.8306,-4.8306,-4.8306,-4.8306,-4.8306,-4.8191,-4.7975,-4.7485,-4.7026,-4.6554,-4.6062,-4.5667,-4.5397,-4.5397,-4.5397,-4.5397,-4.5397,-4.5397,-4.5537,-4.5955,-4.6291,-4.6489,-4.6489,-4.6489,-4.6707,-4.7204,-4.7208,-4.7485,-4.8093,-4.8113,-4.8172,-4.8306,-4.8306,-4.8306,-4.8306,-4.8306,-4.8306,-4.8306,-4.8306,-4.8306,-4.8306,-4.8306,-4.8306,-4.8306,-4.8306,-4.8306,-4.8306,-4.8306,-4.8306,-4.8306,-4.8306,-4.8306,-4.8306,0.0,0.0,0.0,0.0,0.0,0.0,0.0,0.0,0.0,0.0,0.0,0.0,0.0,0.0,0.0,0.0,0.0,0.0,0.0,-5.0302,-5.0302,-5.0302,-5.0302,-5.0302,-5.0302,-5.029,-5.029,-5.029,-5.0259,-5.0278,-5.0278,-5.0278,-5.0107,-4.9803,-5.0132,-5.0088,-4.9817,-5.0144,-5.029,-5.029,-5.0302,-5.0302,-5.0302,-5.0302,-5.0302,-5.0267,-4.9929,0.0,0.0,0.0,-4.9299,-4.9256,-4.8934,-4.8816,0.0,-4.842,-4.8306,-4.8306,-4.8306,-4.8306,-4.8306,-4.8306,-4.8306,-4.8306,-4.8306,-4.8306,-4.8306,-4.8306,-4.7955,-4.7485,-4.7022,-4.6554,-4.6038,-4.5511,-4.5397,-4.5397,-4.5397,-4.5397,-4.5397,-4.5397,-4.5397,-4.5397,-4.5423,-4.545,-4.545,-4.545,-4.545,-4.5693,-4.6211,-4.6235,-4.6678,-4.7591,-4.7611,-4.7836,-4.8287,-4.8306,-4.8306,-4.8306,-4.8306,-4.8306,-4.8306,-4.8306,-4.8306,-4.8306,-4.8306,-4.8306,-4.8306,-4.8306,-4.8306,-4.8306,-4.8306,-4.8306,-4.8306,-4.8306,-4.8306,-4.8306,0.0,0.0,0.0,0.0,0.0,0.0,0.0,0.0,0.0,0.0,0.0,0.0,0.0,0.0,0.0,0.0,0.0,0.0,0.0,-5.0374,-5.0302,-5.0302,-5.0302,-5.0302,-5.0302,-5.0302,-5.0302,-5.0302,-5.0302,-5.0302,-5.0302,-5.0302,-5.0236,-5.0132,-5.0248,-5.0236,-5.0144,-5.0248,-5.0302,-5.0302,-5.0302,-5.0302,-5.0302,-5.0302,-5.0156,-4.991,0.0,0.0,0.0,0.0,-4.8815,-4.8658,-4.8764,-4.8658,-4.8458,-4.8344,-4.8306,-4.8306,-4.8306,-4.8306,-4.8306,-4.8306,-4.8306,-4.8306,-4.8306,-4.8306,-4.8306,-4.8306,-4.7935,-4.7464,-4.6999,-4.6531,-4.6013,-4.5502,-4.5397,-4.5397,-4.5397,-4.5397,-4.5397,-4.5397,-4.5397,-4.5397,-4.5397,-4.5397,-4.5397,-4.5397,-4.5397,-4.5641,-4.6161,-4.6211,-4.6507,-4.7115,-4.7442,-4.7674,-4.7836,-4.8152,-4.8306,-4.8306,-4.8306,-4.8306,-4.8306,-4.8306,-4.8306,-4.8306,-4.8306,-4.8306,-4.8306,-4.8306,-4.8306,-4.8306,-4.8306,-4.8306,-4.8306,-4.8306,-4.8306,-4.8306,0.0,0.0,0.0,0.0,0.0,0.0,0.0,0.0,0.0,0.0,0.0,0.0,0.0,0.0,0.0,0.0,0.0,0.0,0.0,0.0,-5.0457,-5.0418,-5.0407,-5.0374,-5.0302,-5.0302,-5.0302,-5.0302,-5.0302,-5.0302,-5.0302,-5.0302,-5.0302,-5.0302,-5.0302,-5.0302,-5.0302,-5.0302,-5.0302,-5.0302,-5.0302,-5.0302,-5.0302,-5.0302,-5.0169,0.0,0.0,0.0,0.0,0.0,-4.8477,-4.8344,-4.855,-4.8477,-4.8306,-4.8306,-4.8306,-4.8306,-4.8306,-4.8306,-4.8306,-4.8306,-4.8306,-4.8306,-4.8306,-4.8306,-4.8306,-4.8306,-4.7935,-4.7464,-4.6999,-4.6531,-4.6013,-4.5502,-4.5397,-4.5397,-4.5397,-4.5397,-4.5397,-4.5397,-4.5397,-4.5397,-4.5397,-4.5397,-4.5397,-4.5397,-4.5397,-4.5537,-4.5905,-4.5905,-4.6137,-4.6631,-4.7115,-4.7442,-4.7611,-4.8073,-4.8306,-4.8306,-4.8306,-4.8306,-4.8306,-4.8306,-4.8306,-4.8306,-4.8306,-4.8306,-4.8306,-4.8306,-4.8306,-4.8306,-4.8306,-4.8306,-4.8306,-4.8306,-4.8306,-4.8306,0.0,0.0,0.0,0.0,0.0,0.0,0.0,0.0,0.0,0.0,0.0,0.0,0.0,0.0,0.0,0.0,0.0,0.0,0.0,0.0,0.0,-5.0616,-5.0606,-5.0526,-5.0325,-5.0314,-5.0314,-5.0302,-5.0302,-5.0302,-5.0302,-5.0302,-5.0302,-5.0302,-5.0302,-5.0302,-5.0302,-5.0302,-5.0302,-5.0302,-5.0302,-5.0302,-5.0302,-5.0302,0.0,0.0,0.0,0.0,0.0,0.0,-4.8306,-4.8344,-4.8363,-4.8344,-4.8325,-4.8325,-4.8325,-4.8306,-4.8306,-4.8306,-4.8306,-4.8306,-4.8306,-4.8306,-4.8306,-4.8287,-4.8267,-4.8267,-4.7877,-4.7399,-4.6954,-4.6483,-4.5988,-4.5485,-4.5397,-4.5397,-4.5397,-4.5397,-4.5397,-4.5397,-4.5397,-4.5397,-4.5397,-4.5423,-4.545,-4.545,-4.545,-4.545,-4.545,-4.545,-4.5667,-4.6186,-4.6631,-4.7093,-4.7569,-4.8055,-4.8306,-4.8306,-4.8287,-4.8287,-4.8306,-4.8287,-4.8287,-4.8306,-4.8306,-4.8306,-4.8306,-4.8267,-4.8267,-4.8267,-4.8248,-4.823,-4.8267,-4.8267,-4.8287,-4.8306,0.0,0.0,0.0,0.0,0.0,0.0,0.0,0.0,0.0,0.0,0.0,0.0,0.0,0.0,0.0,0.0,0.0,0.0,0.0,0.0,0.0,0.0,0.0,0.0,0.0,0.0,0.0,0.0,0.0,-5.0302,-5.0302,-5.0302,-5.0302,-5.0302,-5.0302,-5.0302,-5.0302,-5.0302,-5.0302,-5.0302,0.0,-5.0302,-5.0302,0.0,0.0,0.0,0.0,0.0,0.0,0.0,-4.8476,-4.8711,-4.8965,-4.8883,-4.8658,-4.8658,-4.8495,-4.8306,-4.8306,-4.8306,-4.8306,-4.8306,-4.8306,-4.8306,-4.8306,-4.8035,-4.7795,-4.7795,-4.7138,-4.6513,-4.6387,-4.5938,-4.5563,-4.5423,-4.5397,-4.5397,-4.5397,-4.5397,-4.5397,-4.5397,-4.5397,-4.5397,-4.5397,-4.5752,-4.6005,-4.6005,-4.6005,-4.6005,-4.6005,-4.6005,-4.6062,-4.6186,-4.6332,-4.6607,-4.7071,-4.7895,-4.8306,-4.8287,-4.7955,-4.7975,-4.8287,-4.7955,-4.7975,-4.8306,-4.8306,-4.8306,-4.8267,-4.7917,-4.7795,-4.7736,-4.7378,-4.7464,-4.7795,-4.7795,-4.7995,-4.8306,0.0,0.0,0.0,0.0,0.0,0.0,0.0,0.0,0.0,0.0,0.0,0.0,0.0,0.0,0.0,0.0,0.0,0.0,0.0,0.0,0.0,0.0,0.0,0.0,0.0,0.0,0.0,0.0,0.0,0.0,0.0,-5.0302,-5.0302,-5.0302,-5.0302,-5.0302,-5.0302,0.0,0.0,0.0,0.0,0.0,0.0,0.0,0.0,0.0,0.0,0.0,0.0,0.0,0.0,-4.9048,-4.9237,-4.9064,-4.8799,-4.8799,-4.855,-4.8306,-4.8306,-4.8306,-4.8306,-4.8306,-4.8306,-4.8248,-4.8035,-4.7795,-4.7548,-4.7335,-4.6724,-4.6211,-4.6211,-4.5752,-4.5397,-4.5397,-4.5397,-4.5397,-4.5397,-4.5397,-4.5397,-4.5397,-4.5397,-4.5485,-4.5727,-4.6013,-4.6284,-4.6507,-4.6507,-4.6507,-4.6507,-4.6507,-4.6507,-4.6507,-4.6507,-4.6724,-4.7204,-4.7935,-4.8306,-4.8287,-4.7816,-4.7736,-4.7995,-4.7715,-4.7736,-4.7995,-4.821,-4.8306,-4.8267,-4.7795,-4.7611,-4.7548,-4.7071,-4.7049,-4.7291,-4.7291,-4.7591,-4.7995,0.0,0.0,0.0,0.0,0.0,0.0,0.0,0.0,0.0,0.0,0.0,0.0,0.0,0.0,0.0,0.0,0.0,0.0,0.0,0.0,0.0,0.0,0.0,0.0,0.0,0.0,0.0,0.0,0.0,0.0,0.0,0.0,0.0,0.0,0.0,0.0,0.0,0.0,0.0,0.0,0.0,0.0,0.0,0.0,0.0,0.0,0.0,0.0,0.0,0.0,-4.9618,-4.936,-4.9424,-4.9177,-4.8866,-4.8866,-4.8604,-4.8306,-4.8306,-4.8306,-4.8306,-4.8306,-4.8306,-4.8172,-4.7713,-4.7548,-4.7378,-4.6908,-4.6435,-4.6087,-4.6087,-4.5701,-4.5397,-4.5397,-4.5397,-4.5397,-4.5397,-4.5397,-4.5397,-4.5397,-4.5397,-4.5589,-4.6038,-4.6161,-4.644,-4.7005,-4.7137,-4.7106,-4.6999,-4.6981,-4.6959,-4.6908,-4.6908,-4.7115,-4.7591,-4.8073,-4.8306,-4.8287,-4.7775,-4.7548,-4.7591,-4.7485,-4.7464,-4.7527,-4.7995,-4.821,-4.8172,-4.7695,-4.7506,-4.7464,-4.6913,-4.6747,-4.6817,-4.6817,-4.7093,-4.7506,0.0,0.0,0.0,0.0,0.0,0.0,0.0,0.0,0.0,0.0,0.0,0.0,0.0,0.0,0.0,0.0,0.0,0.0,0.0,0.0,0.0,0.0,0.0,0.0,0.0,0.0,0.0,0.0,0.0,0.0,0.0,0.0,0.0,0.0,0.0,0.0,0.0,0.0,0.0,0.0,0.0,0.0,0.0,0.0,0.0,0.0,0.0,0.0,0.0,0.0,-4.9757,-4.9757,-5.0038,-4.9702,-4.9206,-4.9206,-4.878,-4.8306,-4.8306,-4.8306,-4.8306,-4.8306,-4.8306,-4.8172,-4.7713,-4.7291,-4.6886,-4.6411,-4.5887,-4.5537,-4.5537,-4.5476,-4.5397,-4.5397,-4.5397,-4.5397,-4.5397,-4.5397,-4.5397,-4.5397,-4.5397,-4.545,-4.5537,-4.5955,-4.6676,-4.7818,-4.8241,-4.819,-4.7521,-4.7485,-4.7291,-4.6908,-4.6908,-4.7115,-4.7591,-4.8073,-4.8306,-4.8287,-4.7421,-4.7226,-4.7569,-4.6799,-4.6654,-4.7066,-4.7527,-4.7715,-4.7692,-4.7204,-4.7022,-4.6913,-4.602,-4.5938,-4.6315,-4.6315,-4.6607,-4.7022,0.0,0.0,0.0,0.0,0.0,0.0,0.0,0.0,0.0,0.0,-5.2078,-5.1902,0.0,0.0,0.0,0.0,0.0,0.0,0.0,0.0,0.0,0.0,0.0,0.0,0.0,0.0,-5.1092,-5.0856,0.0,0.0,0.0,-5.034,-5.0302,-5.0302,0.0,0.0,0.0,0.0,0.0,0.0,0.0,0.0,0.0,0.0,0.0,0.0,0.0,0.0,0.0,0.0,-5.0063,-5.0088,-5.0248,-4.9844,-4.9299,-4.9299,-4.8832,-4.8306,-4.8306,-4.8306,-4.8306,-4.8306,-4.8306,-4.8113,-4.7399,-4.7004,-4.6566,-4.5819,-4.5415,-4.5194,-4.5274,-4.53,-4.53,-4.5397,-4.5397,-4.5397,-4.5397,-4.5397,-4.5485,-4.5778,-4.5563,-4.5615,-4.6144,-4.6394,-4.7091,-4.8362,-4.8929,-4.9052,-4.8671,-4.799,-4.7378,-4.6908,-4.7138,-4.7248,-4.7248,-4.7955,-4.8172,-4.7935,-4.7226,-4.7022,-4.7226,-4.6771,-4.6678,-4.6931,-4.7399,-4.7464,-4.7204,-4.6724,-4.6554,-4.6459,-4.5701,-4.5563,-4.5778,-4.5778,-4.6112,-4.6554,0.0,0.0,0.0,0.0,0.0,0.0,0.0,-5.1363,-5.1658,-5.2337,-5.2411,-5.2156,-5.1472,-5.157,0.0,0.0,0.0,0.0,0.0,0.0,0.0,0.0,0.0,0.0,0.0,0.0,0.0,-5.1099,-5.0939,0.0,0.0,0.0,0.0,0.0,-5.0302,-5.0302,-5.0302,0.0,0.0,0.0,0.0,-5.0302,0.0,0.0,0.0,0.0,0.0,0.0,0.0,0.0,-5.0181,-5.0169,-5.012,-4.9771,-4.9394,-4.924,-4.8815,-4.8383,-4.8325,-4.8306,-4.8306,-4.8306,-4.8306,-4.8073,-4.7222,-4.6863,-4.6448,-4.5529,-4.5194,-4.5086,-4.5177,-4.5203,-4.5274,-4.5371,-4.5397,-4.545,-4.5563,-4.5563,-4.5752,-4.6308,-4.5905,-4.5912,-4.6817,-4.6817,-4.7392,-4.8945,-4.9718,-4.9959,-4.9629,-4.8475,-4.7623,-4.7066,-4.7399,-4.7421,-4.7049,-4.7895,-4.8055,-4.7591,-4.7115,-4.684,-4.6747,-4.6631,-4.6584,-4.6607,-4.7093,-4.7093,-4.6724,-4.6339,-4.6211,-4.6137,-4.5615,-4.5397,-4.5397,-4.5397,-4.5667,-4.6013,0.0,0.0,0.0,0.0,0.0,0.0,0.0,-5.1406,-5.1424,-5.1517,-5.1511,-5.1492,-5.1414,-5.2117,0.0,0.0,0.0,0.0,0.0,0.0,0.0,0.0,0.0,0.0,0.0,0.0,0.0,-5.1099,-5.1074,0.0,0.0,0.0,0.0,0.0,0.0,-5.0302,-5.0302,-5.0302,0.0,0.0,0.0,0.0,0.0,0.0,0.0,0.0,0.0,0.0,0.0,0.0,0.0,-4.9784,-4.9498,-4.9556,-4.9627,-4.9015,-4.8799,-4.8694,-4.8383,-4.8306,-4.8306,-4.8306,-4.8306,-4.8151,-4.7578,-4.7062,-4.6519,-4.587,-4.5424,-4.5194,-4.5203,-4.53,-4.5397,-4.5397,-4.5397,-4.5563,-4.6062,-4.6112,-4.6291,-4.6771,-4.6411,-4.6339,-4.6863,-4.6513,-4.7258,-4.9702,-5.107,-5.1153,-4.9684,-4.9021,-4.8351,-4.7567,-4.7591,-4.7591,-4.7527,-4.8035,-4.8055,-4.7591,-4.7115,-4.6678,-4.6259,-4.5752,-4.5537,-4.5563,-4.6112,-4.6291,-4.6259,-4.6211,-4.6211,-4.6137,-4.5615,-4.5397,-4.5397,-4.5397,-4.5423,-4.5459,0.0,0.0,0.0,0.0,0.0,0.0,0.0,-5.1365,-5.1599,-5.2103,-5.2175,-5.237,-5.2917,-5.28,-5.2489,0.0,0.0,0.0,0.0,0.0,0.0,0.0,0.0,0.0,0.0,0.0,-5.1269,-5.1225,-5.1139,0.0,0.0,0.0,0.0,0.0,0.0,-5.0399,-5.0314,-5.044,0.0,0.0,0.0,0.0,0.0,0.0,0.0,0.0,0.0,0.0,-5.0248,-4.9897,-4.9803,0.0,-4.9161,-4.924,0.0,0.0,-4.8658,-4.8458,-4.8344,-4.8306,-4.8306,-4.8306,-4.8306,-4.817,-4.7621,-4.6981,-4.6389,-4.5895,-4.5363,-4.5005,-4.515,-4.523,-4.53,-4.5397,0.0,0.0,-4.5693,-4.5701,-4.6013,-4.6817,-4.6483,-4.6507,-4.7248,-4.759,-4.8722,-5.1025,-5.2168,-5.2013,-5.0398,-4.9097,-4.8145,-4.7609,-4.7335,-4.7313,-4.7591,-4.8073,-4.7935,-4.7182,-4.6999,-4.6654,-4.6186,-4.598,-4.5879,-4.5905,-4.6112,-4.603,-4.5701,-4.5701,-4.5701,-4.5693,-4.5485,-4.5397,-4.5397,-4.5397,-4.5397,-4.5397,0.0,0.0,0.0,0.0,0.0,0.0,-5.1288,-5.1337,-5.1601,-5.2222,-5.2312,-5.2546,-5.3151,-5.2683,-5.2078,-5.1453,0.0,0.0,0.0,0.0,0.0,0.0,0.0,0.0,0.0,0.0,-5.131,-5.1289,-5.1215,-5.1139,0.0,0.0,-5.0715,-5.0662,0.0,0.0,0.0,0.0,0.0,0.0,0.0,0.0,0.0,0.0,0.0,0.0,0.0,0.0,0.0,0.0,0.0,0.0,0.0,0.0,0.0,0.0,-4.8569,-4.8439,-4.8325,-4.8306,-4.8306,-4.8306,-4.8306,-4.819,-4.7806,-4.7186,-4.6566,-4.6084,-4.5537,-4.5133,-4.5177,-4.523,-4.53,0.0,0.0,-4.545,-4.5615,-4.5641,-4.5963,-4.6794,-4.6678,-4.6808,-4.7524,-4.8678,-5.0107,-5.1864,-5.2747,-5.2428,-5.0655,-4.9346,-4.8353,-4.7627,-4.727,-4.727,-4.7591,-4.7935,-4.7692,-4.6908,-4.6747,-4.6435,-4.5963,-4.5963,-4.5963,-4.5963,-4.5963,-4.5752,-4.5397,-4.5397,-4.5397,-4.5397,-4.5397,-4.5397,-4.5397,-4.5397,-4.5397,-4.5397,0.0,0.0,0.0,0.0,0.0,0.0,0.0,-5.1297,-5.134,-5.1405,-5.1414,-5.1414,-5.1433,-5.1414,-5.1414,-5.1394,0.0,0.0,0.0,0.0,0.0,0.0,0.0,0.0,0.0,0.0,-5.1366,-5.1294,-5.1289,-5.123,-5.1099,-5.1099,-5.0992,-5.079,0.0,0.0,0.0,0.0,0.0,0.0,0.0,0.0,0.0,0.0,0.0,0.0,0.0,0.0,0.0,0.0,0.0,0.0,0.0,0.0,0.0,0.0,-4.855,-4.8711,-4.8383,-4.8306,-4.8306,-4.8306,-4.8306,-4.8267,-4.8207,-4.7793,-4.7212,-4.6619,-4.6189,-4.5759,-4.5283,-4.53,-4.5397,-4.5397,-4.5397,0.0,-4.6112,-4.6186,-4.6363,-4.684,-4.7113,-4.7369,-4.7578,-4.9533,-5.1132,-5.194,-5.2747,-5.2264,-5.0119,-5.0007,-4.9242,-4.7666,-4.7591,-4.7591,-4.7611,-4.7611,-4.7378,-4.6886,-4.6435,-4.593,-4.5397,-4.5397,-4.5397,-4.5397,-4.5397,-4.5397,-4.5397,-4.5397,-4.5397,-4.5397,-4.5397,-4.5397,-4.5397,-4.5397,-4.5397,-4.5371,0.0,0.0,0.0,0.0,0.0,0.0,0.0,-5.1335,-5.1387,-5.1402,-5.1394,-5.1394,-5.1394,-5.1394,-5.1394,-5.1394,0.0,0.0,0.0,0.0,0.0,0.0,0.0,0.0,0.0,0.0,-5.1362,-5.1292,-5.1304,-5.1284,-5.1234,-5.1139,-5.1062,-5.1005,-5.1005,-5.0932,0.0,0.0,0.0,0.0,0.0,0.0,-5.0302,0.0,0.0,0.0,0.0,0.0,0.0,0.0,0.0,0.0,0.0,0.0,0.0,0.0,0.0,-4.8439,-4.8344,-4.8306,-4.8306,-4.8306,-4.8306,-4.8267,-4.8207,-4.7793,-4.7255,-4.6735,-4.6244,-4.5784,-4.5406,-4.53,-4.53,-4.5397,-4.53,0.0,-4.5615,-4.598,-4.6363,-4.684,-4.7529,-4.8463,-4.9663,-5.0391,-5.1371,-5.2729,-5.2214,-5.1449,-5.0597,-4.9386,-4.8353,-4.7627,-4.7611,-4.7611,-4.7611,-4.7611,-4.7186,-4.6411,-4.6284,-4.593,-4.5397,-4.5397,-4.5397,-4.5397,-4.5397,-4.5397,-4.5397,-4.5397,-4.5397,-4.5397,-4.5397,-4.5397,-4.5397,-4.53,-4.5274,-4.5247,0.0,0.0,0.0,0.0,0.0,0.0,0.0,-5.1361,-5.1404,-5.14,-5.1394,-5.1394,-5.1394,-5.1394,-5.1394,-5.1394,0.0,0.0,0.0,0.0,0.0,0.0,0.0,0.0,0.0,-5.14,-5.1385,-5.1342,-5.1308,-5.13,-5.1296,-5.1201,-5.119,-5.119,-5.119,-5.1114,0.0,0.0,0.0,0.0,0.0,0.0,-5.0302,0.0,0.0,0.0,0.0,0.0,0.0,0.0,0.0,0.0,0.0,0.0,0.0,0.0,-4.8306,-4.8306,-4.8306,-4.8306,-4.8306,-4.8306,-4.8306,-4.8287,-4.8247,-4.7974,-4.7506,-4.6845,-4.6382,-4.596,-4.538,-4.5167,-4.5167,-4.53,-4.522,-4.5274,-4.5667,-4.592,-4.6403,-4.7209,-4.7729,-4.8802,-5.0775,-5.0681,-5.1155,-5.2762,-5.1845,-5.0917,-5.0246,-4.9217,-4.8251,-4.7353,-4.7335,-4.7421,-4.7611,-4.7248,-4.6776,-4.6186,-4.5988,-4.5727,-4.5397,-4.5397,-4.5397,-4.5397,-4.5397,-4.5397,0.0,-4.5397,-4.5371,-4.5327,-4.5327,-4.5274,-4.5238,-4.5167,-4.5123,-4.5113,0.0,0.0,0.0,0.0,0.0,0.0,0.0,0.0,0.0,0.0,-5.1394,-5.1394,-5.1394,-5.1394,-5.1394,0.0,0.0,0.0,0.0,0.0,0.0,0.0,0.0,0.0,0.0,-5.1408,-5.1394,-5.1391,-5.1339,-5.13,-5.13,-5.13,-5.13,-5.13,-5.13,-5.1292,0.0,0.0,0.0,0.0,0.0,0.0,0.0,0.0,0.0,0.0,0.0,0.0,0.0,0.0,0.0,0.0,0.0,0.0,0.0,0.0,0.0,0.0,0.0,-4.8306,-4.8306,-4.8306,-4.8306,-4.8306,-4.8287,0.0,0.0,-4.6936,-4.6595,-4.6189,-4.5257,-4.5005,-4.5032,-4.515,-4.5086,-4.5257,-4.6087,-4.6084,-4.6526,-4.7873,-4.7803,-4.8554,-5.0914,-5.0443,-5.0647,-5.2208,-5.1506,-5.0469,-4.9228,-4.9316,-4.8634,-4.6949,-4.6908,-4.7093,-4.7506,-4.6654,-4.6186,-4.6137,-4.5641,-4.5397,-4.5397,-4.5397,-4.5397,-4.5397,-4.5397,-4.5397,-4.5397,-4.5371,-4.53,-4.5194,-4.5194,-4.5113,-4.5005,-4.4978,-4.4978,-4.4968,0.0,0.0,0.0,0.0,0.0,0.0,0.0,0.0,0.0,0.0,0.0,-5.1394,-5.1394,-5.1394,0.0,0.0,0.0,0.0,0.0,0.0,0.0,0.0,0.0,0.0,0.0,-5.1397,-5.1362,-5.1316,-5.1304,-5.13,-5.13,-5.13,-5.13,-5.13,-5.13,-5.1162,0.0,0.0,0.0,0.0,0.0,0.0,0.0,0.0,0.0,0.0,-5.0302,-5.0302,0.0,0.0,0.0,0.0,0.0,0.0,0.0,0.0,-4.8306,-4.8306,-4.8306,0.0,-4.8306,-4.8306,-4.8306,-4.8287,0.0,0.0,0.0,0.0,-4.6799,-4.6328,-4.5717,-4.5177,-4.4886,-4.5032,-4.4923,-4.5123,-4.5843,-4.6694,-4.7521,-4.8424,-4.8288,-4.8782,-5.0432,-5.0222,-5.0411,-5.1411,-5.0008,-4.9078,-4.8896,-4.8033,-4.7353,-4.6908,-4.6908,-4.6771,-4.6537,-4.6315,-4.5988,-4.5589,-4.5476,-4.5397,-4.5397,-4.5397,-4.5397,-4.5397,-4.53,-4.5247,-4.5247,-4.514,-4.5086,-4.5059,-4.5059,-4.5032,-4.4978,-4.4886,-4.4858,-4.4831,0.0,0.0,0.0,0.0,0.0,0.0,0.0,0.0,0.0,0.0,0.0,0.0,0.0,0.0,0.0,0.0,0.0,0.0,0.0,0.0,0.0,0.0,0.0,0.0,-5.1394,-5.1408,-5.1375,-5.1346,-5.1319,-5.1289,-5.13,-5.13,-5.13,-5.13,-5.13,-5.1111,0.0,0.0,0.0,0.0,-5.0302,0.0,0.0,0.0,0.0,0.0,-5.0302,-5.0302,0.0,-5.0302,-5.0302,-5.0169,0.0,0.0,0.0,0.0,-4.8306,-4.8287,-4.8267,-4.8247,-4.8247,-4.8247,-4.8208,-4.8151,-4.811,0.0,0.0,0.0,-4.673,-4.6238,-4.5985,-4.5442,-4.5079,-4.5257,-4.5398,-4.5631,-4.6081,-4.7025,-4.7787,-4.806,-4.8149,-4.8555,-4.9562,-4.931,-4.9405,-5.0219,-4.9216,-4.8642,-4.8743,-4.7789,-4.7115,-4.6908,-4.6678,-4.6459,-4.6211,-4.5955,-4.5693,-4.5397,-4.5397,-4.5371,-4.53,-4.5371,-4.5344,-4.5238,-4.5194,-4.5167,-4.5096,-4.5032,-4.4951,-4.4913,-4.4913,-4.4886,-4.4803,-4.472,-4.4709,-4.4709,0.0,0.0,0.0,0.0,0.0,0.0,0.0,0.0,0.0,0.0,0.0,0.0,0.0,0.0,0.0,0.0,0.0,0.0,0.0,0.0,0.0,0.0,0.0,-5.1394,-5.1392,-5.1403,-5.1391,-5.1394,-5.132,-5.1303,-5.1304,-5.13,-5.13,-5.13,-5.1284,-5.1095,0.0,0.0,-5.0596,-5.0302,-5.0302,0.0,0.0,0.0,0.0,0.0,0.0,0.0,0.0,-5.0302,-5.0302,-5.0169,-4.9512,0.0,0.0,0.0,0.0,0.0,-4.8246,-4.8207,-4.8187,-4.8168,-4.809,-4.7992,-4.799,0.0,0.0,0.0,0.0,-4.6238,-4.6238,-4.5775,-4.5433,-4.5537,-4.596,-4.6365,-4.6501,-4.7292,-4.7773,-4.7529,-4.7828,-4.8214,-4.8686,-4.833,-4.8365,-4.9049,-4.869,-4.8456,-4.8417,-4.7764,-4.7182,-4.6701,-4.6363,-4.6161,-4.6062,-4.5615,-4.5397,-4.5397,-4.5397,-4.5344,-4.5203,-4.53,-4.522,-4.5005,-4.5113,-4.5086,-4.4951,-4.4968,-4.4886,-4.4776,-4.4776,-4.4709,-4.4615,-4.4615,-4.4615,-4.4615,0.0,0.0,0.0,0.0,0.0,0.0,0.0,0.0,0.0,0.0,0.0,0.0,0.0,0.0,0.0,0.0,0.0,0.0,0.0,0.0,0.0,0.0,-5.1394,-5.139,-5.1401,-5.1399,-5.1391,-5.1394,-5.132,-5.1291,-5.1307,-5.1308,-5.13,-5.1296,-5.1176,-5.1011,-5.0782,-5.067,-5.0497,-5.0302,-5.0302,0.0,0.0,0.0,0.0,0.0,0.0,0.0,0.0,-5.0302,-5.0302,-5.0169,-4.9512,0.0,0.0,0.0,0.0,0.0,-4.8287,-4.8228,-4.8168,-4.807,-4.8012,-4.799,-4.7925,0.0,0.0,0.0,0.0,0.0,-4.6794,-4.6334,-4.5843,-4.5407,-4.5893,-4.6484,-4.6999,-4.7678,-4.8088,-4.7916,-4.8116,-4.8294,-4.8373,-4.8455,-4.8569,-4.8677,-4.7879,-4.7289,-4.7173,-4.6684,-4.6168,-4.5667,-4.5988,-4.5938,-4.5363,-4.538,-4.5397,-4.5397,-4.5397,-4.5344,-4.5203,-4.522,-4.514,-4.4978,-4.4913,-4.4858,-4.4831,-4.4709,-4.4654,-4.4626,-4.4626,-4.4626,-4.4615,-4.4615,-4.4615,-4.4615,0.0,0.0,0.0,0.0,0.0,0.0,0.0,0.0,0.0,0.0,0.0,0.0,0.0,0.0,0.0,0.0,0.0,0.0,0.0,0.0,0.0,-5.1394,-5.1394,-5.1392,-5.1408,-5.1408,-5.1401,-5.1408,-5.1372,-5.134,-5.1291,-5.1224,-5.1181,-5.1176,-5.1017,-5.0852,-5.0687,-5.0635,-5.0485,-5.0302,0.0,0.0,0.0,0.0,0.0,0.0,0.0,0.0,0.0,0.0,-5.0302,-5.0169,-4.9512,0.0,0.0,0.0,0.0,0.0,-4.8108,-4.8067,-4.8026,-4.7947,-4.797,-4.799,-4.7922,-4.7881,0.0,0.0,-4.728,-4.6976,-4.728,-4.6886,-4.659,-4.6683,-4.6406,-4.643,-4.7053,-4.7537,-4.7743,-4.7553,-4.7792,-4.7931,-4.7767,-4.7588,-4.7467,-4.7467,-4.7098,-4.6861,-4.6812,-4.6411,-4.6087,-4.5854,-4.5778,-4.5572,-4.5203,-4.5274,-4.5247,-4.5167,-4.5167,-4.5113,-4.4978,-4.5059,-4.4978,-4.4776,-4.482,-4.4748,-4.4682,-4.4643,-4.4615,-4.4615,-4.4615,-4.4615,-4.4615,-4.4615,-4.4615,-4.4615,0.0,0.0,0.0,0.0,0.0,0.0,0.0,0.0,0.0,0.0,0.0,0.0,0.0,0.0,0.0,0.0,0.0,0.0,0.0,0.0,-5.1394,-5.1394,-5.1394,-5.1394,-5.1394,-5.1392,-5.1406,-5.1399,-5.138,-5.1333,-5.1257,-5.1155,-5.1068,-5.1011,-5.0844,-5.0696,-5.0606,-5.0557,-5.0432,-5.0302,0.0,0.0,0.0,0.0,0.0,0.0,0.0,0.0,0.0,0.0,0.0,0.0,0.0,0.0,0.0,-4.842,-4.8187,-4.8148,-4.7966,-4.7925,-4.7925,-4.7925,-4.7927,-4.7929,-4.7902,-4.7881,-4.7819,-4.7717,-4.7385,-4.7214,-4.7636,-4.7258,-4.7062,-4.7593,-4.6886,-4.6525,-4.7173,-4.7444,-4.7488,-4.7178,-4.753,-4.7568,-4.7116,-4.6799,-4.659,-4.6454,-4.6448,-4.6472,-4.6501,-4.6168,-4.5988,-4.6013,-4.5572,-4.5274,-4.515,-4.5113,-4.5059,-4.5005,-4.5005,-4.494,-4.4803,-4.4913,-4.4831,-4.4615,-4.4709,-4.4709,-4.4615,-4.4615,-4.4615,-4.4615,-4.4615,-4.4615,-4.4615,-4.4615,-4.4615,-4.4615,0.0,0.0,0.0,0.0,0.0,0.0,0.0,0.0,0.0,0.0,0.0,0.0,0.0,0.0,0.0,0.0,0.0,0.0,0.0,0.0,-5.1394,-5.1394,-5.1394,-5.1394,-5.1394,-5.1406,-5.1399,-5.1399,-5.133,-5.1245,-5.1117,-5.1105,-5.0998,-5.0825,-5.068,-5.0606,-5.0596,-5.0407,-5.0314,-5.0302,-5.0302,0.0,0.0,0.0,0.0,0.0,0.0,0.0,0.0,0.0,0.0,0.0,0.0,0.0,-4.9161,-4.842,-4.8187,-4.8168,-4.803,-4.7992,-4.7992,-4.7992,-4.7847,-4.7759,-4.7861,-4.7801,-4.7717,-4.7717,-4.7657,-4.7657,-4.7678,-4.7258,-4.6908,-4.6954,-4.6908,-4.7084,-4.7759,-4.7873,-4.7729,-4.7341,-4.7699,-4.7575,-4.6478,-4.6794,-4.6863,-4.6358,-4.5928,-4.5751,-4.5968,-4.552,-4.5327,-4.5432,-4.53,-4.5167,-4.5005,-4.4886,-4.4886,-4.5005,-4.5005,-4.494,-4.4803,-4.4803,-4.4737,-4.4615,-4.4598,-4.4598,-4.4615,-4.4615,-4.4615,-4.4615,-4.4615,-4.4615,-4.4615,-4.4615,-4.4615,-4.4615,0.0,0.0,0.0,0.0,0.0,0.0,0.0,0.0,0.0,0.0,0.0,0.0,0.0,0.0,0.0,0.0,0.0,0.0,0.0,0.0,-5.1394,-5.1394,-5.1394,-5.1392,-5.1406,-5.1401,-5.1399,-5.1399,-5.1242,-5.1086,-5.0918,-5.084,-5.075,-5.068,-5.0486,-5.0399,-5.0418,-5.0317,-5.0302,-5.0302,-5.0302,-5.0302,0.0,0.0,0.0,0.0,0.0,0.0,0.0,0.0,-5.0302,-5.0169,0.0,-4.9299,-4.9126,-4.8326,-4.807,-4.805,-4.7847,-4.7806,-4.7845,-4.7925,-4.7822,-4.7738,-4.7861,-4.7861,-4.7819,-4.7717,-4.7717,-4.7717,-4.7717,-4.7533,-4.7385,-4.7385,-4.7385,-4.749,-4.7738,-4.7798,-4.7593,-4.7107,-4.7218,-4.7026,-4.6244,-4.6067,-4.6024,-4.6165,-4.5511,-4.5283,-4.5674,-4.5292,-4.5113,-4.5157,-4.5113,-4.5005,-4.4886,-4.4831,-4.4776,-4.4765,-4.4765,-4.472,-4.4682,-4.4682,-4.4654,-4.4615,-4.4615,-4.4615,-4.4615,-4.4615,-4.4615,-4.4615,-4.4615,-4.4615,-4.4615,-4.4615,-4.4615,-4.4615,0.0,0.0,0.0,0.0,0.0,0.0,0.0,0.0,0.0,0.0,0.0,0.0,0.0,0.0,0.0,0.0,0.0,0.0,0.0,-5.1394,-5.1394,-5.1394,-5.139,-5.1406,-5.1399,-5.1333,-5.1317,-5.1317,-5.1108,-5.0919,-5.0728,-5.0634,-5.0576,-5.0495,-5.0363,-5.0302,-5.0302,-5.0302,-5.0302,-5.0302,-5.0302,-5.0302,0.0,0.0,0.0,0.0,0.0,0.0,0.0,0.0,-5.0302,-5.0212,0.0,0.0,-4.9271,-4.8477,-4.8268,-4.825,-4.8014,-4.7951,-4.7931,-4.803,0.0,-4.7798,-4.784,-4.784,-4.7819,-4.7717,-4.7717,-4.7657,-4.749,-4.7593,-4.7636,-4.7472,-4.7593,-4.7717,-4.7717,-4.7554,-4.7302,-4.6931,-4.6753,-4.6501,-4.614,-4.5775,-4.5622,-4.5825,-4.5284,-4.5069,-4.5336,-4.5086,-4.4968,-4.5005,-4.4951,-4.4886,-4.4803,-4.4748,-4.4682,-4.4615,-4.4615,-4.4615,-4.4615,-4.4615,-4.4615,-4.4615,-4.4615,-4.4615,-4.4615,-4.4615,-4.4615,-4.4615,-4.4615,-4.4615,-4.4615,-4.4615,-4.4615,-4.4615,0.0,0.0,0.0,0.0,0.0,0.0,0.0,0.0,0.0,0.0,0.0,0.0,0.0,0.0,0.0,0.0,0.0,0.0,0.0,-5.1394,-5.1394,-5.1394,-5.1403,-5.1399,-5.1396,-5.1189,-5.1111,-5.1111,-5.0905,-5.072,-5.0606,-5.0606,-5.0495,-5.0302,-5.0302,-5.0302,-5.0302,-5.0302,-5.0302,-5.0302,-5.0302,-5.0302,-5.0302,0.0,0.0,0.0,0.0,0.0,0.0,0.0,-5.0302,-5.0236,0.0,0.0,0.0,-4.8902,-4.8853,-4.892,-4.8604,-4.8458,-4.8403,-4.8403,-4.8151,-4.7861,-4.7738,-4.7717,-4.7717,-4.7717,-4.7717,-4.7533,-4.7017,-4.7341,-4.7533,-4.6976,-4.7363,-4.7717,-4.7717,-4.7236,-4.6908,-4.6908,-4.643,-4.6116,-4.6098,-4.6116,-4.5875,-4.5355,-4.5303,-4.5152,-4.4831,-4.4803,-4.4858,-4.4978,-4.4858,-4.4803,-4.4803,-4.4654,-4.4615,-4.4615,-4.4615,-4.4615,-4.4615,-4.4615,-4.4615,-4.4615,-4.4615,-4.4615,-4.4615,-4.4615,-4.4615,-4.4615,-4.4615,-4.4615,-4.4615,-4.4615,-4.4615,-4.4615,0.0,0.0,0.0,0.0,0.0,0.0,0.0,0.0,0.0,0.0,0.0,0.0,0.0,0.0,0.0,0.0,0.0,0.0,0.0,-5.1394,-5.1394,-5.1394,-5.1403,-5.1336,-5.1187,-5.0893,-5.0748,-5.0748,-5.0698,-5.0577,-5.0385,-5.0385,-5.0352,-5.0302,-5.0302,-5.0302,-5.0302,-5.0302,-5.0302,-5.0302,-5.0302,-5.0302,-5.0302,0.0,0.0,0.0,0.0,0.0,0.0,0.0,0.0,0.0,0.0,0.0,0.0,-4.918,-4.9085,-4.9085,-4.8847,-4.876,-4.8674,-4.8402,-4.8248,-4.809,-4.7762,-4.7717,-4.7717,-4.7717,-4.7717,-4.7657,-4.749,-4.7575,-4.7657,-4.749,-4.7593,-4.7717,-4.7717,-4.7554,-4.7323,-4.6931,-4.6753,-4.6501,-4.614,-4.5749,-4.5622,-4.5868,-4.5222,-4.4906,-4.5125,-4.4841,-4.4682,-4.4709,-4.4682,-4.4654,-4.4654,-4.4626,-4.4615,-4.4615,-4.4615,-4.4615,-4.4615,-4.4615,-4.4615,-4.4615,-4.4615,-4.4615,-4.4615,-4.4615,-4.4615,-4.4615,-4.4615,-4.4615,-4.4615,-4.4615,-4.4615,-4.4615,0.0,0.0,0.0,0.0,0.0,0.0,0.0,0.0,0.0,0.0,0.0,0.0,0.0,0.0,0.0,0.0,0.0,0.0,0.0,0.0,-5.2427,-5.242,-5.2366,-5.2017,-5.1391,-5.1178,-5.0874,-5.0474,-5.0474,-5.0429,-5.0302,-5.0302,-5.0302,-5.0302,-5.0302,-5.0302,-5.0302,-5.0302,-5.0302,-5.0302,-5.0302,-5.0302,-5.0302,0.0,0.0,0.0,0.0,0.0,0.0,0.0,0.0,0.0,0.0,0.0,0.0,-4.9546,-4.9491,-4.9506,-4.9299,-4.9206,-4.908,-4.8675,-4.8458,-4.823,-4.7804,-4.7717,-4.7717,-4.7717,-4.7717,-4.7717,-4.7717,-4.7717,-4.7717,-4.7717,-4.7717,-4.7717,-4.7717,-4.7511,-4.7258,-4.6931,-4.6707,-4.6454,-4.6123,-4.58,-4.5648,-4.5775,-4.5205,-4.4917,-4.5008,-4.4759,-4.4615,-4.4615,-4.4615,-4.4615,-4.4615,-4.4615,-4.4615,-4.4615,-4.4615,-4.4615,-4.4615,-4.4615,-4.4615,-4.4615,-4.4615,-4.4615,-4.4615,-4.4615,-4.4615,-4.4615,-4.4615,-4.4615,-4.4615,-4.4615,-4.4615,-4.4615,0.0,0.0,0.0,0.0,0.0,0.0,0.0,0.0,0.0,0.0,0.0,0.0,0.0,0.0,0.0,0.0,0.0,0.0,0.0,0.0,-5.3984,-5.3983,-5.3759,-5.3111,-5.1962,-5.1826,-5.1338,-5.0417,-5.034,-5.0302,-5.0302,-5.0302,-5.0302,-5.0302,-5.0302,-5.0302,-5.0302,-5.0302,-5.0302,-5.0302,-5.0302,-5.0302,-5.0302,-5.0302,0.0,0.0,0.0,0.0,0.0,0.0,0.0,0.0,-5.0302,-5.0267,-5.0163,-4.9929,-4.9993,-5.0076,-4.9889,-4.9735,-4.955,-4.9142,-4.8727,-4.827,-4.7824,-4.7717,-4.7717,-4.7717,-4.7717,-4.7717,-4.7717,-4.7717,-4.7717,-4.7717,-4.7717,-4.7717,-4.7717,-4.728,-4.6976,-4.6976,-4.6525,-4.6238,-4.6189,-4.6123,-4.5875,-4.5329,-4.5267,-4.5062,-4.4626,-4.4615,-4.4615,-4.4615,-4.4615,-4.4615,-4.4615,-4.4615,-4.4615,-4.4615,-4.4615,-4.4615,-4.4615,-4.4615,-4.4615,-4.4615,-4.4615,-4.4615,-4.4615,-4.4615,-4.4615,-4.4615,-4.4615,-4.4615,-4.4615,-4.4615,-4.4615,-4.4615,0.0,0.0,0.0,0.0,0.0,0.0,0.0,0.0,0.0,0.0,0.0,0.0,0.0,0.0,0.0,0.0,0.0,0.0,0.0,0.0,-5.3952,-5.3853,-5.3507,-5.3172,-5.2906,-5.2064,-5.1534,-5.1322,-5.0646,-5.0302,-5.0302,-5.0302,-5.0302,-5.0302,-5.0302,-5.0302,-5.0302,-5.0302,-5.0302,-5.0302,-5.0302,-5.0302,-5.0302,-5.0302,-5.0302,0.0,0.0,0.0,0.0,0.0,0.0,0.0,-5.0302,-5.029,-5.0278,-5.0212,-5.0224,-5.0243,-5.0132,-5.0044,-4.9901,-4.9476,-4.885,-4.821,-4.7804,-4.7717,-4.7717,-4.7717,-4.7717,-4.7717,-4.7717,-4.7717,-4.7717,-4.7717,-4.7717,-4.7717,-4.7717,-4.7615,-4.7533,-4.7533,-4.7446,-4.7191,-4.6776,-4.6358,-4.5875,-4.5329,-4.4971,-4.4692,-4.4615,-4.4615,-4.4615,-4.4615,-4.4615,-4.4615,-4.4615,-4.4615,-4.4615,-4.4615,-4.4615,-4.4615,-4.4615,-4.4615,-4.4615,-4.4615,-4.4615,-4.4615,-4.4615,-4.4615,-4.4615,-4.4615,-4.4615,-4.4615,-4.4615,-4.4615,-4.4615,-4.4615,0.0,0.0,0.0,0.0,0.0,0.0,0.0,0.0,0.0,0.0,0.0,0.0,0.0,0.0,0.0,0.0,0.0,0.0,0.0,0.0,0.0,0.0,-5.4611,-5.4217,-5.3632,-5.2678,-5.1983,-5.1589,-5.0741,-5.0302,-5.0302,-5.0302,-5.0302,-5.0302,-5.0302,-5.0302,-5.0302,-5.0302,-5.0302,-5.0302,-5.0302,-5.0302,-5.0302,-5.0302,-5.0302,-5.0302,-5.0302,0.0,0.0,0.0,0.0,0.0,0.0,0.0,-5.029,-5.0267,-5.0255,-5.0236,-5.02,-5.0133,-4.9946,-4.9562,-4.8869,-4.8248,-4.805,-4.7845,-4.7717,-4.7717,-4.7717,-4.7717,-4.7717,-4.7717,-4.7717,-4.7717,-4.7717,-4.7717,-4.7717,-4.7717,-4.7717,-4.7717,-4.7717,-4.749,-4.6954,-4.666,-4.6147,-4.5355,-4.5072,-4.4841,-4.4598,-4.4615,-4.4615,-4.4615,-4.4615,-4.4615,-4.4615,-4.4615,-4.4615,-4.4615,-4.4615,-4.4615,-4.4615,-4.4615,-4.4615,-4.4615,-4.4615,-4.4615,-4.4615,-4.4615,-4.4615,-4.4615,-4.4615,-4.4615,-4.4615,-4.4615,-4.4615,-4.4615,0.0,0.0,0.0,0.0,0.0,0.0,0.0,0.0,0.0,0.0,0.0,0.0,0.0,0.0,0.0,0.0,0.0,0.0,0.0,0.0,0.0,0.0,-5.5883,-5.5354,-5.4339,-5.3333,-5.2461,-5.1811,-5.0799,-5.0302,-5.0302,-5.0302,-5.0302,-5.0302,-5.0302,-5.0302,-5.0302,-5.0302,-5.0302,-5.0302,-5.0302,-5.0302,-5.0302,-5.0302,-5.0302,-5.0302,-5.0302,-5.0302,-5.0302,-5.0302,0.0,0.0,0.0,0.0,-5.029,-5.0212,-5.02,-5.0188,-5.0194,-5.0089,-4.9906,-4.9488,-4.8939,-4.8458,-4.8325,-4.805,-4.7783,-4.7699,-4.7717,-4.7717,-4.7717,-4.7717,-4.7717,-4.7717,-4.7717,-4.7717,-4.7717,-4.7717,-4.7717,-4.7717,-4.7717,-4.749,-4.6954,-4.6908,-4.6454,-4.5381,-4.5303,-4.5115,-4.4626,-4.4615,-4.4615,-4.4615,-4.4615,-4.4615,-4.4615,-4.4615,-4.4615,-4.4615,-4.4615,-4.4615,-4.4615,-4.4615,-4.4615,-4.4615,-4.4615,-4.4615,-4.4615,-4.4615,-4.4615,-4.4615,-4.4615,-4.4615,-4.4615,-4.4615,-4.4615,-4.4615,0.0,0.0,0.0,0.0,0.0,0.0,0.0,0.0,0.0,0.0,0.0,0.0,0.0,0.0,0.0,0.0,0.0,0.0,0.0,0.0,0.0,0.0,-5.5649,-5.5451,-5.5223,-5.3644,-5.2747,-5.2633,-5.1066,-5.0302,-5.0302,-5.0302,-5.0302,-5.0302,-5.0302,-5.0302,-5.0302,-5.0302,-5.0302,-5.0302,-5.0302,-5.0302,-5.0302,-5.0302,-5.0302,-5.0302,-5.0302,-5.0302,-5.0302,-5.0302,-5.0302,0.0,0.0,0.0,-5.029,-5.0212,-5.02,-5.0175,-5.0133,-5.0057,-4.9906,-4.9488,-4.9337,-4.9092,-4.8439,-4.8248,-4.8111,-4.7762,-4.7717,-4.7717,-4.7717,-4.7717,-4.7717,-4.7717,-4.7717,-4.7717,-4.7717,-4.7717,-4.7717,-4.7717,-4.7717,-4.749,-4.6954,-4.6908,-4.6454,-4.5381,-4.5303,-4.5115,-4.4626,-4.4615,-4.4615,-4.4615,-4.4615,-4.4615,-4.4615,-4.4615,-4.4615,-4.4615,-4.4615,-4.4615,-4.4615,-4.4615,-4.4615,-4.4615,-4.4615,-4.4615,-4.4615,-4.4615,-4.4615,-4.4615,-4.4615,-4.4615,-4.4615,-4.4615,-4.4615,-4.4615,0.0,0.0,0.0,0.0,0.0,0.0,0.0,0.0,0.0,0.0,0.0,0.0,0.0,0.0,0.0,0.0,0.0,0.0,0.0,0.0,0.0,-5.574,-5.567,-5.5543,-5.5403,-5.3677,-5.2805,-5.2805,-5.1123,-5.0302,-5.0302,-5.0302,-5.0302,-5.0302,-5.0302,-5.0302,-5.0302,-5.0302,-5.0302,-5.0302,-5.0302,-5.0302,-5.0302,-5.0302,-5.0302,-5.0302,-5.0302,-5.0302,-5.0302,-5.0302,-5.0302,-5.0302,-5.0302,0.0,0.0,0.0,-5.0126,-5.0133,-5.0018,-4.9986,-4.9946,-4.9741,-4.9551,-4.9255,-4.8694,-4.8421,-4.819,-4.7783,-4.7717,-4.7717,-4.7717,-4.7717,-4.7717,-4.7717,-4.7717,-4.7717,-4.7717,-4.7717,-4.7717,-4.7717,-4.7717,-4.7615,-4.7363,-4.7363,-4.6908,-4.5825,-4.5749,-4.5399,-4.4654,-4.4615,-4.4615,-4.4615,-4.4615,-4.4615,-4.4615,-4.4615,-4.4615,-4.4615,-4.4615,-4.4615,-4.4615,-4.4615,-4.4615,-4.4615,-4.4615,-4.4615,-4.4615,-4.4615,-4.4615,-4.4615,-4.4615,-4.4615,-4.4615,-4.4615,-4.4615,-4.4615,0.0,0.0,0.0,0.0,0.0,0.0,0.0,0.0,0.0,0.0,0.0,0.0,0.0,0.0,0.0,0.0,0.0,0.0,0.0,0.0,0.0,-5.5622,-5.5628,-5.5458,-5.5078,-5.3569,-5.269,-5.248,-5.1028,-5.0302,-5.0302,-5.0302,-5.0302,-5.0302,-5.0302,-5.0302,-5.0302,-5.0302,-5.0302,-5.0302,-5.0302,-5.0302,-5.0302,-5.0302,-5.0302,-5.0302,-5.0302,-5.0302,-5.0302,-5.0302,-5.0302,-5.0302,-5.0302,-5.0302,0.0,0.0,0.0,-5.0057,-4.992,-4.9939,-4.9965,-4.9906,-4.9712,-4.9427,-4.9038,-4.8676,-4.8326,-4.7929,-4.7762,-4.7717,-4.7717,-4.7717,-4.7717,-4.7717,-4.7717,-4.7717,-4.7717,-4.7717,-4.7717,-4.7717,-4.7717,-4.7717,-4.7717,-4.7717,-4.7258,-4.6189,-4.6098,-4.5657,-4.4654,-4.4615,-4.4615,-4.4615,-4.4615,-4.4615,-4.4615,-4.4615,-4.4615,-4.4615,-4.4615,-4.4615,-4.4615,-4.4615,-4.4615,-4.4615,-4.4615,-4.4615,-4.4615,-4.4615,-4.4615,-4.4615,-4.4615,-4.4615,-4.4615,-4.4615,-4.4615,-4.4615,0.0,0.0,0.0,0.0,0.0,0.0,0.0,0.0,0.0,0.0,0.0,0.0,0.0,-5.5155,-5.6077,-5.6116,0.0,0.0,0.0,0.0,0.0,-5.5425,-5.542,0.0,-5.418,-5.3263,-5.2422,-5.1658,-5.076,-5.0302,-5.0302,-5.0302,-5.0302,-5.0302,-5.0302,-5.0302,-5.0302,-5.0302,-5.0302,-5.0302,-5.0302,-5.0302,-5.0302,-5.0302,-5.0302,-5.0302,-5.0302,-5.0302,-5.0302,-5.0302,-5.0302,-5.0302,-5.0302,-5.0302,-5.029,0.0,0.0,0.0,-4.9925,-4.9893,-4.9893,-4.9912,-4.9898,-4.9783,-4.9442,-4.9055,-4.8694,-4.8326,-4.797,-4.7717,-4.7717,-4.7717,-4.7717,-4.7717,-4.7717,-4.7717,-4.7717,-4.7717,-4.7717,-4.7717,-4.7717,-4.7717,-4.7717,-4.7717,-4.7258,-4.6189,-4.6098,-4.5657,-4.4654,-4.4615,-4.4615,-4.4615,-4.4615,-4.4615,-4.4615,-4.4615,-4.4615,-4.4615,-4.4615,-4.4615,-4.4615,-4.4615,-4.4615,-4.4615,-4.4615,-4.4615,-4.4615,-4.4615,-4.4615,-4.4615,-4.4615,-4.4615,-4.4615,-4.4615,-4.4615,-4.4615,0.0,0.0,0.0,0.0,0.0,0.0,0.0,0.0,0.0,0.0,0.0,0.0,0.0,-5.5411,-5.6042,-5.6042,-5.5912,0.0,0.0,0.0,0.0,-5.4661,-5.4586,-5.4167,-5.3282,-5.2442,-5.1888,-5.1589,-5.0741,-5.0302,-5.0302,-5.0302,-5.0302,-5.0302,-5.0302,-5.0302,-5.0302,-5.0302,-5.0302,-5.0302,-5.0302,-5.0302,-5.0302,-5.0302,-5.0302,-5.0302,-5.0302,-5.0302,-5.029,-5.0255,-5.0243,-5.0243,-5.0243,-5.0243,-5.0212,-5.0158,-5.0082,-4.9933,-4.9669,-4.9581,-4.9581,-4.9581,-4.9581,-4.9551,-4.943,-4.9286,-4.9023,-4.842,-4.819,-4.801,-4.7741,-4.7717,-4.7717,-4.7717,-4.7717,-4.7717,-4.7717,-4.7717,-4.7717,-4.7717,-4.7717,-4.7717,-4.7717,-4.7717,-4.7258,-4.6189,-4.6098,-4.5657,-4.4654,-4.4615,-4.4615,-4.4615,-4.4615,-4.4615,-4.4615,-4.4615,-4.4615,-4.4615,-4.4615,-4.4615,-4.4615,-4.4615,-4.4615,-4.4615,-4.4615,-4.4615,-4.4615,-4.4615,-4.4615,-4.4615,-4.4615,-4.4615,-4.4615,-4.4615,-4.4615,-4.4615,0.0,0.0,0.0,0.0,0.0,0.0,0.0,0.0,0.0,0.0,0.0,0.0,0.0,0.0,-5.5708,-5.5446,-5.5027,-5.4709,-5.463,-5.4546,-5.428,-5.3757,-5.3689,-5.3263,-5.2422,-5.2136,-5.1735,-5.1162,-5.0875,-5.0588,-5.0302,-5.0302,-5.0302,-5.0302,-5.0302,-5.0302,-5.0302,-5.0302,-5.0302,-5.0302,-5.0302,-5.0302,-5.0302,-5.0302,-5.0302,-5.0302,-5.0278,-5.0267,-5.0267,-5.0194,-5.0175,-5.0207,-5.0163,-5.017,-5.0139,-5.0095,-5.0044,-4.9906,-4.9521,-4.9399,-4.9384,-4.922,-4.9204,-4.9236,-4.9384,-4.9206,-4.8922,-4.855,-4.8268,-4.803,-4.7741,-4.7717,-4.7717,-4.7717,-4.7717,-4.7717,-4.7717,-4.7717,-4.7717,-4.7717,-4.7717,-4.7717,-4.7717,-4.7717,-4.7258,-4.6189,-4.6098,-4.5657,-4.4654,-4.4615,-4.4615,-4.4615,-4.4615,-4.4615,-4.4615,-4.4615,-4.4615,-4.4615,-4.4615,-4.4615,-4.4615,-4.4615,-4.4615,-4.4615,-4.4615,-4.4615,-4.4615,-4.4615,-4.4615,-4.4615,-4.4615,-4.4615,-4.4615,-4.4615,-4.4615,-4.4615,0.0,0.0,0.0,0.0,0.0,0.0,0.0,0.0,0.0,-5.3468,0.0,0.0,0.0,0.0,0.0,-5.4392,-5.3483,-5.295,-5.295,-5.2853,-5.2785,-5.2766,0.0,0.0,0.0,0.0,0.0,0.0,0.0,0.0,0.0,-5.0302,-5.0302,-5.0302,-5.0302,-5.0302,-5.034,-5.0302,-5.0302,-5.0302,-5.0302,-5.0302,-5.0302,-5.0302,-5.0302,-5.029,-5.0212,-5.0188,-5.0194,-5.012,-5.0145,-5.0175,-5.012,-5.0082,-5.005,-4.9986,-4.9959,-4.9879,0.0,0.0,0.0,-4.8885,-4.8781,-4.8885,-4.9302,-4.8818,-4.8402,-4.8711,-4.8212,-4.7699,-4.7699,-4.7717,-4.7717,-4.7717,-4.7717,-4.7717,-4.7717,-4.7717,-4.7717,-4.7717,-4.7717,-4.7717,-4.7717,-4.7717,-4.7258,-4.6196,-4.6123,-4.5683,-4.4682,-4.4598,-4.4615,-4.4615,-4.4615,-4.4615,-4.4615,-4.4615,-4.4615,-4.4615,-4.4615,-4.4615,-4.4615,-4.4615,-4.4615,-4.4615,-4.4615,-4.4615,-4.4615,-4.4615,-4.4615,-4.4615,-4.4615,-4.4615,-4.4615,-4.4615,-4.4615,-4.4615,0.0,0.0,0.0,0.0,0.0,0.0,0.0,0.0,0.0,0.0,0.0,0.0,-5.5144,-5.5317,-5.5339,-5.5109,-5.4275,-5.3765,-5.3765,-5.3161,-5.2537,-5.1964,-5.1926,-5.1525,0.0,0.0,0.0,0.0,0.0,0.0,0.0,0.0,0.0,-5.0302,-5.0302,-5.0646,-5.12,-5.0569,-5.0302,-5.0302,-5.0302,-5.0278,-5.0243,-5.0243,-5.0207,-5.0158,-5.0133,-5.0133,-5.012,-5.0057,-5.0082,-5.0076,-4.9814,-4.955,-4.9283,-4.9206,-4.9209,-4.9113,-4.8712,0.0,0.0,0.0,0.0,0.0,-4.8886,-4.8817,-4.8623,-4.8458,-4.8287,-4.805,-4.7741,-4.7717,-4.7717,-4.7717,-4.7717,-4.7717,-4.7717,-4.7717,-4.7717,-4.7717,-4.7717,-4.7717,-4.7717,-4.7717,-4.7407,-4.673,-4.6683,-4.6213,-4.5152,-4.4786,-4.4615,-4.4615,-4.4615,-4.4615,-4.4615,-4.4615,-4.4615,-4.4615,-4.4615,-4.4615,-4.4615,-4.4615,-4.4615,-4.4615,-4.4615,-4.4615,-4.4615,-4.4615,-4.4615,-4.4615,-4.4615,-4.4615,-4.4615,-4.4615,-4.4615,-4.4615,0.0,0.0,0.0,0.0,0.0,0.0,0.0,0.0,0.0,0.0,0.0,0.0,-5.5396,-5.5084,-5.4868,-5.4868,-5.4065,-5.355,-5.355,-5.3072,-5.2594,-5.2117,-5.2098,-5.1716,-5.0856,0.0,0.0,0.0,0.0,0.0,0.0,0.0,0.0,0.0,-5.0837,-5.1314,-5.2079,-5.1563,-5.1334,-5.1314,-5.0947,-5.0777,-5.0702,-5.0316,-5.0133,-5.0095,-5.007,-5.0057,-5.0057,-4.9992,-4.9893,-4.9778,-4.9617,-4.9259,-4.8915,-4.8864,-4.8864,-4.878,-4.8402,-4.8306,-4.8267,-4.8072,0.0,0.0,-4.8514,-4.8458,-4.8327,-4.8306,-4.8189,-4.797,-4.7741,-4.7717,-4.7717,-4.7717,-4.7717,-4.7717,-4.7717,-4.7717,-4.7717,-4.7717,-4.7717,-4.7717,-4.7717,-4.7717,-4.749,-4.6931,-4.6908,-4.643,-4.5355,-4.4852,-4.4615,-4.4615,-4.4615,-4.4615,-4.4615,-4.4615,-4.4615,-4.4615,-4.4615,-4.4615,-4.4615,-4.4615,-4.4615,-4.4615,-4.4615,-4.4615,-4.4615,-4.4615,-4.4615,-4.4615,-4.4615,-4.4615,-4.4615,-4.4615,-4.4615,-4.4615,0.0,0.0,0.0,0.0,0.0,0.0,0.0,0.0,0.0,0.0,-5.5403,-5.5403,-5.5403,-5.4715,-5.4237,-5.4237,-5.3454,-5.2938,-5.2938,-5.2843,-5.2805,-5.2805,-5.2805,-5.2461,-5.1754,0.0,0.0,0.0,0.0,0.0,0.0,0.0,0.0,0.0,0.0,0.0,-5.2938,-5.2938,-5.2983,-5.2983,-5.2024,-5.1618,-5.1516,-5.0691,-5.0311,-5.0203,-5.0151,-5.0068,-4.9992,-4.9939,-4.9683,-4.9396,-4.9439,-4.915,-4.8781,-4.8711,-4.8711,-4.8676,-4.8326,-4.8229,-4.8151,-4.7783,-4.7717,0.0,-4.8151,-4.7949,-4.7804,-4.8151,-4.7949,-4.7717,-4.7717,-4.7717,-4.7717,-4.7717,-4.7717,-4.7717,-4.7717,-4.7717,-4.7717,-4.7717,-4.7717,-4.7717,-4.7717,-4.7717,-4.7511,-4.7022,-4.6886,-4.6382,-4.5433,-4.4879,-4.4615,-4.4615,-4.4615,-4.4615,-4.4615,-4.4615,-4.4615,-4.4615,-4.4615,-4.4615,-4.4615,-4.4615,-4.4615,-4.4615,-4.4615,-4.4615,-4.4615,-4.4615,-4.4615,-4.4615,-4.4615,-4.4615,-4.4615,-4.4615,-4.4615,-4.4615,0.0,0.0,0.0,0.0,0.0,0.0,0.0,0.0,0.0,-5.5403,-5.5403,-5.5403,-5.5403,-5.525,-5.5154,-5.5154,-5.4352,-5.3855,-5.3855,-5.3187,-5.2805,-5.2805,-5.2805,-5.2728,-5.2575,-5.2709,0.0,0.0,0.0,0.0,0.0,0.0,0.0,0.0,0.0,-5.3034,-5.3836,-5.3792,-5.4129,-5.46,-5.3067,-5.2412,-5.2287,-5.2102,-5.1605,-5.0968,-5.0973,-5.0499,-4.9939,-4.9978,-4.9726,-4.9349,-4.9099,-4.8934,-4.8676,-4.8093,-4.8132,-4.8307,-4.7929,-4.7824,-4.7804,-4.772,-4.7717,0.0,-4.7804,-4.7762,-4.772,-4.7804,-4.7741,-4.7717,-4.7717,-4.7717,-4.7717,-4.7717,-4.7717,-4.7717,-4.7717,-4.7717,-4.7717,-4.7717,-4.7717,-4.7717,-4.7717,-4.7717,-4.7657,-4.7554,-4.673,-4.6147,-4.5968,-4.5079,-4.4615,-4.4615,-4.4615,-4.4615,-4.4615,-4.4615,-4.4615,-4.4615,-4.4615,-4.4615,-4.4615,-4.4615,-4.4615,-4.4615,-4.4615,-4.4615,-4.4615,-4.4615,-4.4615,-4.4615,-4.4615,-4.4615,-4.4615,-4.4615,-4.4615,-4.4615,0.0,0.0,0.0,0.0,0.0,0.0,0.0,0.0,0.0,-5.5403,-5.5403,-5.5403,-5.5403,-5.5403,-5.5403,-5.5403,-5.5002,0.0,-5.4753,-5.4333,-5.4104,-5.4104,-5.4104,-5.3894,-5.3454,-5.3454,-5.3244,0.0,0.0,0.0,0.0,0.0,0.0,0.0,0.0,-5.3746,-5.4353,-5.4287,-5.4349,-5.4421,-5.358,-5.3207,-5.31,-5.2622,-5.2182,-5.1798,-5.1798,-5.1263,-5.0486,-5.009,-4.9573,-4.9104,-4.9134,-4.8746,-4.8212,-4.8052,-4.801,-4.7949,-4.7762,-4.7717,-4.7717,-4.7717,-4.7717,0.0,0.0,-4.7717,-4.7717,-4.7717,-4.7717,-4.7717,-4.7717,-4.7717,-4.7717,-4.7717,-4.7717,-4.7717,-4.7717,-4.7717,-4.7717,-4.7717,-4.7717,-4.7717,-4.7717,-4.7717,-4.7717,-4.7717,-4.6707,-4.6213,-4.6478,-4.5275,-4.472,-4.4944,-4.472,-4.4615,-4.4615,-4.4615,-4.4615,-4.4615,-4.4615,-4.4615,-4.4615,-4.4615,-4.4615,-4.4615,-4.4615,-4.4615,-4.4615,-4.4615,-4.4615,-4.4615,-4.4615,-4.4615,-4.4615,-4.4615,-4.4615,-4.4615,-5.5281,0.0,0.0,0.0,0.0,0.0,0.0,0.0,0.0,-5.5403,-5.5403,-5.5403,-5.5403,-5.5403,-5.5403,-5.5403,-5.5403,0.0,-5.5403,-5.5403,-5.5403,-5.5403,-5.5403,-5.5078,-5.4371,-5.4352,-5.4008,0.0,0.0,0.0,0.0,0.0,0.0,0.0,0.0,-5.4358,-5.4579,-5.4519,-5.4274,-5.3904,-5.3893,-5.3848,-5.3713,-5.3017,-5.2594,-5.2379,-5.2228,-5.1662,-5.0887,-5.034,-4.954,-4.8887,-4.9274,-4.8716,-4.7951,-4.8131,-4.801,-4.7804,-4.772,-4.7717,-4.7717,-4.7717,-4.7717,-4.7717,0.0,0.0,0.0,-4.7717,-4.7717,-4.7717,-4.7717,-4.7717,-4.7717,-4.7717,-4.7717,-4.7717,-4.7717,-4.7717,-4.7717,-4.7717,-4.7717,-4.7717,-4.7717,-4.7717,-4.7717,-4.7717,-4.6799,-4.643,-4.6886,-4.552,-4.4917,-4.5276,-4.4852,-4.4615,-4.4615,-4.4615,-4.4615,-4.4615,-4.4615,-4.4615,-4.4615,-4.4615,-4.4615,-4.4615,-4.4615,-4.4615,-4.4615,-4.4615,-4.4615,-4.4615,-4.4615,-4.4615,-4.4615,-4.4615,-4.4615,-4.4615,-5.5377,-5.5396,0.0,0.0,0.0,0.0,0.0,0.0,0.0,-5.5403,-5.5403,-5.5403,-5.5403,-5.5403,-5.5403,-5.5403,-5.5403,-5.5403,-5.5403,-5.5403,-5.5403,-5.5403,-5.5403,-5.5345,-5.525,-5.525,-5.5212,-5.5097,0.0,0.0,0.0,0.0,0.0,0.0,-5.5082,-5.4857,-5.4519,-5.4441,-5.4376,-5.4326,-5.427,-5.4026,-5.3739,-5.3984,-5.3373,-5.2306,-5.1581,-5.0836,-5.0222,-5.0855,-5.004,-4.8857,-4.927,-4.9086,-4.8568,-4.7951,-4.799,-4.8151,-4.7804,-4.7717,-4.7717,-4.7717,-4.7717,-4.7717,-4.7717,0.0,-4.7717,-4.7717,0.0,-4.7717,-4.7717,0.0,0.0,-4.7717,-4.7717,-4.7717,-4.7717,-4.7717,-4.7717,-4.7717,-4.7717,-4.7717,-4.7717,-4.7717,-4.7717,-4.7717,-4.7147,-4.684,-4.6908,-4.5843,-4.5241,-4.5303,-4.4852,-4.4615,-4.4615,-4.4615,-4.4615,-4.4615,-4.4615,-4.4615,-4.4615,-4.4615,-4.4615,-4.4615,-4.4615,-4.4615,-4.4615,-4.4615,-4.4615,-4.4615,-4.4615,-4.4615,-4.4615,-4.4615,-4.4615,-4.4615,-5.5403,-5.5403,-5.5403,0.0,0.0,0.0,0.0,0.0,0.0,-5.5403,-5.5403,-5.5403,-5.5403,-5.5403,-5.5403,-5.5403,-5.5403,-5.5403,-5.5403,-5.5403,-5.5403,-5.5403,-5.5403,-5.5403,-5.5403,-5.5403,-5.5403,-5.5403,-5.5403,0.0,0.0,0.0,0.0,0.0,-5.5,-5.4731,-5.4083,-5.4014,-5.387,-5.3644,-5.3624,-5.3348,-5.3096,-5.3961,-5.3809,-5.3051,-5.2215,-5.1695,-5.1305,-5.0693,-5.0213,-4.9749,-4.9233,-4.8973,-4.8756,-4.8218,-4.801,-4.7909,-4.7741,-4.7717,-4.7717,-4.7717,-4.7717,-4.7717,-4.7717,-4.7717,-4.7717,-4.7717,0.0,0.0,0.0,0.0,0.0,0.0,-4.7717,-4.7717,-4.7717,-4.7717,-4.7717,-4.7717,-4.7717,-4.7717,-4.7717,-4.7717,-4.7717,-4.7717,-4.7196,-4.7039,-4.7363,-4.6049,-4.5459,-4.5749,-4.5015,-4.4615,-4.4615,-4.4615,-4.4615,-4.4615,-4.4615,-4.4615,-4.4615,-4.4615,-4.4615,-4.4615,-4.4615,-4.4615,-4.4615,-4.4615,-4.4615,-4.4615,-4.4615,-4.4615,-4.4615,-4.4615,-4.4615,-4.4615,-5.5403,-5.5403,-5.5403,-5.5403,0.0,0.0,0.0,0.0,-5.5273,-5.539,-5.53,-5.5273,-5.539,-5.5403,-5.5403,-5.5403,-5.5403,-5.5403,-5.5403,-5.5403,-5.5403,-5.5403,-5.5403,-5.5371,-5.5358,-5.5358,-5.5345,-5.5319,0.0,0.0,0.0,0.0,0.0,0.0,-5.4635,-5.4345,-5.3758,-5.3606,-5.3488,-5.3408,-5.3182,-5.2922,-5.2739,-5.3526,-5.3701,-5.3435,-5.2687,-5.2296,-5.1964,-5.1004,-5.044,-5.0019,-4.936,-4.8882,-4.8502,-4.8214,-4.7929,-4.7717,-4.7717,-4.7717,-4.7717,-4.7717,-4.7717,-4.7717,-4.7717,-4.7717,-4.7717,-4.7717,-4.7717,0.0,0.0,0.0,-4.7717,-4.7717,0.0,-4.7717,-4.7717,-4.7717,-4.7717,-4.7717,-4.7717,-4.7717,-4.7717,-4.7717,-4.7717,-4.7717,-4.7341,-4.728,-4.7678,-4.6454,-4.585,-4.6074,-4.5249,-4.4748,-4.4615,-4.4615,-4.4615,-4.4615,-4.4615,-4.4615,-4.4615,-4.4615,-4.4615,-4.4615,-4.4615,-4.4615,-4.4615,-4.4615,-4.4615,-4.4615,-4.4615,-4.4615,-4.4615,-4.4615,-4.457,-4.4514,-5.5403,-5.5403,-5.5403,-5.5403,-5.5403,0.0,0.0,-5.5066,-5.4962,-5.5345,-5.5052,-5.4962,-5.5364,-5.5403,-5.5403,-5.5403,-5.5403,-5.5403,-5.5403,-5.5403,-5.5403,-5.5403,-5.5403,-5.5339,-5.5216,-5.5216,-5.5176,-5.5107,0.0,0.0,0.0,0.0,0.0,0.0,-5.4014,-5.3777,-5.3683,-5.3285,-5.3566,-5.4193,-5.3408,-5.3096,-5.3033,-5.269,-5.2787,-5.3075,-5.2654,-5.2,-5.1439,-5.2164,-5.0873,-4.9079,-4.9825,-4.8988,-4.7753,-4.7717,-4.7699,-4.7717,-4.7717,-4.7717,-4.7717,-4.7717,-4.7717,-4.7717,-4.7717,-4.7717,-4.7717,-4.7717,-4.7717,-4.7717,-4.7717,-4.7717,-4.7717,0.0,-4.7717,0.0,0.0,-4.7717,-4.7717,-4.7717,-4.7717,-4.7717,-4.7717,-4.7717,-4.7717,-4.7717,-4.7678,-4.7678,-4.7717,-4.7151,-4.6637,-4.6116,-4.5563,-4.5062,-4.4598,-4.4615,-4.4615,-4.4615,-4.4615,-4.4615,-4.4615,-4.4615,-4.4615,-4.4615,-4.4615,-4.4615,-4.4615,-4.4615,-4.4615,-4.4615,-4.4615,-4.4615,-4.4615,-4.4615,-4.4468,-4.431,-5.4579,-5.4657,-5.4833,-5.5319,-5.5187,-5.4933,-5.4707,-5.4731,-5.4855,-5.4976,-5.5113,-5.514,-5.5023,-5.499,-5.4918,-5.4673,-5.4657,-5.4657,-5.4657,-5.4844,-5.4947,-5.499,-5.514,-5.5075,-5.4809,-5.4769,-5.4597,-5.4322,-5.4322,0.0,0.0,0.0,0.0,0.0,-5.3702,-5.3567,-5.3287,-5.3141,-5.3265,-5.3448,-5.2922,-5.2875,-5.3054,-5.2645,-5.2595,-5.269,-5.2549,-5.2317,-5.2045,-5.1792,-5.1158,-5.0343,-4.9564,-4.8949,-4.8384,-4.7859,-4.7717,-4.7717,-4.7717,-4.7717,-4.7717,-4.7717,-4.7717,-4.7717,-4.7717,-4.7717,-4.7717,-4.7717,-4.7717,-4.7717,-4.7717,-4.7717,0.0,0.0,0.0,-4.7717,0.0,-4.7717,-4.7717,-4.7717,-4.7717,-4.7717,-4.7717,-4.7717,-4.7717,-4.7717,-4.7717,-4.7717,-4.7717,-4.7191,-4.6817,-4.6637,-4.5749,-4.5214,-4.5045,-4.4776,-4.4615,-4.4615,-4.4615,-4.4615,-4.4615,-4.4615,-4.4615,-4.4615,-4.4615,-4.4615,-4.4615,-4.4615,-4.4615,-4.4615,-4.4615,-4.4615,-4.4615,-4.4615,-4.4468,-4.4281,-5.4146,-5.4315,-5.4449,-5.4922,-5.478,-5.4544,-5.433,-5.4361,-5.446,-5.4607,-5.4685,-5.4666,-5.4554,-5.4522,-5.439,-5.4173,-5.4156,-5.4226,-5.4361,-5.4444,-5.4572,-5.4761,-5.4761,-5.4712,-5.4628,-5.4371,-5.4204,-5.4083,-5.3905,-5.3832,0.0,0.0,0.0,0.0,0.0,-5.3203,-5.3096,-5.2944,-5.3054,-5.3285,-5.2875,-5.2765,-5.2853,-5.2595,-5.2498,-5.2498,-5.2498,-5.2498,-5.2426,-5.19,-5.1339,-5.0687,-4.9655,-4.8931,-4.8366,-4.7862,-4.7717,-4.7717,-4.7717,-4.7717,-4.7717,-4.7717,-4.7717,-4.7717,-4.7717,-4.7717,-4.7717,-4.7717,-4.7717,-4.7717,-4.7717,-4.7717,-4.7717,0.0,0.0,0.0,0.0,-4.7717,-4.7717,-4.7717,-4.7717,-4.7717,-4.7717,-4.7717,-4.7717,-4.7717,-4.7717,-4.7717,-4.7717,-4.7363,-4.7107,-4.6908,-4.6049,-4.5571,-4.5571,-4.4934,-4.4665,-4.4852,-4.4665,-4.4615,-4.4615,-4.4615,-4.4615,-4.4615,-4.4615,-4.4615,-4.4615,-4.4615,-4.4615,-4.4615,-4.4615,-4.4542,-4.4497,-4.4497,-4.4355,-4.4126,-5.4095,-5.4246,-5.4228,-5.4246,-5.4245,-5.4245,-5.4264,-5.3925,-5.3814,-5.421,-5.3833,-5.3664,-5.4032,-5.3941,-5.3868,-5.385,-5.385,-5.4012,-5.4387,-5.4187,-5.4223,-5.4623,-5.4274,-5.4257,-5.4623,-5.4067,-5.3942,-5.4309,-5.387,0.0,0.0,0.0,0.0,0.0,-5.2667,-5.2717,-5.3054,-5.2667,-5.2944,-5.3606,-5.3224,-5.2831,-5.2498,-5.2498,-5.2498,-5.2498,-5.2498,-5.2498,-5.248,-5.2444,-5.1393,-5.0093,-5.0057,-4.8967,-4.7717,-4.7717,-4.7717,-4.7717,-4.7717,-4.7717,-4.7717,-4.7717,-4.7717,-4.7717,-4.7717,-4.7717,-4.7717,-4.7717,-4.7717,-4.7717,-4.7717,-4.7717,-4.7717,0.0,0.0,0.0,-4.7717,-4.7717,-4.7717,-4.7717,-4.7717,-4.7717,-4.7717,-4.7717,-4.7717,-4.7717,-4.7717,-4.7717,-4.7717,-4.7717,-4.7468,-4.6954,-4.6382,-4.6098,-4.6123,-4.5106,-4.4841,-4.5303,-4.4824,-4.4615,-4.4615,-4.4615,-4.4615,-4.4615,-4.4615,-4.4615,-4.4615,-4.4598,-4.4587,-4.457,-4.457,-4.444,-4.4281,-4.4281,-4.4126,-4.3868,-5.3315,-5.3481,-5.3461,-5.3343,-5.3547,-5.3644,-5.3521,-5.3484,-5.3527,-5.3702,-5.3758,-5.374,-5.3587,-5.3548,-5.341,-5.3099,-5.3078,-5.312,-5.3226,-5.3407,-5.3565,-5.372,-5.3777,-5.374,-5.3588,-5.339,-5.3182,-5.299,-5.2875,0.0,-5.2809,0.0,0.0,0.0,0.0,-5.2549,-5.2645,-5.2549,-5.2622,-5.2787,-5.2712,-5.2595,-5.2498,-5.2498,-5.2498,-5.2498,-5.2498,-5.2498,-5.2408,-5.181,-5.0923,-4.9981,-4.9401,-4.8514,-4.7717,-4.7717,-4.7717,-4.7717,-4.7717,-4.7717,-4.7717,-4.7717,-4.7717,-4.7717,-4.7717,-4.7717,-4.7717,-4.7717,-4.7717,-4.7717,-4.7717,-4.7717,-4.7717,-4.7717,-4.7717,-4.7717,-4.7717,-4.7717,-4.7717,-4.7717,-4.7717,-4.7717,-4.7717,-4.7717,-4.7717,-4.7717,-4.7717,-4.7717,-4.7717,-4.7717,-4.7636,-4.7511,-4.659,-4.6286,-4.6683,-4.5302,-4.4841,-4.5303,-4.4824,-4.4615,-4.4615,-4.4615,-4.4615,-4.4615,-4.4615,-4.4615,-4.4587,-4.444,-4.4367,-4.4384,-4.427,-4.4143,-4.3998,-4.3998,-4.3956,-4.3868,-5.2978,-5.306,-5.2999,-5.2934,-5.3033,-5.3099,-5.3042,-5.3091,-5.3159,-5.3185,-5.3271,-5.3271,-5.3078,-5.3011,-5.2919,-5.269,-5.2667,-5.2739,-5.2919,-5.2965,-5.3093,-5.3363,-5.3285,-5.3228,-5.3289,-5.299,-5.2831,-5.2813,-5.2599,-5.2498,-5.2498,0.0,0.0,0.0,0.0,-5.2498,-5.2498,-5.2498,-5.2498,-5.2498,-5.2498,-5.2498,0.0,-5.21,-5.1973,-5.1919,-5.1574,-5.1665,-5.1846,-5.1054,-5.0234,-4.9492,-4.9036,-4.8348,-4.7717,-4.7717,-4.7717,-4.7717,-4.7717,-4.7717,-4.7717,-4.7717,-4.7717,-4.7717,-4.7717,-4.7717,-4.7717,-4.7717,-4.7717,-4.7717,-4.7717,-4.7717,-4.7717,-4.7717,-4.7717,-4.7717,-4.7717,-4.7717,-4.7717,-4.7717,-4.7717,-4.7717,-4.7717,-4.7717,-4.7717,-4.7717,-4.7717,-4.7717,-4.7717,-4.7717,-4.7717,-4.7717,-4.6886,-4.6707,-4.7236,-4.5683,-4.5169,-4.5622,-4.4934,-4.4615,-4.4615,-4.4615,-4.4615,-4.4615,-4.4615,-4.4542,-4.4468,-4.4338,-4.4281,-4.4196,-4.4068,-4.3985,-4.3898,-4.3793,-4.3763,-4.3763,-5.2852,-5.2872,-5.2783,-5.2783,-5.2676,-5.2631,-5.2739,-5.2757,-5.2761,-5.2761,-5.2654,-5.2586,-5.2586,-5.2531,-5.2498,-5.2498,-5.2498,-5.2645,-5.3008,-5.2747,-5.2765,-5.3193,-5.2809,-5.2813,-5.3265,-5.2761,-5.2698,-5.3104,-5.2698,0.0,0.0,0.0,0.0,0.0,0.0,-5.2498,-5.2498,-5.2498,-5.2498,-5.248,-5.2389,-5.2335,-5.2245,-5.1448,-5.1122,-5.1031,-5.0238,-5.0452,-5.1036,-5.0198,-4.9474,-4.8873,-4.8764,-4.8257,-4.7717,-4.7717,-4.7717,-4.7717,-4.7717,-4.7717,-4.7717,-4.7717,-4.7717,-4.7717,-4.7717,-4.7717,-4.7717,-4.7717,-4.7717,-4.7717,-4.7717,-4.7717,-4.7717,-4.7717,-4.7717,-4.7717,-4.7717,-4.7717,-4.7717,-4.7717,-4.7717,0.0,-4.7717,-4.7717,-4.7717,-4.7717,-4.7717,-4.7717,-4.7717,-4.7717,-4.7717,-4.7717,-4.7107,-4.7062,-4.7593,-4.6017,-4.5459,-4.5975,-4.5052,-4.4615,-4.4615,-4.4615,-4.4587,-4.457,-4.457,-4.444,-4.4281,-4.4253,-4.4167,-4.401,-4.391,-4.3868,-4.3839,-4.3658,-4.3598,-4.3598,-5.2831,-5.2806,-5.2761,-5.2635,-5.2631,-5.2586,-5.2549,-5.2549,-5.2577,-5.2631,-5.2577,-5.2526,-5.2526,-5.2521,-5.2498,-5.2498,-5.2498,-5.2544,-5.2618,-5.2549,-5.2549,-5.264,-5.2572,-5.2572,-5.2645,-5.2549,-5.2549,-5.2622,-5.2549,0.0,0.0,0.0,0.0,0.0,0.0,-5.2498,-5.2498,-5.2498,-5.2498,-5.2444,-5.1774,-5.1502,-5.1411,-5.0615,-5.0311,-5.0202,-4.9401,-4.9637,-5.0202,-4.9383,-4.9018,-4.8764,-4.8134,-4.7805,-4.7717,-4.7717,-4.7717,-4.7717,-4.7717,-4.7717,-4.7717,-4.7717,-4.7717,-4.7717,-4.7717,-4.7717,-4.7717,-4.7717,-4.7717,-4.7717,-4.7717,-4.7717,-4.7717,-4.7717,-4.7717,-4.7717,-4.7717,-4.7717,-4.7717,-4.7717,-4.7717,-4.7717,-4.7717,-4.7717,-4.7717,-4.7717,-4.7717,-4.7717,-4.7717,-4.7717,-4.7717,-4.7717,-4.6753,-4.6501,-4.7022,-4.5494,-4.4971,-4.5433,-4.4852,-4.4615,-4.4615,-4.4615,-4.4514,-4.4338,-4.4338,-4.4253,-4.4126,-4.4027,-4.3852,-4.3687,-4.3658,-4.3658,-4.3658,-4.3628,-4.3598,-4.3598,-5.2698,-5.2667,-5.2622,-5.2554,-5.2554,-5.2531,-5.2498,-5.2498,-5.2503,-5.2554,-5.2526,-5.2498,-5.2498,-5.2498,-5.2498,-5.2498,-5.2498,-5.2498,-5.2498,-5.2498,-5.2498,-5.2498,-5.2498,-5.2498,-5.2498,-5.2498,-5.2498,-5.2498,-5.2498,-5.2498,0.0,0.0,0.0,-5.1864,-5.1864,-5.1864,-5.1864,-5.1864,-5.1864,-5.181,-5.0995,-5.0691,-5.0578,-4.9782,-4.943,-4.9278,-4.8443,-4.8385,-4.8594,-4.8298,-4.8172,-4.8099,-4.7637,-4.749,-4.7511,-4.7593,-4.7593,-4.7615,-4.7678,-4.7717,-4.7678,-4.7615,-4.7657,-4.7678,-4.7615,-4.7657,-4.7717,-4.7717,-4.7717,-4.7717,-4.7717,-4.7717,-4.7717,-4.7717,-4.7717,-4.7717,-4.7717,-4.7717,-4.7717,-4.7717,-4.7717,-4.7717,-4.7717,-4.7636,-4.7636,-4.7678,-4.7717,-4.7717,-4.7717,-4.7717,-4.7717,-4.7717,-4.6931,-4.6637,-4.6908,-4.5606,-4.5089,-4.5303,-4.4824,-4.4542,-4.444,-4.444,-4.4338,-4.4212,-4.4212,-4.4126,-4.3969,-4.3822,-4.3687,-4.3598,-4.3598,-4.3598,-4.3598,-4.3598,-4.3598,-4.3598,-5.2586,-5.2531,-5.2498,-5.2498,-5.2498,-5.2498,-5.2498,-5.2498,-5.2498,-5.2498,-5.2498,-5.2498,-5.2498,-5.2498,-5.2498,-5.2498,-5.2498,-5.2498,-5.2498,-5.2498,-5.2498,-5.2498,-5.2498,-5.2498,-5.2498,-5.2498,-5.2498,-5.2498,-5.2498,-5.2408,0.0,0.0,0.0,0.0,-5.1194,-5.1122,-5.1285,-5.1126,-5.1031,-5.0959,-5.0162,-4.9836,-4.9745,-4.8905,-4.8533,-4.8355,-4.7684,-4.7385,-4.7302,-4.7403,-4.7446,-4.7428,-4.7323,-4.7302,-4.7302,-4.7446,-4.7468,-4.749,-4.7593,-4.7636,-4.7636,-4.749,-4.7554,-4.7615,-4.749,-4.7554,-4.7657,-4.7657,-4.7678,-4.7717,-4.7717,-4.7717,-4.7717,-4.7717,-4.7717,-4.7717,-4.7717,-4.7717,-4.7717,-4.7717,-4.7717,-4.7717,-4.7717,-4.7615,-4.7533,-4.749,-4.7575,-4.7657,-4.7717,-4.7717,-4.7636,-4.749,-4.6976,-4.666,-4.6525,-4.5614,-4.5135,-4.5081,-4.4714,-4.444,-4.4253,-4.4253,-4.4167,-4.4056,-4.4056,-4.3969,-4.3822,-4.3658,-4.3598,-4.3598,-4.3598,-4.3598,-4.3598,-4.3598,-4.3598,-4.3598,-5.2526,-5.2498,-5.2498,-5.2498,-5.2498,-5.2498,-5.2498,-5.2498,-5.2498,-5.2498,-5.2498,-5.2498,-5.2498,-5.2498,-5.2498,-5.2498,-5.2498,-5.2498,-5.2498,-5.2498,-5.2498,-5.2498,-5.2498,-5.2498,-5.2498,-5.2498,-5.2498,-5.2498,-5.2498,-5.2118,-5.1411,0.0,0.0,-5.2317,-5.085,-5.0615,-5.1249,-5.0506,-5.022,-5.0148,-4.9347,-4.8999,-4.8909,-4.7969,-4.7619,-4.758,-4.7381,-4.7302,-4.728,-4.7245,-4.7272,-4.732,-4.7302,-4.7302,-4.7302,-4.732,-4.7302,-4.7302,-4.7323,-4.7446,-4.749,-4.7363,-4.7407,-4.749,-4.7363,-4.7407,-4.7511,-4.7511,-4.7615,-4.7717,-4.7717,-4.7717,-4.7717,-4.7717,-4.7717,-4.7717,-4.7717,-4.7717,-4.7717,-4.7717,-4.7717,-4.7717,-4.7717,-4.7678,-4.7428,-4.684,-4.7236,-4.7554,-4.7678,-4.7717,-4.7407,-4.6799,-4.6382,-4.5875,-4.5276,-4.4879,-4.4564,-4.4406,-4.435,-4.4253,-4.4126,-4.4126,-4.4056,-4.3927,-4.3927,-4.3822,-4.3628,-4.3598,-4.3598,-4.3598,-4.3598,-4.3598,-4.3598,-4.3598,-4.3598,-4.3598,-5.2521,-5.2498,-5.2498,-5.2498,-5.2498,-5.2498,-5.2498,-5.2498,-5.2498,-5.2498,-5.2498,-5.2498,-5.2498,-5.2498,-5.2498,-5.2498,-5.2498,-5.2498,-5.2498,-5.2498,-5.2498,-5.2498,-5.2498,-5.2498,-5.2498,-5.2498,-5.2498,-5.2498,-5.2498,-5.2335,-5.2027,-5.2353,-5.1973,-5.1013,-5.0401,-4.9999,-4.9836,-4.9528,-4.9383,-4.9311,-4.8514,-4.8124,-4.8005,-4.7637,-4.7425,-4.7312,-4.7249,-4.7183,-4.7116,-4.7088,-4.7156,-4.7227,-4.716,-4.7138,-4.7138,-4.7205,-4.7227,-4.7249,-4.7298,-4.7341,-4.7363,-4.7272,-4.7316,-4.7363,-4.7249,-4.7381,-4.7511,-4.7511,-4.7615,-4.7696,-4.7575,-4.7593,-4.7554,-4.7472,-4.7468,-4.749,-4.7554,-4.7593,-4.7615,-4.7678,-4.7717,-4.7657,-4.7593,-4.7511,-4.7214,-4.6619,-4.6845,-4.7017,-4.6976,-4.6976,-4.6863,-4.659,-4.6098,-4.5588,-4.4991,-4.4519,-4.427,-4.4184,-4.4184,-4.4097,-4.3969,-4.3969,-4.3881,-4.3734,-4.3734,-4.3658,-4.3598,-4.3598,-4.3598,-4.3598,-4.3598,-4.3598,-4.3598,-4.3598,-4.3598,-4.3598,-5.2498,-5.2498,-5.2498,-5.2498,-5.2498,-5.2498,-5.2498,-5.2498,-5.2498,-5.2498,-5.2498,-5.2498,-5.2498,-5.2498,-5.2498,-5.2498,-5.2498,-5.2498,-5.2498,-5.2498,-5.2498,-5.2498,-5.2498,-5.2498,-5.2498,-5.2498,-5.2498,-5.2498,-5.2498,-5.2371,-5.2136,-5.19,-5.1303,-5.0438,-4.9945,-4.9438,-4.8873,-4.8637,-4.8547,-4.8493,-4.7892,-4.7575,-4.749,-4.7425,-4.7334,-4.7178,-4.7174,-4.7088,-4.6998,-4.6998,-4.7066,-4.7111,-4.7043,-4.6998,-4.702,-4.7111,-4.7133,-4.7156,-4.7187,-4.7232,-4.7249,-4.7156,-4.7223,-4.7249,-4.7156,-4.729,-4.7425,-4.7446,-4.7511,-4.7554,-4.7468,-4.7428,-4.7407,-4.732,-4.7302,-4.7323,-4.7428,-4.7428,-4.749,-4.7554,-4.7593,-4.7533,-4.745,-4.7363,-4.7062,-4.6478,-4.6525,-4.6548,-4.6501,-4.666,-4.6572,-4.6213,-4.5893,-4.5355,-4.4597,-4.4281,-4.4068,-4.4056,-4.4056,-4.3969,-4.3793,-4.3793,-4.3734,-4.3598,-4.3598,-4.3598,-4.3598,-4.3598,-4.3598,-4.3598,-4.3598,-4.3598,-4.3598,-4.3598,-4.3598,-4.3598,-5.2498,-5.2498,-5.2498,-5.2498,-5.2498,-5.2498,-5.2498,-5.2498,-5.2498,-5.2498,-5.2498,-5.2498,-5.2498,-5.2498,-5.2498,-5.2498,-5.2498,-5.2498,-5.2498,-5.2498,-5.2498,-5.2498,-5.2498,-5.2498,-5.2498,-5.2498,-5.2498,-5.2498,-5.2498,-5.2082,-5.1285,-5.051,-5.0546,-5.1212,-4.9619,-4.8909,-4.8837,-4.804,-4.7696,-4.7696,-4.7572,-4.7511,-4.7468,-4.7267,-4.7219,-4.7178,-4.7043,-4.6998,-4.6998,-4.6998,-4.6998,-4.6998,-4.6998,-4.6998,-4.6998,-4.6998,-4.6998,-4.7002,-4.7002,-4.7088,-4.7174,-4.7043,-4.7111,-4.7174,-4.7043,-4.7111,-4.7223,-4.7298,-4.7302,-4.7302,-4.7302,-4.7302,-4.7302,-4.7302,-4.7302,-4.7302,-4.7302,-4.7302,-4.7302,-4.7302,-4.7302,-4.7302,-4.7302,-4.7302,-4.7022,-4.6358,-4.631,-4.6358,-4.6478,-4.6999,-4.673,-4.5563,-4.5622,-4.5135,-4.3927,-4.4027,-4.4027,-4.3898,-4.3898,-4.3793,-4.3598,-4.3598,-4.3598,-4.3598,-4.3598,-4.3598,-4.3598,-4.3598,-4.3598,-4.3598,-4.3598,-4.3598,-4.3598,-4.3598,-4.3598,-4.3598,-5.2498,-5.2498,-5.2498,-5.2498,-5.2498,-5.2498,-5.2498,-5.2498,-5.2498,-5.2498,-5.2498,-5.2498,-5.2498,-5.2498,-5.2498,-5.2498,-5.2498,-5.2498,-5.2498,-5.2498,-5.2498,-5.2498,-5.2498,-5.2498,-5.2498,-5.2498,-5.2498,-5.2498,-5.2498,-5.2371,-5.21,-5.1846,-5.1285,-5.0474,-4.9945,-4.9112,-4.8079,-4.7805,-4.7636,-4.7554,-4.7511,-4.7403,-4.729,-4.7223,-4.7133,-4.7066,-4.702,-4.6998,-4.6998,-4.6998,-4.6998,-4.6998,-4.6998,-4.6998,-4.6998,-4.6998,-4.6998,-4.6998,-4.6998,-4.7043,-4.7066,-4.702,-4.7043,-4.7043,-4.702,-4.7111,-4.7223,-4.7298,-4.7302,-4.7298,-4.7227,-4.7227,-4.7205,-4.7116,-4.7093,-4.7138,-4.7223,-4.7227,-4.7249,-4.728,-4.7302,-4.7276,-4.7245,-4.7227,-4.6765,-4.5716,-4.5985,-4.6242,-4.6291,-4.6084,-4.5749,-4.5381,-4.5054,-4.4485,-4.3687,-4.3747,-4.3747,-4.3704,-4.3704,-4.3658,-4.3598,-4.3598,-4.3598,-4.3598,-4.3598,-4.3598,-4.3598,-4.3598,-4.3598,-4.3598,-4.3598,-4.3598,-4.3598,-4.3598,-4.3598,-4.3598,-5.2498,-5.2498,-5.2498,-5.2498,-5.2498,-5.2498,-5.2498,-5.2498,-5.2498,-5.2498,-5.2498,-5.2498,-5.2498,-5.2498,-5.2498,-5.2498,-5.2498,-5.2498,-5.2498,-5.2498,-5.2498,-5.2498,-5.2498,-5.2498,-5.2498,-5.2498,-5.2498,-5.2498,-5.2498,-5.2498,-5.248,-5.219,-5.1339,-5.0093,-4.9764,-4.8931,-4.7696,-4.7636,-4.7593,-4.749,-4.7403,-4.7312,-4.7178,-4.7133,-4.7066,-4.6998,-4.6998,-4.6998,-4.6998,-4.6998,-4.6998,-4.6998,-4.6998,-4.6998,-4.6998,-4.6998,-4.6998,-4.6998,-4.6998,-4.6998,-4.6998,-4.6998,-4.6998,-4.6998,-4.6998,-4.7066,-4.7133,-4.7165,-4.7187,-4.7165,-4.7133,-4.7111,-4.7088,-4.7002,-4.6998,-4.7043,-4.7111,-4.7111,-4.7133,-4.7187,-4.7187,-4.7183,-4.7133,-4.7111,-4.6801,-4.5985,-4.6094,-4.6211,-4.6211,-4.5631,-4.5197,-4.5001,-4.468,-4.4207,-4.3598,-4.3598,-4.3598,-4.3598,-4.3598,-4.3598,-4.3598,-4.3598,-4.3598,-4.3598,-4.3598,-4.3598,-4.3598,-4.3598,-4.3598,-4.3598,-4.3598,-4.3598,-4.3598,-4.3598,-4.3598,-4.3598,-5.2387,-5.2387,-5.2387,-5.2434,-5.241,-5.241,-5.2498,-5.2457,-5.2457,-5.2498,-5.2498,-5.2498,-5.2498,-5.2498,-5.2498,-5.2498,-5.2498,-5.2498,-5.2498,-5.2498,-5.2498,-5.2498,-5.2498,-5.2498,-5.2498,-5.2498,-5.2498,-5.2498,-5.2498,-5.2498,-5.248,-5.1665,-5.0873,-5.0075,-4.9275,-4.8438,-4.7678,-4.7554,-4.749,-4.7468,-4.7267,-4.7178,-4.7174,-4.7043,-4.6998,-4.6998,-4.6998,-4.6998,-4.6998,-4.6998,-4.6998,-4.6998,-4.6998,-4.6998,-4.6998,-4.6998,-4.6998,-4.6998,-4.6998,-4.6998,-4.6998,-4.6998,-4.6998,-4.6998,-4.6998,-4.6998,-4.6998,-4.6998,-4.6998,-4.6998,-4.6998,-4.6998,-4.6998,-4.6998,-4.6998,-4.6998,-4.6998,-4.6998,-4.6998,-4.6998,-4.6998,-4.6998,-4.6998,-4.6998,-4.6957,-4.6888,-4.6405,-4.6112,-4.602,-4.5477,-4.4974,-4.4502,-4.4446,-4.4179,-4.3598,-4.3598,-4.3598,-4.3598,-4.3598,-4.3598,-4.3598,-4.3598,-4.3598,-4.3598,-4.3598,-4.3598,-4.3598,-4.3598,-4.3598,-4.3598,-4.3598,-4.3598,-4.3598,-4.3598,-4.3598,-4.3598,-5.1139,-5.1139,-5.1286,-5.1719,-5.1432,-5.1457,-5.2345,-5.2114,-5.1975,-5.2434,-5.2498,-5.2498,-5.2498,-5.2498,-5.2498,-5.2498,-5.2498,-5.2498,-5.2498,-5.2498,-5.2498,-5.2498,-5.2498,-5.2498,-5.2498,-5.2498,-5.2498,-5.2498,-5.2498,-5.2498,-5.248,-5.1665,-5.0873,-5.0075,-4.9275,-4.8395,-4.7533,-4.7511,-4.7403,-4.7267,-4.7219,-4.7133,-4.7043,-4.702,-4.6998,-4.6998,-4.6998,-4.6998,-4.6998,-4.6998,-4.6998,-4.6998,-4.6998,-4.6998,-4.6998,-4.6998,-4.6998,-4.6998,-4.6998,-4.6998,-4.6998,-4.6998,-4.6998,-4.6998,-4.6998,-4.6998,-4.6998,-4.6998,-4.6998,-4.6998,-4.6998,-4.6998,-4.6998,-4.6998,-4.6998,-4.6998,-4.6998,-4.6998,-4.6998,-4.6998,-4.6998,-4.6998,-4.6998,-4.6998,-4.6643,-4.5784,-4.5563,-4.5135,-4.4259,-4.4076,-4.4162,-4.4474,-4.4064,-4.373,-4.3598,-4.3598,-4.3598,-4.3598,-4.3598,-4.3598,-4.3598,-4.3598,-4.3598,-4.3598,-4.3598,-4.3598,-4.3598,-4.3598,-4.3598,-4.3598,-4.3598,-4.3598,-4.3598,-4.3598,-4.3598,-4.3598,-5.0697,-5.0697,-5.0805,-5.1131,-5.0929,-5.0911,-5.1583,-5.1626,-5.1719,-5.2048,-5.2322,-5.2498,-5.2498,-5.2498,-5.2498,-5.2498,-5.2498,-5.2498,-5.2498,-5.2498,-5.2498,-5.2498,-5.2498,-5.2498,-5.2498,-5.2498,-5.2498,-5.2498,-5.2498,-5.2299,-5.1919,-5.1122,-5.0307,-4.951,-4.8649,-4.7969,-4.749,-4.7403,-4.7312,-4.7178,-4.7133,-4.7066,-4.6998,-4.6998,-4.6998,-4.6998,-4.6998,-4.6998,-4.6998,-4.6998,-4.6998,-4.6975,-4.6708,-4.6637,-4.659,-4.6297,-4.6429,-4.6572,-4.6315,-4.6411,-4.6637,-4.6637,-4.6637,-4.6548,-4.6291,-4.6453,-4.6566,-4.6273,-4.6435,-4.6637,-4.6637,-4.6637,-4.6708,-4.6957,-4.6998,-4.6998,-4.6998,-4.6998,-4.6911,-4.6661,-4.6842,-4.6801,-4.6273,-4.6477,-4.6266,-4.5355,-4.5081,-4.4663,-4.4035,-4.3759,-4.3759,-4.4093,-4.3759,-4.3598,-4.3598,-4.3598,-4.3598,-4.3598,-4.3598,-4.3598,-4.3598,-4.3598,-4.3598,-4.3598,-4.3598,-4.3598,-4.3598,-4.3598,-4.3598,-4.3598,-4.3598,-4.3598,-4.3598,-4.3598,-4.3598,-4.3598,-5.0452,-5.0452,-5.048,-5.0562,-5.0507,-5.0507,-5.0653,-5.1078,-5.1355,-5.1432,-5.2,-5.2345,-5.2345,-5.2452,-5.2498,-5.2498,-5.2498,-5.2498,-5.2498,-5.2498,-5.2498,-5.2498,-5.2498,-5.2498,-5.2498,-5.2498,-5.2498,-5.2498,-5.2371,-5.1973,-5.1267,-5.0343,-4.9546,-4.8833,-4.7915,-4.749,-4.7446,-4.7267,-4.7196,-4.7156,-4.7043,-4.6998,-4.6998,-4.6998,-4.6998,-4.6998,-4.6998,-4.6998,-4.6998,-4.6998,-4.6952,-4.6795,-4.6332,-4.6137,-4.5945,-4.5346,-4.5546,-4.5844,-4.5425,-4.5657,-4.607,-4.607,-4.607,-4.5945,-4.5425,-4.57,-4.592,-4.5425,-4.5726,-4.607,-4.607,-4.607,-4.6217,-4.6684,-4.6754,-4.6754,-4.6754,-4.6754,-4.6572,-4.6119,-4.6477,-4.6363,-4.5381,-4.5776,-4.5802,-4.5224,-4.4763,-4.4446,-4.4361,-4.3877,-4.3598,-4.3598,-4.3598,-4.3598,-4.3598,-4.3598,-4.3598,-4.3598,-4.3598,-4.3598,-4.3598,-4.3598,-4.3598,-4.3598,-4.3598,-4.3598,-4.3598,-4.3598,-4.3598,-4.3598,-4.3598,-4.3598,-4.3598,-4.3598,-4.3598,-4.3598,-4.9273,-4.9273,-4.9436,-4.993,-4.9598,-4.958,-5.0562,-5.0404,-5.0338,-5.0778,-5.1381,-5.1743,-5.1743,-5.2186,-5.2498,-5.2498,-5.2498,-5.2498,-5.2498,-5.2498,-5.2498,-5.2498,-5.2498,-5.2498,-5.2498,-5.2498,-5.2498,-5.2498,-5.181,-5.1411,-5.1267,-4.9782,-4.8956,-4.8706,-4.7872,-4.7421,-4.7245,-4.7201,-4.7133,-4.7043,-4.702,-4.6998,-4.6998,-4.6998,-4.6998,-4.6998,-4.6998,-4.6998,-4.6998,-4.6998,-4.6684,-4.6308,-4.6235,-4.5852,-4.5346,-4.4773,-4.468,-4.4845,-4.5197,-4.5355,-4.5451,-4.5451,-4.5451,-4.5425,-4.5329,-4.5355,-4.5407,-4.5303,-4.5355,-4.5451,-4.5451,-4.5451,-4.5477,-4.5537,-4.5563,-4.5563,-4.5563,-4.5563,-4.5511,-4.5433,-4.5511,-4.5485,-4.5303,-4.5381,-4.5214,-4.4652,-4.4558,-4.4293,-4.3759,-4.3658,-4.3598,-4.3598,-4.3598,-4.3598,-4.3598,-4.3598,-4.3598,-4.3598,-4.3598,-4.3598,-4.3598,-4.3598,-4.3598,-4.3598,-4.3598,-4.3598,-4.3598,-4.3598,-4.3598,-4.3598,-4.3598,-4.3598,-4.3598,-4.3598,-4.3598,-4.3598,-4.9001,-4.9001,-4.9094,-4.9364,-4.9199,-4.9182,-4.9681,-4.9844,-4.9988,-5.0237,-5.0769,-5.1131,-5.1131,-5.1651,-5.2024,-5.2024,-5.2298,-5.2364,-5.2024,-5.2322,-5.2498,-5.2498,-5.2498,-5.2299,-5.1846,-5.1846,-5.1629,-5.1194,-5.0832,-5.0393,-4.9892,-4.9129,-4.8486,-4.7925,-4.7539,-4.729,-4.7196,-4.7111,-4.7066,-4.6998,-4.6998,-4.6998,-4.6998,-4.6998,-4.6998,-4.6998,-4.6998,-4.6998,-4.6975,-4.6661,-4.6405,-4.607,-4.5485,-4.5098,-4.4746,-4.4191,-4.4006,-4.415,-4.4718,-4.4882,-4.4882,-4.4882,-4.4882,-4.4801,-4.4468,-4.4635,-4.4773,-4.444,-4.4635,-4.4882,-4.4882,-4.4882,-4.4947,-4.525,-4.5303,-4.5303,-4.5303,-4.5303,-4.5197,-4.4892,-4.5135,-4.5064,-4.444,-4.4691,-4.4635,-4.4064,-4.4006,-4.3889,-4.3611,-4.3598,-4.3598,-4.3598,-4.3598,-4.3598,-4.3598,-4.3598,-4.3598,-4.3598,-4.3598,-4.3598,-4.3598,-4.3598,-4.3598,-4.3598,-4.3598,-4.3598,-4.3598,-4.3598,-4.3598,-4.3598,-4.3598,-4.3598,-4.3598,-4.3598,-4.3598,-4.3598,-4.9001,-4.9001,-4.9001,-4.9001,-4.9001,-4.9001,-4.9001,-4.9394,-4.9686,-4.9686,-5.0181,-5.0507,-5.0507,-5.1052,-5.1381,-5.1381,-5.1817,-5.1866,-5.1432,-5.1817,-5.212,-5.2275,-5.2247,-5.1828,-5.1031,-5.1036,-5.0728,-5.0112,-4.9868,-4.9404,-4.8702,-4.8478,-4.7979,-4.7276,-4.7223,-4.7178,-4.7151,-4.7043,-4.6998,-4.6998,-4.6998,-4.6998,-4.6998,-4.6998,-4.6998,-4.698,-4.6865,-4.6801,-4.6731,-4.6168,-4.592,-4.5649,-4.4763,-4.439,-4.4207,-4.373,-4.3598,-4.37,-4.4179,-4.4276,-4.4276,-4.4276,-4.4276,-4.4179,-4.37,-4.3948,-4.415,-4.3717,-4.3948,-4.4276,-4.4276,-4.4276,-4.4446,-4.4838,-4.4903,-4.4903,-4.4903,-4.4903,-4.4756,-4.4333,-4.4663,-4.4563,-4.3671,-4.4006,-4.4093,-4.3611,-4.3598,-4.3598,-4.3598,-4.3598,-4.3598,-4.3598,-4.3598,-4.3598,-4.3598,-4.3598,-4.3598,-4.3598,-4.3598,-4.3598,-4.3598,-4.3598,-4.3598,-4.3598,-4.3598,-4.3598,-4.3598,-4.3598,-4.3598,-4.3598,-4.3598,-4.3598,-4.3598,-4.3598,-4.3598,-4.3598,-4.9001,-4.9001,-4.9001,-4.9001,-4.9001,-4.9001,-4.9001,-4.9032,-4.9063,-4.9063,-4.9585,-4.9959,-4.9959,-5.0442,-5.0778,-5.0778,-5.0805,-5.0805,-5.0778,-5.0805,-5.1087,-5.1626,-5.1483,-5.0995,-5.022,-5.0202,-5.0166,-5.0112,-4.9238,-4.8774,-4.8662,-4.7817,-4.7348,-4.7219,-4.7219,-4.7133,-4.7002,-4.7002,-4.6998,-4.6998,-4.6998,-4.6998,-4.6998,-4.6998,-4.6998,-4.6934,-4.6447,-4.6259,-4.6161,-4.558,-4.5045,-4.4614,-4.453,-4.4121,-4.3658,-4.3628,-4.3598,-4.3628,-4.3641,-4.3687,-4.3687,-4.3687,-4.3687,-4.3641,-4.3628,-4.3611,-4.3641,-4.3628,-4.3628,-4.3687,-4.3687,-4.3687,-4.3671,-4.373,-4.373,-4.373,-4.373,-4.373,-4.37,-4.3671,-4.37,-4.37,-4.3628,-4.3658,-4.3658,-4.3598,-4.3598,-4.3598,-4.3598,-4.3598,-4.3598,-4.3598,-4.3598,-4.3598,-4.3598,-4.3598,-4.3598,-4.3598,-4.3598,-4.3598,-4.3598,-4.3598,-4.3598,-4.3598,-4.3598,-4.3598,-4.3598,-4.3598,-4.3598,-4.3598,-4.3598,-4.3598,-4.3598,-4.3598,-4.3598,-4.3598,-4.9001,-4.9001,-4.9001,-4.9001,-4.9001,-4.9001,-4.9001,-4.9001,-4.9001,-4.9001,-4.9199,-4.9333,-4.9333,-4.9873,-5.0209,-5.0209,-5.0525,-5.0562,-5.0209,-5.0209,-5.025,-5.0363,-5.0169,-4.9683,-4.8887,-4.9175,-4.9068,-4.8479,-4.8128,-4.7875,-4.7761,-4.7393,-4.7178,-4.7066,-4.7066,-4.7043,-4.6998,-4.6998,-4.6998,-4.6998,-4.6998,-4.6998,-4.6998,-4.6998,-4.6998,-4.6934,-4.6381,-4.6211,-4.6062,-4.5125,-4.468,-4.4418,-4.4064,-4.3789,-4.3598,-4.3598,-4.3598,-4.3598,-4.3598,-4.3598,-4.3598,-4.3598,-4.3598,-4.3598,-4.3598,-4.3598,-4.3598,-4.3598,-4.3598,-4.3598,-4.3598,-4.3598,-4.3598,-4.3598,-4.3598,-4.3598,-4.3598,-4.3598,-4.3598,-4.3598,-4.3598,-4.3598,-4.3598,-4.3598,-4.3598,-4.3598,-4.3598,-4.3598,-4.3598,-4.3598,-4.3598,-4.3598,-4.3598,-4.3598,-4.3598,-4.3598,-4.3598,-4.3598,-4.3598,-4.3598,-4.3598,-4.3598,-4.3598,-4.3598,-4.3598,-4.3598,-4.3598,-4.3598,-4.3598,-4.3598,-4.3598,-4.3598,-4.3598,-4.3598,-4.3598,-4.3598,-4.9001,-4.9001,-4.9001,-4.9001,-4.9001,-4.9001,-4.9001,-4.9001,-4.9001,-4.9001,-4.9001,-4.9001,-4.9001,-4.9364,-4.9615,-4.9615,-4.9971,-5.0011,-4.9627,-4.9169,-4.8941,-4.8976,-4.8773,-4.8306,-4.7477,-4.7999,-4.7943,-4.7258,-4.7385,-4.7359,-4.7196,-4.7174,-4.7088,-4.6998,-4.6998,-4.6998,-4.6998,-4.6998,-4.6998,-4.6998,-4.6998,-4.6998,-4.698,-4.6801,-4.6731,-4.6661,-4.592,-4.5666,-4.552,-4.4541,-4.4236,-4.415,-4.373,-4.3598,-4.3598,-4.3598,-4.3598,-4.3598,-4.3598,-4.3598,-4.3598,-4.3598,-4.3598,-4.3598,-4.3598,-4.3598,-4.3598,-4.3598,-4.3598,-4.3598,-4.3598,-4.3598,-4.3598,-4.3598,-4.3598,-4.3598,-4.3598,-4.3598,-4.3598,-4.3598,-4.3598,-4.3598,-4.3598,-4.3598,-4.3598,-4.3598,-4.3598,-4.3598,-4.3598,-4.3598,-4.3598,-4.3598,-4.3598,-4.3598,-4.3598,-4.3598,-4.3598,-4.3598,-4.3598,-4.3598,-4.3598,-4.3598,-4.3598,-4.3598,-4.3598,-4.3598,-4.3598,-4.3598,-4.3598,-4.3598,-4.3598,-4.3598,-4.3598,-4.3598,-4.3598,-4.3598,-4.9001,-4.9001,-4.9001,-4.9001,-4.9001,-4.9001,-4.9001,-4.9001,-4.9001,-4.9001,-4.9001,-4.9001,-4.9001,-4.9001,-4.9001,-4.9001,-4.9001,-4.9001,-4.9001,-4.7614,-4.7014,-4.7575,-4.7387,-4.6906,-4.6116,-4.6637,-4.684,-4.6683,-4.7084,-4.7254,-4.7196,-4.7043,-4.6998,-4.6998,-4.6998,-4.6998,-4.698,-4.6998,-4.6998,-4.6998,-4.6998,-4.6998,-4.6934,-4.6398,-4.6186,-4.6045,-4.4899,-4.4502,-4.4418,-4.3789,-4.3598,-4.3598,-4.3598,-4.3598,-4.3598,-4.3598,-4.3598,-4.3598,-4.3598,-4.3598,-4.3598,-4.3598,-4.3598,-4.3598,-4.3598,-4.3598,-4.3598,-4.3598,-4.3598,-4.3598,-4.3598,-4.3598,-4.3598,-4.3598,-4.3598,-4.3598,-4.3598,-4.3598,-4.3598,-4.3598,-4.3598,-4.3598,-4.3598,-4.3598,-4.3598,-4.3598,-4.3598,-4.3598,-4.3598,-4.3598,-4.3598,-4.3598,-4.3598,-4.3598,-4.3598,-4.3598,-4.3598,-4.3598,-4.3598,-4.3598,-4.3598,-4.3598,-4.3598,-4.3598,-4.3598,-4.3598,-4.3598,-4.3598,-4.3598,-4.3598,-4.3598,-4.3598,-4.3598,-4.3598,-4.3598,-4.3598,-4.9001,-4.9001,-4.9001,-4.9001,-4.9001,-4.9001,-4.9001,-4.9001,-4.9001,-4.9001,-4.9001,-4.9001,-4.9001,-4.9001,-4.9001,-4.9001,-4.9001,-4.8781,-4.8244,-4.7327,-4.6636,-4.6283,-4.6025,-4.5788,-4.5537,-4.6049,-4.6238,-4.6,-4.6123,-4.628,-4.6495,-4.6027,-4.6224,-4.6975,-4.6175,-4.6052,-4.6405,-4.6003,-4.581,-4.581,-4.581,-4.581,-4.5784,-4.5631,-4.558,-4.5477,-4.4763,-4.4502,-4.4418,-4.3789,-4.3598,-4.3598,-4.3598,-4.3598,-4.3598,-4.3598,-4.3598,-4.3598,-4.3598,-4.3598,-4.3598,-4.3598,-4.3598,-4.3598,-4.3598,-4.3598,-4.3598,-4.3598,-4.3598,-4.3598,-4.3598,-4.3598,-4.3598,-4.3598,-4.3598,-4.3598,-4.3598,-4.3598,-4.3598,-4.3598,-4.3598,-4.3598,-4.3598,-4.3598,-4.3598,-4.3598,-4.3598,-4.3598,-4.3598,-4.3598,-4.3598,-4.3598,-4.3598,-4.3598,-4.3598,-4.3598,-4.3598,-4.3598,-4.3598,-4.3598,-4.3598,-4.3598,-4.3598,-4.3598,-4.3598,-4.3598,-4.3598,-4.3598,-4.3598,-4.3598,-4.3598,-4.3598,-4.3598,-4.3598,-4.3598,-4.3598,-4.9001,-4.9001,-4.9001,-4.9001,-4.9001,-4.9001,-4.9001,-4.9001,-4.9001,-4.9001,-4.9001,-4.9001,-4.9001,-4.9001,-4.9001,-4.9001,-4.9001,-4.8562,-4.753,-4.7056,-4.6329,-4.5314,-4.5118,-4.5035,-4.5035,-4.5459,-4.5614,-4.5381,-4.5545,-4.5708,-4.5827,-4.5477,-4.5683,-4.6297,-4.5614,-4.5503,-4.5827,-4.5433,-4.5303,-4.5303,-4.5303,-4.5303,-4.5276,-4.5054,-4.4974,-4.4892,-4.4361,-4.415,-4.4093,-4.373,-4.3598,-4.3598,-4.3598,-4.3598,-4.3598,-4.3598,-4.3598,-4.3598,-4.3598,-4.3598,-4.3598,-4.3598,-4.3598,-4.3598,-4.3598,-4.3598,-4.3598,-4.3598,-4.3598,-4.3598,-4.3598,-4.3598,-4.3598,-4.3598,-4.3598,-4.3598,-4.3598,-4.3598,-4.3598,-4.3598,-4.3598,-4.3598,-4.3598,-4.3598,-4.3598,-4.3598,-4.3598,-4.3598,-4.3598,-4.3598,-4.3598,-4.3598,-4.3598,-4.3598,-4.3598,-4.3598,-4.3598,-4.3598,-4.3598,-4.3598,-4.3598,-4.3598,-4.3598,-4.3598,-4.3598,-4.3598,-4.3598,-4.3598,-4.3598,-4.3598,-4.3598,-4.3598,-4.3598,-4.3598,-4.3598,-4.3598,-4.9001,-4.9001,-4.9001,-4.9001,-4.9001,-4.9001,-4.9001,-4.9001,-4.9001,-4.9001,-4.9001,-4.9001,-4.9001,-4.9001,-4.9001,-4.9001,-4.9001,-4.8376,-4.6887,-4.6786,-4.6126,-4.4666,-4.4615,-4.4598,-4.457,-4.4872,-4.4964,-4.4801,-4.5188,-4.5303,-4.5241,-4.5171,-4.5197,-4.5303,-4.5197,-4.5171,-4.5224,-4.5171,-4.5144,-4.5144,-4.5144,-4.5144,-4.5091,-4.4597,-4.4418,-4.4333,-4.3789,-4.3598,-4.3598,-4.3598,-4.3598,-4.3598,-4.3598,-4.3598,-4.3598,-4.3598,-4.3598,-4.3598,-4.3598,-4.3598,-4.3598,-4.3598,-4.3598,-4.3598,-4.3598,-4.3598,-4.3598,-4.3598,-4.3598,-4.3598,-4.3598,-4.3598,-4.3598,-4.3598,-4.3598,-4.3598,-4.3598,-4.3598,-4.3598,-4.3598,-4.3598,-4.3598,-4.3598,-4.3598,-4.3598,-4.3598,-4.3598,-4.3598,-4.3598,-4.3598,-4.3598,-4.3598,-4.3598,-4.3598,-4.3598,-4.3598,-4.3598,-4.3598,-4.3598,-4.3598,-4.3598,-4.3598,-4.3598,-4.3598,-4.3598,-4.3598,-4.3598,-4.3598,-4.3598,-4.3598,-4.3598,-4.3598,-4.3598,-4.3598,-4.3598,-4.3598,-4.9001,-4.9001,-4.9001,-4.9001,-4.9001,-4.9001,-4.9001,-4.9001,-4.9001,-4.9001,-4.9001,-4.9001,-4.9001,-4.9001,-4.9001,-4.9001,-4.9001,-4.8376,-4.6887,-4.6786,-4.6126,-4.4666,-4.4615,-4.4542,-4.4367,-4.4435,-4.435,-4.4126,-4.4196,-4.4406,-4.4652,-4.4191,-4.444,-4.525,-4.4356,-4.4248,-4.4652,-4.4162,-4.396,-4.396,-4.396,-4.396,-4.3977,-4.3831,-4.3789,-4.3789,-4.3658,-4.3598,-4.3598,-4.3598,-4.3598,-4.3598,-4.3598,-4.3598,-4.3598,-4.3598,-4.3598,-4.3598,-4.3598,-4.3598,-4.3598,-4.3598,-4.3598,-4.3598,-4.3598,-4.3598,-4.3598,-4.3598,-4.3598,-4.3598,-4.3598,-4.3598,-4.3598,-4.3598,-4.3598,-4.3598,-4.3598,-4.3598,-4.3598,-4.3598,-4.3598,-4.3598,-4.3598,-4.3598,-4.3598,-4.3598,-4.3598,-4.3598,-4.3598,-4.3598,-4.3598,-4.3598,-4.3598,-4.3598,-4.3598,-4.3598,-4.3598,-4.3598,-4.3598,-4.3598,-4.3598,-4.3598,-4.3598,-4.3598,-4.3598,-4.3598,-4.3598,-4.3598,-4.3598,-4.3598,-4.3598,-4.3598,-4.3598,-4.3598,-4.3598,-4.3582,-4.9001,-4.9001,-4.9001,-4.9001,-4.9001,-4.9001,-4.9001,-4.9001,-4.9001,-4.9001,-4.9001,-4.9001,-4.9001,-4.9001,-4.9001,-4.9001,-4.9001,-4.8528,-4.7411,-4.6989,-4.6295,-4.5162,-4.4801,-4.4485,-4.4196,-4.4196,-4.4097,-4.3898,-4.3793,-4.3864,-4.4064,-4.3759,-4.3919,-4.4468,-4.386,-4.3789,-4.4064,-4.373,-4.3598,-4.3598,-4.3598,-4.3598,-4.3598,-4.3598,-4.3598,-4.3598,-4.3598,-4.3598,-4.3598,-4.3598,-4.3598,-4.3598,-4.3598,-4.3598,-4.3598,-4.3598,-4.3598,-4.3598,-4.3598,-4.3598,-4.3598,-4.3598,-4.3598,-4.3598,-4.3598,-4.3598,-4.3598,-4.3598,-4.3598,-4.3598,-4.3598,-4.3598,-4.3598,-4.3598,-4.3598,-4.3598,-4.3598,-4.3598,-4.3598,-4.3598,-4.3598,-4.3598,-4.3598,-4.3598,-4.3598,-4.3598,-4.3598,-4.3598,-4.3598,-4.3598,-4.3598,-4.3598,-4.3598,-4.3598,-4.3598,-4.3598,-4.3598,-4.3598,-4.3598,-4.3598,-4.3598,-4.3598,-4.3598,-4.3598,-4.3598,-4.3598,-4.3598,-4.3598,-4.3598,-4.3598,-4.3598,-4.3598,-4.3598,-4.3539,-4.3432,-4.3372,-4.9001,-4.9001,-4.9001,-4.9001,-4.9001,-4.9001,-4.9001,-4.9001,-4.9001,-4.9001,-4.9001,-4.9001,-4.9001,-4.9001,-4.9001,-4.9001,-4.9001,-4.8697,-4.7939,-4.7208,-4.6464,-4.5737,-4.4976,-4.4429,-4.4097,-4.4097,-4.4027,-4.3868,-4.3687,-4.3598,-4.3598,-4.3598,-4.3598,-4.3598,-4.3598,-4.3598,-4.3598,-4.3598,-4.3598,-4.3598,-4.3598,-4.3598,-4.3598,-4.3598,-4.3598,-4.3598,-4.3598,-4.3598,-4.3598,-4.3598,-4.3598,-4.3598,-4.3598,-4.3598,-4.3598,-4.3598,-4.3598,-4.3598,-4.3598,-4.3598,-4.3598,-4.3598,-4.3598,-4.3598,-4.3598,-4.3598,-4.3598,-4.3598,-4.3598,-4.3598,-4.3598,-4.3598,-4.3598,-4.3598,-4.3598,-4.3598,-4.3598,-4.3598,-4.3598,-4.3598,-4.3598,-4.3598,-4.3598,-4.3598,-4.3598,-4.3598,-4.3598,-4.3598,-4.3598,-4.3598,-4.3598,-4.3598,-4.3598,-4.3598,-4.3598,-4.3598,-4.3598,-4.3598,-4.3598,-4.3598,-4.3598,-4.3598,-4.3598,-4.3598,-4.3598,-4.3598,-4.3598,-4.3598,-4.3598,-4.3598,-4.3568,-4.3598,-4.3582,-4.3449,-4.3251,-4.3082,-4.9001,-4.9001,-4.9001,-4.9001,-4.9001,-4.9001,-4.9001,-4.9001,-4.9001,-4.9001,-4.9001,-4.9001,-4.9001,-4.9001,-4.9001,-4.9001,-4.9001,-4.8697,-4.7939,-4.7208,-4.6464,-4.5737,-4.4976,-4.4429,-4.4097,-4.4097,-4.3952,-4.3628,-4.3628,-4.3598,-4.3598,-4.3598,-4.3598,-4.3598,-4.3598,-4.3598,-4.3598,-4.3598,-4.3598,-4.3598,-4.3598,-4.3598,-4.3598,-4.3598,-4.3598,-4.3598,-4.3598,-4.3598,-4.3598,-4.3598,-4.3598,-4.3598,-4.3598,-4.3598,-4.3598,-4.3598,-4.3598,-4.3598,-4.3598,-4.3598,-4.3598,-4.3598,-4.3598,-4.3598,-4.3598,-4.3598,-4.3598,-4.3598,-4.3598,-4.3598,-4.3598,-4.3598,-4.3598,-4.3598,-4.3598,-4.3598,-4.3598,-4.3598,-4.3598,-4.3598,-4.3598,-4.3598,-4.3598,-4.3598,-4.3598,-4.3598,-4.3598,-4.3598,-4.3598,-4.3598,-4.3598,-4.3598,-4.3598,-4.3598,-4.3598,-4.3598,-4.3598,-4.3598,-4.3598,-4.3598,-4.3598,-4.3598,-4.3598,-4.3598,-4.3598,-4.3598,-4.3598,-4.3598,-4.3598,-4.3598,-4.3462,-4.3509,-4.3582,-4.3449,-4.3207,-4.293,-4.9001,-4.9001,-4.9001,-4.9001,-4.9001,-4.9001,-4.9001,-4.9001,-4.9001,-4.9001,-4.9001,-4.9001,-4.9001,-4.9001,-4.9001,-4.9001,-4.9001,-4.8866,-4.8545,-4.7834,-4.709,-4.6346,-4.5498,-4.4747,-4.4114,-4.4027,-4.3881,-4.3598,-4.3598,-4.3598,-4.3598,-4.3598,-4.3598,-4.3598,-4.3598,-4.3598,-4.3598,-4.3598,-4.3598,-4.3598,-4.3598,-4.3598,-4.3598,-4.3598,-4.3598,-4.3598,-4.3598,-4.3598,-4.3598,-4.3598,-4.3598,-4.3598,-4.3598,-4.3598,-4.3598,-4.3598,-4.3598,-4.3598,-4.3598,-4.3598,-4.3598,-4.3598,-4.3598,-4.3598,-4.3598,-4.3598,-4.3598,-4.3598,-4.3598,-4.3598,-4.3598,-4.3598,-4.3598,-4.3598,-4.3598,-4.3598,-4.3598,-4.3598,-4.3598,-4.3598,-4.3598,-4.3598,-4.3598,-4.3598,-4.3598,-4.3598,-4.3598,-4.3598,-4.3598,-4.3598,-4.3598,-4.3598,-4.3598,-4.3598,-4.3598,-4.3598,-4.3598,-4.3598,-4.3598,-4.3598,-4.3598,-4.3598,-4.3598,-4.3598,-4.3598,-4.3598,-4.3598,-4.3598,-4.3568,-4.3509,-4.3509,-4.3432,-4.3295,-4.3235,-4.3037,-4.2728]},{"header":{"parameterUnit":"m.s-1","parameterCategory":1,"la1":30.6,"la2":28.766,"lo1":-90.7593,"lo2":-88.6598,"dy":0.0162,"dx":0.0183,"nx":116,"ny":114,"refTime":"2023-04-30T12:00:00:Z","depth":0,"parameterNumber":3,"parameterNumberName":"V-component_of_WINDS"},"data":[0.0,0.0,0.0,0.0,0.0,0.0,0.0,0.0,0.0,0.0,0.0,0.0,0.0,0.0,0.0,0.0,0.0,0.0,0.0,0.0,0.0,0.0,0.0,0.0,0.0,0.0,0.0,0.0,0.0,0.0,0.0,0.0,0.0,0.0,0.0,0.0,0.0,0.0,0.0,0.0,0.0,0.0,0.0,0.0,0.0,0.0,0.0,0.0,0.0,0.0,0.0,0.0,0.0,0.0,0.0,0.0,0.0,0.0,0.0,0.0,0.0,0.0,0.0,0.0,0.0,0.0,0.0,0.0,0.0,0.0,0.0,0.0,0.0,0.0,0.0,0.0,0.0,0.0,0.0,0.0,0.0,0.0,0.0,0.0,0.0,0.0,0.0,0.0,0.0,0.0,0.0,0.0,0.0,0.0,0.0,0.0,0.0,0.0,0.0,0.0,0.0,0.0,0.0,0.0,0.0,0.0,0.0,0.0,0.0,0.0,0.0,0.0,0.0,0.0,0.0,0.0,0.0,0.0,0.0,0.0,0.0,0.0,0.0,0.0,0.0,0.0,0.0,0.0,0.0,0.0,0.0,0.0,0.0,0.0,0.0,0.0,0.0,0.0,0.0,0.0,0.0,0.0,0.0,0.0,0.0,0.0,0.0,0.0,0.0,0.0,0.0,0.0,0.0,0.0,0.0,0.0,0.0,0.0,0.0,0.0,0.0,0.0,0.0,0.0,0.0,0.0,0.0,0.0,0.0,0.0,0.0,0.0,0.0,0.0,0.0,0.0,0.0,0.0,0.0,0.0,0.0,0.0,0.0,0.0,0.0,0.0,0.0,0.0,0.0,0.0,0.0,0.0,0.0,0.0,0.0,0.0,0.0,0.0,0.0,0.0,0.0,0.0,0.0,0.0,0.0,0.0,0.0,0.0,0.0,0.0,0.0,0.0,0.0,0.0,0.0,0.0,0.0,0.0,0.0,0.0,0.0,0.0,0.0,0.0,0.0,0.0,0.0,0.0,0.0,0.0,0.0,0.0,0.0,0.0,0.0,0.0,0.0,0.0,0.0,0.0,0.0,0.0,0.0,0.0,0.0,0.0,0.0,0.0,0.0,0.0,0.0,0.0,0.0,0.0,0.0,0.0,0.0,0.0,0.0,0.0,0.0,0.0,0.0,0.0,0.0,0.0,0.0,0.0,0.0,0.0,0.0,0.0,0.0,0.0,0.0,0.0,0.0,0.0,0.0,0.0,0.0,0.0,0.0,0.0,0.0,0.0,0.0,0.0,0.0,0.0,0.0,0.0,0.0,0.0,0.0,0.0,0.0,0.0,0.0,0.0,0.0,0.0,0.0,0.0,0.0,0.0,0.0,0.0,0.0,0.0,0.0,0.0,0.0,0.0,0.0,0.0,0.0,0.0,0.0,0.0,0.0,0.0,0.0,0.0,0.0,0.0,0.0,0.0,0.0,0.0,0.0,0.0,0.0,0.0,0.0,0.0,0.0,0.0,0.0,0.0,0.0,0.0,0.0,0.0,0.0,0.0,0.0,0.0,0.0,0.0,0.0,0.0,0.0,0.0,0.0,0.0,0.0,0.0,0.0,0.0,0.0,0.0,0.0,0.0,0.0,0.0,0.0,0.0,0.0,0.0,0.0,0.0,0.0,0.0,0.0,0.0,0.0,0.0,0.0,0.0,0.0,0.0,0.0,0.0,0.0,0.0,0.0,0.0,0.0,0.0,0.0,0.0,0.0,0.0,0.0,0.0,0.0,0.0,0.0,0.0,0.0,0.0,0.0,0.0,0.0,0.0,0.0,0.0,0.0,0.0,0.0,0.0,0.0,0.0,0.0,0.0,0.0,0.0,0.0,0.0,0.0,0.0,0.0,0.0,0.0,0.0,0.0,0.0,0.0,0.0,0.0,0.0,0.0,0.0,0.0,0.0,0.0,0.0,0.0,0.0,0.0,0.0,0.0,0.0,0.0,0.0,0.0,0.0,0.0,0.0,0.0,0.0,0.0,0.0,0.0,0.0,0.0,0.0,0.0,0.0,0.0,0.0,0.0,0.0,0.0,0.0,0.0,0.0,0.0,0.0,0.0,0.0,0.0,0.0,0.0,0.0,0.0,0.0,0.0,0.0,0.0,0.0,0.0,0.0,0.0,0.0,0.0,0.0,0.0,0.0,0.0,0.0,0.0,0.0,0.0,0.0,0.0,0.0,0.0,0.0,0.0,0.0,0.0,0.0,0.0,0.0,0.0,0.0,0.0,0.0,0.0,0.0,0.0,0.0,0.0,0.0,0.0,0.0,0.0,0.0,0.0,0.0,0.0,0.0,0.0,0.0,0.0,0.0,0.0,0.0,0.0,0.0,0.0,0.0,0.0,0.0,0.0,0.0,0.0,0.0,0.0,0.0,0.0,0.0,0.0,0.0,0.0,0.0,0.0,0.0,0.0,0.0,0.0,0.0,0.0,0.0,0.0,0.0,0.0,0.0,0.0,0.0,0.0,0.0,0.0,0.0,0.0,0.0,0.0,0.0,0.0,0.0,0.0,0.0,0.0,0.0,0.0,0.0,0.0,0.0,0.0,0.0,0.0,0.0,0.0,0.0,0.0,0.0,0.0,0.0,0.0,0.0,0.0,0.0,0.0,0.0,0.0,0.0,0.0,0.0,0.0,0.0,0.0,0.0,0.0,0.0,0.0,0.0,0.0,0.0,0.0,0.0,0.0,0.0,0.0,0.0,0.0,0.0,0.0,0.0,0.0,0.0,0.0,0.0,0.0,0.0,0.0,0.0,0.0,0.0,0.0,0.0,0.0,0.0,0.0,0.0,0.0,0.0,0.0,0.0,0.0,0.0,0.0,0.0,0.0,0.0,0.0,0.0,0.0,0.0,0.0,0.0,0.0,0.0,0.0,0.0,0.0,0.0,0.0,0.0,0.0,0.0,0.0,0.0,0.0,0.0,0.0,0.0,0.0,0.0,0.0,0.0,0.0,0.0,0.0,0.0,0.0,0.0,0.0,0.0,0.0,0.0,0.0,0.0,0.0,0.0,0.0,0.0,0.0,0.0,0.0,0.0,0.0,0.0,0.0,0.0,0.0,0.0,0.0,0.0,0.0,0.0,0.0,0.0,0.0,0.0,0.0,0.0,0.0,0.0,0.0,0.0,0.0,0.0,0.0,0.0,0.0,0.0,0.0,0.0,0.0,0.0,0.0,0.0,0.0,0.0,0.0,0.0,0.0,0.0,0.0,0.0,0.0,0.0,0.0,0.0,0.0,0.0,0.0,0.0,0.0,0.0,0.0,0.0,0.0,0.0,0.0,0.0,0.0,0.0,0.0,0.0,0.0,0.0,0.0,0.0,0.0,0.0,0.0,0.0,0.0,0.0,0.0,0.0,0.0,0.0,0.0,0.0,0.0,0.0,0.0,0.0,0.0,0.0,0.0,0.0,0.0,0.0,0.0,0.0,0.0,0.0,0.0,0.0,0.0,0.0,0.0,0.0,0.0,0.0,0.0,0.0,0.0,0.0,0.0,0.0,0.0,0.0,0.0,0.0,0.0,0.0,0.0,0.0,0.0,0.0,0.0,0.0,0.0,0.0,0.0,0.0,0.0,0.0,0.0,0.0,0.0,0.0,0.0,0.0,0.0,0.0,0.0,0.0,0.0,0.0,0.0,0.0,0.0,0.0,0.0,0.0,0.0,0.0,0.0,0.0,0.0,0.0,0.0,0.0,0.0,0.0,0.0,0.0,0.0,0.0,0.0,0.0,0.0,0.0,0.0,0.0,0.0,0.0,0.0,0.0,0.0,0.0,0.0,0.0,0.0,0.0,0.0,0.0,0.0,0.0,0.0,0.0,0.0,0.0,0.0,0.0,0.0,0.0,0.0,0.0,0.0,0.0,0.0,0.0,0.0,0.0,0.0,0.0,0.0,0.0,0.0,0.0,0.0,0.0,0.0,0.0,0.0,0.0,0.0,0.0,0.0,0.0,0.0,0.0,0.0,0.0,0.0,0.0,0.0,0.0,0.0,0.0,0.0,0.0,0.0,0.0,0.0,0.0,0.0,0.0,0.0,0.0,0.0,0.0,0.0,0.0,0.0,0.0,0.0,0.0,0.0,0.0,0.0,0.0,0.0,0.0,0.0,0.0,0.0,0.0,0.0,0.0,0.0,0.0,0.0,0.0,0.0,0.0,0.0,0.0,0.0,0.0,0.0,0.0,0.0,0.0,0.0,0.0,0.0,0.0,0.0,0.0,0.0,0.0,0.0,0.0,0.0,0.0,0.0,0.0,0.0,0.0,0.0,0.0,0.0,0.0,0.0,0.0,0.0,0.0,0.0,0.0,0.0,0.0,0.0,0.0,0.0,0.0,0.0,0.0,0.0,0.0,0.0,0.0,0.0,0.0,0.0,0.0,0.0,0.0,0.0,0.0,0.0,0.0,0.0,0.0,0.0,0.0,0.0,0.0,0.0,0.0,0.0,0.0,0.0,0.0,0.0,0.0,0.0,0.0,0.0,0.0,0.0,0.0,0.0,0.0,0.0,0.0,0.0,0.0,0.0,0.0,0.0,0.0,0.0,0.0,0.0,0.0,0.0,0.0,0.0,0.0,0.0,0.0,0.0,0.0,0.0,0.0,0.0,0.0,0.0,0.0,0.0,0.0,0.0,0.0,0.0,0.0,0.0,0.0,0.0,0.0,0.0,0.0,0.0,0.0,0.0,0.0,0.0,0.0,0.0,0.0,0.0,0.0,0.0,0.0,0.0,0.0,0.0,0.0,0.0,0.0,0.0,0.0,0.0,0.0,0.0,0.0,0.0,0.0,0.0,0.0,0.0,0.0,0.0,0.0,0.0,0.0,0.0,0.0,0.0,0.0,0.0,0.0,0.0,0.0,0.0,0.0,0.0,0.0,0.0,0.0,0.0,0.0,0.0,0.0,0.0,0.0,0.0,0.0,0.0,0.0,0.0,0.0,0.0,0.0,0.0,0.0,0.0,0.0,0.0,0.0,0.0,0.0,0.0,0.0,0.0,0.0,0.0,0.0,0.0,0.0,0.0,0.0,0.0,0.0,0.0,0.0,0.0,0.0,0.0,0.0,0.0,0.0,0.0,0.0,0.0,0.0,0.0,0.0,0.0,0.0,0.0,0.0,0.0,0.0,0.0,0.0,0.0,0.0,0.0,0.0,0.0,0.0,0.0,0.0,0.0,0.0,0.0,0.0,0.0,0.0,0.0,0.0,0.0,0.0,0.0,0.0,0.0,0.0,0.0,0.0,0.0,0.0,0.0,0.0,0.0,0.0,0.0,0.0,0.0,0.0,0.0,0.0,0.0,0.0,0.0,0.0,0.0,0.0,0.0,0.0,0.0,0.0,0.0,0.0,0.0,0.0,0.0,0.0,0.0,0.0,0.0,0.0,0.0,0.0,0.0,0.0,0.0,0.0,0.0,0.0,0.0,0.0,0.0,0.0,0.0,0.0,0.0,0.0,0.0,0.0,0.0,0.0,0.0,0.0,0.0,0.0,0.0,0.0,0.0,0.0,0.0,0.0,0.0,0.0,0.0,0.0,0.0,0.0,0.0,0.0,0.0,0.0,0.0,0.0,0.0,0.0,0.0,0.0,0.0,0.0,0.0,0.0,0.0,0.0,0.0,0.0,0.0,0.0,0.0,0.0,0.0,0.0,0.0,0.0,0.0,0.0,0.0,0.0,0.0,0.0,0.0,0.0,0.0,0.0,0.0,0.0,0.0,0.0,0.0,0.0,0.0,0.0,0.0,0.0,0.0,0.0,0.0,0.0,0.0,0.0,0.0,0.0,0.0,0.0,0.0,0.0,0.0,0.0,0.0,0.0,0.0,0.0,0.0,0.0,0.0,0.0,0.0,0.0,0.0,0.0,0.0,0.0,0.0,0.0,0.0,0.0,0.0,0.0,0.0,0.0,0.0,0.0,0.0,0.0,0.0,0.0,0.0,0.0,0.0,0.0,0.0,0.0,0.0,0.0,0.0,0.0,0.0,0.0,0.0,0.0,0.0,0.0,0.0,0.0,0.0,0.0,0.0,0.0,0.0,0.0,0.0,0.0,0.0,0.0,0.0,0.0,0.0,0.0,0.0,0.0,0.0,0.0,0.9001,0.8885,0.0,0.0,0.0,0.0,0.0,0.0,0.0,0.0,0.0,0.0,0.0,0.0,0.0,0.0,0.0,0.0,0.0,0.0,0.0,0.0,0.0,0.0,0.0,0.0,0.0,0.0,0.0,0.0,0.0,0.0,0.0,0.0,0.0,0.0,0.0,0.0,0.0,0.0,0.0,0.0,0.0,0.0,0.0,0.0,0.0,0.0,0.0,0.0,0.0,0.0,0.0,0.0,0.0,0.0,0.0,0.0,0.0,0.0,0.0,0.0,0.0,0.0,0.0,0.0,0.0,0.0,0.0,0.0,0.0,0.0,0.0,0.0,0.0,0.0,0.0,0.0,0.0,0.0,0.0,0.0,0.0,0.0,0.0,0.0,0.0,0.0,0.0,0.0,0.0,0.0,0.0,0.0,0.0,0.0,0.0,0.0,0.0,0.0,0.0,0.0,0.0,0.0,0.0,0.0,0.0,0.0,0.0,0.0,0.0,0.0,0.0,0.0,0.0,0.0,0.8971,0.8885,0.0,0.0,0.0,0.0,0.0,0.0,0.0,0.0,0.0,0.0,0.0,0.0,0.0,0.0,0.0,0.0,0.0,0.0,0.0,0.0,0.0,0.0,0.0,0.0,0.0,0.0,0.0,0.0,0.0,0.0,0.0,0.0,0.0,0.0,0.0,0.0,0.0,0.0,0.0,0.0,0.0,0.0,0.0,0.0,0.0,0.0,0.0,0.0,0.0,0.0,0.0,0.0,0.0,0.0,0.0,0.0,0.0,0.0,0.0,0.0,0.0,0.0,0.0,0.0,0.0,0.0,0.0,0.0,0.0,0.0,0.0,0.0,0.0,0.0,0.0,0.0,0.0,0.0,0.0,0.0,0.0,0.0,0.0,0.0,0.0,0.0,0.0,0.0,0.0,0.0,0.0,0.0,0.0,0.0,0.0,0.0,0.0,0.0,0.0,0.0,0.0,0.0,0.0,0.0,0.0,0.0,0.0,0.0,0.8885,0.8885,0.8885,0.8885,0.8885,0.8885,0.8885,0.8885,0.8885,0.8885,0.0,0.0,0.0,0.0,0.0,0.0,0.0,0.0,0.0,0.0,0.0,0.0,0.0,0.0,0.0,0.0,0.0,0.0,0.0,0.0,0.0,0.0,0.0,0.0,0.0,0.0,0.0,0.0,0.0,0.0,0.0,0.0,0.0,0.0,0.0,0.0,0.0,0.0,1.0692,1.0692,1.0637,1.0582,1.0366,0.0,0.0,0.0,0.0,0.0,0.0,0.0,0.0,0.0,0.0,0.0,0.0,0.0,0.0,0.0,0.0,0.0,0.0,0.0,0.0,0.0,0.0,0.0,0.0,0.0,0.0,0.0,0.0,0.0,0.0,0.0,0.0,0.0,0.0,0.0,0.0,0.0,0.0,0.0,0.0,0.0,0.0,0.0,0.9974,1.1055,0.0,0.0,0.0,0.0,0.0,0.0,0.0,0.0,0.0,0.0,0.0,0.0,0.0,0.9047,0.8885,0.8885,0.8885,0.8885,0.8885,0.8885,0.8885,0.8885,0.8885,0.8885,0.8885,0.0,0.8885,0.8885,0.0,0.0,0.0,0.0,0.0,0.0,0.0,0.0,0.0,0.0,0.0,0.0,0.0,0.0,0.0,0.0,0.0,0.0,0.0,0.0,0.0,0.0,0.0,0.0,0.0,0.0,0.0,0.0,0.0,0.0,0.0,0.0,0.0,0.0,0.0,0.0,1.0692,1.0692,1.0692,1.0692,1.0692,1.0692,1.0582,1.0417,1.0308,1.0147,0.0,0.0,0.0,0.0,0.0,0.0,0.0,0.0,0.0,0.0,0.0,0.0,0.0,0.0,0.0,0.0,0.0,0.0,0.0,0.0,0.0,0.0,0.0,0.0,0.0,0.0,0.0,0.0,0.0,0.0,0.0,0.0,0.0,0.0,0.0,0.0,0.0,0.0,0.0,1.2082,1.1592,1.2403,1.2842,1.3275,0.0,0.0,0.0,0.0,0.0,0.0,0.0,0.0,0.0,1.1937,1.1882,1.1551,1.0895,1.0895,1.0895,1.0895,1.0895,1.0895,1.0895,1.0895,1.0895,1.0895,1.0895,1.0515,0.986,0.9154,0.8885,0.8885,0.0,0.0,0.0,0.0,0.9103,0.9158,0.0,0.0,0.0,0.0,0.0,0.0,0.0,0.0,0.0,0.0,0.0,0.0,0.0,0.0,0.0,1.0692,0.0,0.0,0.0,0.0,0.0,0.0,0.0,0.0,0.0,0.0,0.0,0.0,1.1017,1.1122,1.1122,1.1122,1.1122,1.1126,1.0852,1.0692,1.0692,1.0472,1.0363,0.0,0.0,0.0,0.0,0.0,0.0,0.0,0.0,0.0,0.0,0.0,0.0,0.0,0.0,0.0,0.0,0.0,0.0,0.0,0.0,0.0,0.0,0.0,0.0,0.0,0.0,0.0,0.0,0.0,0.0,0.0,0.0,0.0,0.0,0.0,0.0,0.0,0.0,1.3917,1.3205,1.3755,1.4411,1.49,0.0,0.0,0.0,0.0,0.0,0.0,1.5613,1.5559,1.5024,1.3781,1.3727,1.329,1.2417,1.2417,1.2417,1.2417,1.2417,1.2417,1.2417,1.2417,1.2417,1.2417,1.2417,1.1923,1.1055,0.986,0.9154,0.8885,0.8885,0.8885,0.894,0.9047,0.9103,0.9158,0.0,0.0,0.0,0.0,0.0,0.0,0.0,0.0,0.0,0.0,0.0,0.0,0.0,0.0,1.0692,1.0692,1.0692,1.0692,0.0,0.0,0.0,0.0,0.0,0.0,0.0,0.0,0.0,1.0692,1.1769,1.2309,1.2309,1.2309,1.2309,1.2254,1.1177,1.0692,1.0692,1.0692,1.0527,1.0312,0.0,0.0,0.0,0.0,0.0,0.0,0.0,0.0,0.0,0.0,0.0,0.0,0.0,0.0,0.0,0.0,0.0,0.0,0.0,0.0,0.0,0.0,0.0,0.0,0.0,0.0,0.0,0.0,0.0,0.0,0.0,0.0,0.0,0.0,0.0,0.0,0.0,0.0,0.0,1.5173,1.5339,0.0,0.0,0.0,0.0,1.6677,1.6677,1.6086,1.4739,1.4685,1.3981,1.2526,1.2472,1.2472,1.2417,1.2417,1.2417,1.2417,1.2417,1.2417,1.2417,1.2417,1.2417,1.2417,1.2417,1.2363,1.2254,1.1055,0.9915,0.8885,0.8885,0.8885,0.8992,0.9541,0.9761,0.9816,0.0,0.0,0.0,0.0,0.0,0.0,0.0,0.0,0.0,0.0,0.0,0.0,0.0,1.0692,1.0692,1.0692,1.1391,1.1769,1.1769,0.0,0.0,0.0,0.0,0.0,0.0,0.0,1.2146,1.2901,1.3275,1.3491,1.3491,1.2738,1.2417,1.2358,1.1232,1.0692,1.0692,1.0692,1.0637,1.0527,1.0366,1.0257,0.0,0.0,0.0,0.0,0.0,0.0,0.0,0.0,0.0,0.0,0.0,0.0,0.0,0.0,0.0,0.0,0.0,0.0,0.0,0.0,0.0,0.0,0.0,0.0,0.0,0.0,0.0,0.0,0.0,0.0,0.0,0.0,0.0,0.0,0.0,0.0,0.0,1.673,1.6683,0.0,1.7008,1.6842,1.6677,1.6677,1.6365,1.6045,1.5725,1.5506,1.5179,1.4696,1.4637,1.4637,1.4637,1.4637,1.4637,1.4637,1.4637,1.4637,1.4637,1.4637,1.4637,1.4637,1.4804,1.4471,1.3819,1.3545,1.2575,1.1059,1.0351,1.0186,1.0241,0.9757,0.9651,0.9816,0.0,0.0,0.0,0.0,0.0,0.0,0.0,0.0,0.0,0.0,0.0,1.0692,1.0692,1.0692,1.0852,1.1232,1.1987,1.2575,1.2955,0.0,0.0,0.0,0.0,0.0,0.0,1.3976,1.3329,1.4078,1.4513,1.4728,1.4674,1.3922,1.3599,1.3491,1.1987,1.1286,1.1232,1.0852,1.0692,1.0692,1.0527,1.0421,1.0527,0.0,0.0,0.0,0.0,0.0,0.0,0.0,0.0,0.0,0.0,0.0,0.0,0.0,0.0,0.0,0.0,0.0,0.0,0.0,0.0,0.0,0.0,0.0,0.0,0.0,0.0,0.0,0.0,0.0,0.0,0.0,0.0,0.0,0.0,1.743,1.7384,1.743,1.7384,1.7279,1.7232,1.706,1.6995,1.6995,1.6683,1.653,1.659,1.643,1.6264,1.6152,1.6105,1.6105,1.6152,1.5998,1.5945,1.6051,1.5945,1.5891,1.5891,1.5891,1.5891,1.5891,1.6105,1.5725,1.5066,1.5339,1.4745,1.3555,1.2136,1.1701,1.1701,1.068,1.0414,1.0519,0.0,0.0,0.0,0.0,0.0,0.0,0.0,0.0,0.0,0.0,1.0692,1.0692,1.0692,1.0747,1.1177,1.2309,1.2467,1.3009,1.4083,1.5263,0.0,0.0,0.0,0.0,1.5968,1.4781,1.4186,1.4186,1.5375,1.5968,1.5968,1.5914,1.5914,1.5808,1.3491,1.2467,1.2363,1.1232,1.0747,1.0747,1.0692,1.0692,1.0798,0.0,0.0,0.0,0.0,0.0,0.0,0.0,0.0,0.0,0.0,0.0,0.0,0.0,0.0,0.0,0.0,0.0,0.0,0.0,0.0,0.0,0.0,0.0,0.0,0.0,0.0,0.0,0.0,0.0,0.0,0.0,0.0,0.0,1.7582,1.7582,1.7483,1.7226,1.743,1.7483,1.7226,1.743,1.7582,1.7582,1.7582,1.7483,1.7226,1.7179,1.706,1.673,1.6424,1.6424,1.6677,1.6205,1.6051,1.6324,1.6051,1.5945,1.5945,1.5945,1.5945,1.5945,1.5945,1.5945,1.5945,1.6217,1.6324,1.6158,1.4137,1.3378,1.327,1.2358,1.2032,1.1928,0.0,0.0,0.0,0.0,0.0,0.0,0.0,0.0,0.0,0.0,1.0692,1.0692,1.0692,1.1446,1.2037,1.2363,1.3976,1.5055,1.5375,0.0,0.0,0.0,0.0,0.0,1.7094,1.6021,1.5802,1.6664,1.6988,1.7153,1.7094,1.6293,1.5914,1.5808,1.4298,1.3652,1.3545,1.2417,1.1932,1.1878,1.1017,1.0692,1.0798,0.0,0.0,0.0,0.0,0.0,0.0,0.0,0.0,0.0,0.0,0.0,0.0,0.0,0.0,0.0,0.0,0.0,0.0,0.0,0.0,0.0,0.0,0.0,0.0,0.0,0.0,0.0,0.0,0.0,0.0,0.0,1.7582,1.7582,1.7582,1.7582,1.7582,1.7483,1.7582,1.7582,1.7483,1.7378,1.7378,1.7582,1.7213,1.7001,1.7179,1.6955,1.6789,1.6677,1.663,1.663,1.6677,1.6571,1.6524,1.6577,1.6524,1.6465,1.6465,1.6465,1.6465,1.6471,1.6743,1.6855,1.6855,1.7113,1.7219,1.7054,1.5221,1.4626,1.468,1.3652,1.3383,1.3491,0.0,0.0,0.0,0.0,0.0,0.0,0.0,0.0,0.0,0.0,1.0582,1.0582,1.0692,1.1286,1.1878,1.2363,1.4083,1.5375,1.5861,0.0,0.0,0.0,0.0,1.6935,1.7582,1.6935,1.6935,1.7582,1.7582,1.7582,1.7582,1.6935,1.6611,1.6558,1.5375,1.4835,1.4728,1.3117,1.2417,1.2309,1.1177,1.0692,1.0798,1.1987,1.2417,1.2521,1.3706,1.3383,1.2467,1.2955,0.0,0.0,0.0,0.0,0.0,0.0,0.0,0.0,0.0,0.0,0.0,0.0,0.0,0.0,0.0,0.0,0.0,0.0,0.0,0.0,0.0,0.0,0.0,0.0,1.7582,1.7582,1.7582,1.7582,1.7582,1.7582,1.7582,1.7582,1.7582,1.7483,1.743,1.7582,1.7265,1.716,1.7384,1.716,1.71,1.71,1.6948,1.6948,1.71,1.6836,1.6789,1.6902,1.6789,1.6677,1.6677,1.6677,1.6677,1.673,1.6902,1.7008,1.7008,1.7325,1.743,1.7325,0.0,0.0,0.0,0.0,1.44,1.4078,0.0,0.0,0.0,0.0,0.0,0.0,0.0,0.0,0.0,0.0,0.0,1.0417,1.0692,1.0802,1.1286,1.2309,1.3437,1.4561,0.0,0.0,0.0,1.7417,1.7424,1.7477,1.7582,1.7582,1.7582,1.7582,1.7582,1.7582,1.7582,1.7582,1.7582,1.7582,1.6558,1.6074,1.5914,1.3599,1.2575,1.2472,1.1232,1.0692,1.0802,1.1823,1.22,1.2363,1.3329,1.3058,1.2363,1.3383,0.0,0.0,0.0,0.0,0.0,0.0,0.0,0.0,0.0,0.0,0.0,0.0,0.0,0.0,0.0,0.0,0.0,0.0,0.0,0.0,0.0,0.0,0.0,0.0,1.7786,1.7786,1.7786,1.7891,1.7891,1.7635,1.7687,1.7733,1.7635,1.7687,1.7733,1.7635,1.7582,1.7582,1.7582,1.7582,0.0,0.0,0.0,1.7384,1.7582,1.7054,1.6948,1.7226,1.6948,1.6783,1.6783,1.6783,1.6783,1.6783,1.6783,1.6783,1.6836,1.7113,1.7232,1.7279,1.7536,1.7582,1.7477,1.6452,1.5429,1.4513,0.0,0.0,0.0,0.0,0.0,0.0,0.0,0.0,0.0,0.8692,0.975,1.0417,1.0692,1.15,1.2146,1.2363,1.3437,1.4186,0.0,0.0,1.5209,1.6187,1.6234,1.6664,1.7582,1.7582,1.7582,1.7582,1.7582,1.7582,1.7582,1.7582,1.7582,1.7582,1.7364,1.7259,1.7094,1.4781,1.376,1.3599,1.1555,1.0692,1.0747,1.0962,1.1017,1.1067,1.1286,1.1232,1.1067,1.1286,1.1232,1.1232,1.2363,0.0,0.0,0.0,0.0,0.0,0.0,0.0,0.0,0.0,0.0,0.0,0.0,0.0,0.0,0.0,0.0,0.0,0.0,0.0,0.0,1.8975,1.8871,1.8871,1.8871,1.9694,1.9598,1.7786,1.8356,1.8558,1.7687,1.8356,1.8506,1.7687,1.7582,1.7582,1.7582,1.7582,1.7582,1.7582,1.7536,1.7536,1.7582,1.7477,1.7477,1.7536,1.7477,0.0,1.7424,1.7424,1.7424,1.7424,1.7424,1.7424,1.7424,1.7477,1.7536,1.7536,1.7582,1.7582,1.7582,1.7364,1.7094,1.6929,0.0,0.0,0.0,0.0,0.0,0.0,0.0,0.0,0.0,0.0,0.8306,0.914,0.9523,1.0621,1.1391,1.1555,1.2575,0.0,0.0,1.4078,1.4352,1.4995,1.4995,1.5263,1.5855,1.6452,1.6776,1.6776,1.7312,1.7582,1.7582,1.7582,1.7582,1.7582,1.7582,1.7582,1.747,1.5102,1.4078,1.3922,1.161,1.0692,1.0692,1.0692,1.0692,1.0692,1.0692,1.0692,1.0692,1.0692,1.0692,1.0802,1.1391,1.2309,1.3491,0.0,0.0,0.0,0.0,0.0,0.0,0.0,0.0,0.0,0.0,0.0,0.0,0.0,0.0,2.057,1.9435,0.0,1.9849,1.928,1.9694,2.0055,2.0055,2.0526,2.0261,1.861,1.8864,1.8968,1.8461,1.8408,1.8199,1.7635,1.7582,1.7582,1.7582,1.7582,1.7582,1.7582,1.7582,1.7582,1.7582,1.7582,1.7582,1.7582,1.7582,1.7582,1.7582,1.7582,1.7582,1.7582,1.7582,1.7582,1.7582,1.7582,1.7582,1.7582,1.7582,1.7582,1.7582,1.7582,1.7582,1.7582,0.0,0.0,0.0,0.0,0.0,0.0,0.0,0.0,0.0,0.0,0.6642,0.759,0.8413,0.9361,1.0139,0.0,0.0,0.0,0.0,1.3437,1.3545,1.376,1.376,1.3868,1.4078,1.5049,1.5535,1.5535,1.6452,1.6929,1.6929,1.6929,1.7041,1.7259,1.7041,1.7041,1.7094,1.4781,1.376,1.3599,1.1555,1.0692,1.0692,1.0692,1.0692,1.0692,1.0692,1.0692,1.0692,1.0692,1.0692,1.0747,1.0962,1.2309,1.3863,1.4298,1.5802,0.0,0.0,0.0,0.0,0.0,0.0,0.0,0.0,1.8871,1.9124,2.0055,2.0416,2.0313,1.9383,2.0107,2.0672,1.9952,2.0621,2.1191,2.1191,2.1395,2.1132,2.0004,1.9849,1.9738,1.9539,1.8923,1.8461,1.8251,1.8251,1.8153,1.7943,1.7891,1.7845,1.7635,1.7582,1.7582,1.7582,1.7582,1.7582,1.7582,1.7582,1.7582,1.7582,1.7582,1.7582,1.7582,1.7582,1.7582,1.7582,1.7582,1.7582,1.7582,1.7582,1.7582,1.7582,1.7582,1.7582,1.7582,0.0,0.0,0.0,0.0,0.0,0.0,0.0,0.0,0.0,0.0,0.0,0.0,0.0,0.0,0.0,0.0,0.0,0.0,1.1067,1.1072,1.1555,1.2521,1.2575,1.3058,1.4083,1.4239,1.4293,1.4293,1.4406,1.4513,1.4513,1.4513,1.5049,1.6021,1.4995,1.5102,1.5914,1.3599,1.2575,1.2472,1.1232,1.0692,1.0692,1.0692,1.0692,1.0692,1.0692,1.0692,1.0692,1.0692,1.0692,1.0852,1.1878,1.2358,1.3009,1.5108,0.0,1.6293,1.7312,1.7582,1.7582,1.7582,1.7582,1.7635,0.0,1.7786,1.7845,1.7943,1.8715,1.9332,1.9228,2.0107,2.1191,2.2013,2.2215,2.2325,2.2325,2.3188,2.3388,2.2266,2.2114,2.1759,2.0783,2.1446,2.1548,2.0577,2.0526,2.0107,1.9072,1.902,1.8558,1.7635,1.7582,1.7582,1.7582,1.7582,1.7582,1.7582,1.7582,1.7582,1.7582,1.7582,1.7582,1.7582,1.7582,1.7582,1.7582,1.7582,1.7582,1.7582,1.7582,1.7582,1.7582,1.7582,1.7582,1.7582,0.0,0.0,0.0,0.0,0.0,0.0,0.0,0.0,0.0,0.0,0.0,0.0,0.0,0.0,0.0,0.0,0.0,0.0,1.0692,1.0692,1.0907,1.1396,1.1391,1.161,1.2096,1.2792,1.3112,1.3112,1.376,1.4078,1.4078,1.4078,1.4352,1.4835,1.4352,1.44,1.4728,1.3117,1.2417,1.2309,1.1177,1.0692,1.0692,1.0692,1.0692,1.0798,1.1446,1.1719,0.0,0.0,1.2146,1.263,1.2467,1.3329,1.462,1.5589,1.6399,0.0,1.7477,1.7582,1.7582,1.7582,1.7582,1.7582,1.7582,1.7582,1.7582,1.7582,1.7943,1.8454,1.9072,2.0107,2.1242,2.2325,2.3038,2.3488,2.3488,2.3895,2.3994,2.3546,2.3488,2.3029,2.1962,2.165,2.1395,2.0936,2.0885,2.0416,1.928,1.9176,1.8715,1.7635,1.7582,1.7582,1.7582,1.7582,1.7582,1.7582,1.7582,1.7582,1.7582,1.7582,1.7582,1.7582,1.7582,1.7582,1.7582,1.7582,1.7582,1.7582,1.7582,1.7582,1.7582,1.7582,1.7582,1.7582,0.0,0.0,0.0,0.0,0.0,0.0,0.0,0.0,0.0,0.0,0.0,0.0,0.0,0.0,0.0,0.0,0.0,0.0,0.0,1.0692,1.0692,1.0692,1.0692,0.0,1.0692,1.15,1.1932,1.1932,1.2738,1.3166,1.3166,1.3166,1.3329,1.3599,1.3275,1.3329,1.3545,1.2417,1.1932,1.1878,1.1017,1.0692,1.0692,1.0692,1.0692,1.0857,1.1987,1.2417,0.0,0.0,1.3437,1.403,1.3545,1.4513,1.5968,1.6293,1.6935,1.7582,1.7582,1.7582,1.7582,1.7582,1.7582,1.7582,1.7582,1.7582,1.7582,1.7582,1.7838,1.8356,1.9487,2.057,2.1709,2.2778,2.3646,2.4202,2.4202,2.4202,2.4202,2.4202,2.4202,2.3895,2.3038,2.2266,2.1802,2.1802,2.1802,2.1285,2.0158,2.0099,1.9487,1.8101,1.8048,1.7891,1.7582,1.7582,1.7582,1.7582,1.7582,1.7582,1.7582,1.7582,1.7582,1.7582,1.7582,1.7582,1.7582,1.7582,1.7582,1.7582,1.7582,1.7582,1.7582,1.7582,1.7582,1.7582,0.0,0.0,0.0,0.0,0.0,0.0,0.0,0.0,0.0,0.0,0.0,0.0,0.0,0.0,0.0,0.0,0.0,0.0,0.0,1.0692,1.0692,1.0692,1.0692,1.0692,1.0692,1.0747,1.0747,1.0747,1.0798,1.0802,1.0802,1.0802,1.1396,1.2417,1.1286,1.1391,1.2363,1.1232,1.0747,1.0747,1.0692,1.0692,1.0692,1.0692,1.0692,1.0857,1.1987,0.0,0.0,0.0,1.4078,1.4298,1.5429,1.5861,0.0,1.7206,1.7582,1.7582,1.7582,1.7582,1.7582,1.7582,1.7582,1.7582,1.7582,1.7582,1.7582,1.7582,1.8408,1.9487,2.0629,2.1709,2.2828,2.3945,2.4202,2.4202,2.4202,2.4202,2.4202,2.4202,2.4202,2.4202,2.4152,2.4102,2.4102,2.4102,2.4102,2.3596,2.2476,2.2426,2.1395,1.9228,1.9176,1.8662,1.7635,1.7582,1.7582,1.7582,1.7582,1.7582,1.7582,1.7582,1.7582,1.7582,1.7582,1.7582,1.7582,1.7582,1.7582,1.7582,1.7582,1.7582,1.7582,1.7582,1.7582,1.7582,0.0,0.0,0.0,0.0,0.0,0.0,0.0,0.0,0.0,0.0,0.0,0.0,0.0,0.0,0.0,0.0,0.0,0.0,0.0,1.0249,1.0692,1.0692,1.0692,1.0692,1.0692,1.0692,1.0692,1.0692,1.0692,1.0692,1.0692,1.0692,1.0907,1.1286,1.0852,1.0907,1.1232,1.0852,1.0692,1.0692,1.0692,1.0692,1.0692,1.0692,1.1177,1.1982,0.0,0.0,0.0,0.0,1.5802,1.634,1.6021,1.6399,1.71,1.7477,1.7582,1.7582,1.7582,1.7582,1.7582,1.7582,1.7582,1.7582,1.7582,1.7582,1.7582,1.7582,1.8461,1.9539,2.068,2.1759,2.2878,2.4003,2.4202,2.4202,2.4202,2.4202,2.4202,2.4202,2.4202,2.4202,2.4202,2.4202,2.4202,2.4202,2.4202,2.3696,2.2577,2.2476,2.181,2.0364,1.9591,1.902,1.8662,1.7943,1.7582,1.7582,1.7582,1.7582,1.7582,1.7582,1.7582,1.7582,1.7582,1.7582,1.7582,1.7582,1.7582,1.7582,1.7582,1.7582,1.7582,1.7582,1.7582,1.7582,0.0,0.0,0.0,0.0,0.0,0.0,0.0,0.0,0.0,0.0,0.0,0.0,0.0,0.0,0.0,0.0,0.0,0.0,0.0,0.0,0.9523,1.0029,1.0084,1.0249,1.0692,1.0692,1.0692,1.0692,1.0692,1.0692,1.0692,1.0692,1.0692,1.0692,1.0692,1.0692,1.0692,1.0692,1.0692,1.0692,1.0692,1.0692,1.0692,1.0692,1.1122,0.0,0.0,0.0,0.0,0.0,1.6988,1.7477,1.6717,1.6988,1.7582,1.7582,1.7582,1.7582,1.7582,1.7582,1.7582,1.7582,1.7582,1.7582,1.7582,1.7582,1.7582,1.7582,1.8461,1.9539,2.068,2.1759,2.2878,2.4003,2.4202,2.4202,2.4202,2.4202,2.4202,2.4202,2.4202,2.4202,2.4202,2.4202,2.4202,2.4202,2.4202,2.3895,2.3138,2.3138,2.2627,2.1497,2.0364,1.9591,1.9176,1.8153,1.7582,1.7582,1.7582,1.7582,1.7582,1.7582,1.7582,1.7582,1.7582,1.7582,1.7582,1.7582,1.7582,1.7582,1.7582,1.7582,1.7582,1.7582,1.7582,1.7582,0.0,0.0,0.0,0.0,0.0,0.0,0.0,0.0,0.0,0.0,0.0,0.0,0.0,0.0,0.0,0.0,0.0,0.0,0.0,0.0,0.0,0.8754,0.8809,0.9364,1.0582,1.0637,1.0637,1.0692,1.0692,1.0692,1.0692,1.0692,1.0692,1.0692,1.0692,1.0692,1.0692,1.0692,1.0692,1.0692,1.0692,1.0692,1.0692,1.0692,0.0,0.0,0.0,0.0,0.0,0.0,1.7582,1.7477,1.7424,1.7477,1.7529,1.7529,1.7529,1.7582,1.7582,1.7582,1.7582,1.7582,1.7582,1.7582,1.7582,1.7635,1.7687,1.7687,1.8558,1.9694,2.0783,2.1861,2.2929,2.3994,2.4202,2.4202,2.4202,2.4202,2.4202,2.4202,2.4202,2.4202,2.4202,2.4152,2.4102,2.4102,2.4102,2.4102,2.4102,2.4102,2.3646,2.2526,2.1497,2.0416,1.928,1.8146,1.7582,1.7582,1.7635,1.7635,1.7582,1.7635,1.7635,1.7582,1.7582,1.7582,1.7582,1.7687,1.7687,1.7687,1.774,1.7733,1.7687,1.7687,1.7635,1.7582,0.0,0.0,0.0,0.0,0.0,0.0,0.0,0.0,0.0,0.0,0.0,0.0,0.0,0.0,0.0,0.0,0.0,0.0,0.0,0.0,0.0,0.0,0.0,0.0,0.0,0.0,0.0,0.0,0.0,1.0692,1.0692,1.0692,1.0692,1.0692,1.0692,1.0692,1.0692,1.0692,1.0692,1.0692,0.0,1.0692,1.0692,0.0,0.0,0.0,0.0,0.0,0.0,0.0,1.7047,1.618,1.5263,1.5589,1.634,1.634,1.6935,1.7582,1.7582,1.7582,1.7582,1.7582,1.7582,1.7582,1.7582,1.8199,1.8767,1.8767,2.0313,2.1751,2.2064,2.3029,2.3845,2.4152,2.4202,2.4202,2.4202,2.4202,2.4202,2.4202,2.4202,2.4202,2.4202,2.3438,2.2937,2.2937,2.2937,2.2937,2.2937,2.2937,2.2778,2.2526,2.2224,2.1548,2.0467,1.8565,1.7582,1.7635,1.8408,1.8356,1.7635,1.8408,1.8356,1.7582,1.7582,1.7582,1.7687,1.8454,1.8767,1.8864,1.9746,1.9539,1.8767,1.8767,1.8304,1.7582,0.0,0.0,0.0,0.0,0.0,0.0,0.0,0.0,0.0,0.0,0.0,0.0,0.0,0.0,0.0,0.0,0.0,0.0,0.0,0.0,0.0,0.0,0.0,0.0,0.0,0.0,0.0,0.0,0.0,0.0,0.0,1.0692,1.0692,1.0692,1.0692,1.0692,1.0692,0.0,0.0,0.0,0.0,0.0,0.0,0.0,0.0,0.0,0.0,0.0,0.0,0.0,0.0,1.4995,1.4293,1.4942,1.5914,1.5914,1.6717,1.7582,1.7582,1.7582,1.7582,1.7582,1.7582,1.774,1.8199,1.8767,1.9332,1.9849,2.1293,2.2476,2.2476,2.3438,2.4202,2.4202,2.4202,2.4202,2.4202,2.4202,2.4202,2.4202,2.4202,2.3994,2.3488,2.2878,2.2325,2.181,2.181,2.181,2.181,2.181,2.181,2.181,2.181,2.1293,2.0158,1.8461,1.7582,1.7635,1.8715,1.8864,1.8304,1.8916,1.8864,1.8304,1.7786,1.7582,1.7687,1.8767,1.9176,1.9332,2.0467,2.0518,1.9952,1.9952,1.9228,1.8304,0.0,0.0,0.0,0.0,0.0,0.0,0.0,0.0,0.0,0.0,0.0,0.0,0.0,0.0,0.0,0.0,0.0,0.0,0.0,0.0,0.0,0.0,0.0,0.0,0.0,0.0,0.0,0.0,0.0,0.0,0.0,0.0,0.0,0.0,0.0,0.0,0.0,0.0,0.0,0.0,0.0,0.0,0.0,0.0,0.0,0.0,0.0,0.0,0.0,0.0,1.3063,1.3863,1.3706,1.4567,1.5642,1.5642,1.6558,1.7582,1.7582,1.7582,1.7582,1.7582,1.7582,1.7891,1.8975,1.9332,1.9746,2.0885,2.1962,2.2728,2.2728,2.3538,2.4202,2.4202,2.4202,2.4202,2.4202,2.4202,2.4202,2.4202,2.4202,2.3795,2.2828,2.2577,2.2089,2.1051,2.0802,2.0727,2.068,2.0672,2.0723,2.0885,2.0885,2.0364,1.9228,1.8153,1.7582,1.7635,1.8819,1.9332,1.9228,1.9487,1.9539,1.9383,1.8304,1.7786,1.7891,1.8968,1.9435,1.9539,2.0826,2.1242,2.1089,2.1089,2.0416,1.9435,0.0,0.0,0.0,0.0,0.0,0.0,0.0,0.0,0.0,0.0,0.0,0.0,0.0,0.0,0.0,0.0,0.0,0.0,0.0,0.0,0.0,0.0,0.0,0.0,0.0,0.0,0.0,0.0,0.0,0.0,0.0,0.0,0.0,0.0,0.0,0.0,0.0,0.0,0.0,0.0,0.0,0.0,0.0,0.0,0.0,0.0,0.0,0.0,0.0,0.0,1.2521,1.2521,1.161,1.2738,1.44,1.44,1.5908,1.7582,1.7582,1.7582,1.7582,1.7582,1.7582,1.7891,1.8975,1.9952,2.0936,2.2013,2.3129,2.3895,2.3895,2.4053,2.4202,2.4202,2.4202,2.4202,2.4202,2.4202,2.4202,2.4202,2.4202,2.4102,2.3895,2.3038,2.2138,2.129,2.0415,1.9776,1.9502,1.9487,1.9952,2.0885,2.0885,2.0364,1.9228,1.8153,1.7582,1.7635,1.9642,2.0107,1.928,2.1081,2.1446,2.0526,1.9383,1.8916,1.9027,2.0158,2.0629,2.0826,2.282,2.3029,2.2215,2.2215,2.1548,2.0629,0.0,0.0,0.0,0.0,0.0,0.0,0.0,0.0,0.0,0.0,0.1819,0.1812,0.0,0.0,0.0,0.0,0.0,0.0,0.0,0.0,0.0,0.0,0.0,0.0,0.0,0.0,0.5314,0.7091,0.0,0.0,0.0,1.0414,1.0692,1.0692,0.0,0.0,0.0,0.0,0.0,0.0,0.0,0.0,0.0,0.0,0.0,0.0,0.0,0.0,0.0,0.0,1.15,1.1391,1.0852,1.2254,1.4078,1.4078,1.5749,1.7582,1.7582,1.7582,1.7582,1.7582,1.7582,1.8048,1.9694,2.0621,2.1591,2.322,2.4084,2.4538,2.439,2.4341,2.4341,2.4202,2.4202,2.4202,2.4202,2.4202,2.3994,2.3388,2.3845,2.3746,2.2568,2.2005,2.1337,2.0529,1.9459,1.8768,1.8561,1.8964,1.9746,2.0885,2.0313,2.0055,2.0055,1.8408,1.7891,1.8461,2.0107,2.0629,2.0107,2.1191,2.1395,2.0834,1.9694,1.9539,2.0158,2.1293,2.1709,2.1912,2.3538,2.3845,2.3388,2.3388,2.2677,2.1709,0.0,0.0,0.0,0.0,0.0,0.0,0.0,-0.0616,0.0451,0.1656,0.1773,0.1821,0.1797,0.1801,0.0,0.0,0.0,0.0,0.0,0.0,0.0,0.0,0.0,0.0,0.0,0.0,0.0,0.5427,0.6311,0.0,0.0,0.0,0.0,0.0,1.0692,1.0692,1.0692,0.0,0.0,0.0,0.0,1.0692,0.0,0.0,0.0,0.0,0.0,0.0,0.0,0.0,1.1067,1.1122,1.1341,1.2467,1.3814,1.4352,1.5802,1.7312,1.7529,1.7582,1.7582,1.7582,1.7582,1.8153,2.0166,2.0987,2.1844,2.3827,2.4538,2.4735,2.4529,2.448,2.439,2.4251,2.4202,2.4102,2.3845,2.3845,2.3438,2.2274,2.3138,2.3079,2.1089,2.1089,2.0853,1.9837,1.8774,1.8122,1.8002,1.8851,1.9665,2.0526,1.9694,1.9642,2.0518,1.8565,1.8146,1.9228,2.0364,2.1038,2.1242,2.1497,2.1599,2.1548,2.0416,2.0416,2.1293,2.2165,2.2476,2.2627,2.3746,2.4202,2.4202,2.4202,2.3646,2.2878,0.0,0.0,0.0,0.0,0.0,0.0,0.0,-0.0056,0.0449,0.163,0.1799,0.1798,0.1795,0.182,0.0,0.0,0.0,0.0,0.0,0.0,0.0,0.0,0.0,0.0,0.0,0.0,0.0,0.5427,0.5481,0.0,0.0,0.0,0.0,0.0,0.0,1.0692,1.0692,1.0692,0.0,0.0,0.0,0.0,0.0,0.0,0.0,0.0,0.0,0.0,0.0,0.0,0.0,1.2413,1.3437,1.3221,1.295,1.5102,1.5914,1.6293,1.7312,1.7582,1.7582,1.7582,1.7582,1.8003,1.9465,2.0585,2.1692,2.312,2.4026,2.4538,2.448,2.4341,2.4202,2.4202,2.4202,2.3845,2.2778,2.2677,2.2266,2.1191,2.2013,2.2165,2.0987,2.1751,2.1724,2.0207,1.9285,1.8555,1.8022,1.9063,1.9535,1.9339,1.9228,1.9228,1.9383,1.8199,1.8146,1.9228,2.0364,2.1395,2.2375,2.3438,2.3895,2.3845,2.2677,2.2266,2.2375,2.2476,2.2476,2.2627,2.3746,2.4202,2.4202,2.4202,2.4152,2.4044,0.0,0.0,0.0,0.0,0.0,0.0,0.0,-0.0448,0.045,0.1649,0.1822,0.1829,0.1848,0.1844,0.1776,0.0,0.0,0.0,0.0,0.0,0.0,0.0,0.0,0.0,0.0,0.0,0.3473,0.4313,0.5037,0.0,0.0,0.0,0.0,0.0,0.0,1.0025,1.0637,0.9919,0.0,0.0,0.0,0.0,0.0,0.0,0.0,0.0,0.0,0.0,1.0852,1.2037,1.2417,0.0,1.462,1.4352,0.0,0.0,1.6399,1.7041,1.7477,1.7582,1.7582,1.7582,1.7582,1.795,1.9361,2.0672,2.1878,2.307,2.4183,2.4883,2.4578,2.443,2.4341,2.4202,0.0,0.0,2.3596,2.3538,2.2878,2.1089,2.1861,2.181,2.0055,2.0446,2.0431,1.9459,1.9246,1.8931,1.8343,1.9774,2.0189,1.9235,1.9849,1.9901,1.9228,1.8153,1.8461,2.021,2.068,2.1446,2.2526,2.2987,2.3188,2.3138,2.2677,2.2887,2.3538,2.3538,2.3538,2.3596,2.3994,2.4202,2.4202,2.4202,2.4202,2.4202,0.0,0.0,0.0,0.0,0.0,0.0,-0.2015,-0.1064,0.0056,0.1596,0.1827,0.1835,0.1856,0.184,0.1819,0.1797,0.0,0.0,0.0,0.0,0.0,0.0,0.0,0.0,0.0,0.0,0.3138,0.3474,0.4424,0.5037,0.0,0.0,0.8033,0.8364,0.0,0.0,0.0,0.0,0.0,0.0,0.0,0.0,0.0,0.0,0.0,0.0,0.0,0.0,0.0,0.0,0.0,0.0,0.0,0.0,0.0,0.0,1.6723,1.7153,1.7529,1.7582,1.7582,1.7582,1.7582,1.7898,1.8952,2.0151,2.1405,2.2601,2.3768,2.4569,2.4529,2.443,2.4341,0.0,0.0,2.4102,2.3746,2.3696,2.2979,2.114,2.1952,2.1765,1.9443,1.9297,1.9234,1.8941,1.9199,1.9277,1.9002,2.0251,2.04,1.9242,2.0004,2.0004,1.9228,1.8461,1.9027,2.0885,2.1242,2.1962,2.2979,2.2979,2.2979,2.2979,2.2979,2.3438,2.4202,2.4202,2.4202,2.4202,2.4202,2.4202,2.4202,2.4202,2.4202,2.4202,0.0,0.0,0.0,0.0,0.0,0.0,0.0,-0.1791,-0.0896,0.1458,0.1795,0.1795,0.1796,0.1795,0.1795,0.1795,0.0,0.0,0.0,0.0,0.0,0.0,0.0,0.0,0.0,0.0,0.2861,0.3081,0.3474,0.4257,0.5427,0.5427,0.6035,0.7138,0.0,0.0,0.0,0.0,0.0,0.0,0.0,0.0,0.0,0.0,0.0,0.0,0.0,0.0,0.0,0.0,0.0,0.0,0.0,0.0,0.0,0.0,1.6776,1.618,1.7312,1.7582,1.7582,1.7582,1.7582,1.7687,1.7964,1.8826,2.004,2.143,2.2341,2.3253,2.4332,2.4341,2.4202,2.4202,2.4202,0.0,2.2677,2.2526,2.2114,2.1038,2.222,2.2088,1.9465,1.8766,1.8611,1.8905,1.9199,1.9606,2.0059,2.0077,1.9833,1.9198,1.9228,1.9228,1.9176,1.9176,1.9746,2.0936,2.1962,2.3088,2.4202,2.4202,2.4202,2.4202,2.4202,2.4202,2.4202,2.4202,2.4202,2.4202,2.4202,2.4202,2.4202,2.4202,2.4202,2.4251,0.0,0.0,0.0,0.0,0.0,0.0,0.0,-0.112,0.0,0.157,0.1795,0.1795,0.1795,0.1795,0.1795,0.1795,0.0,0.0,0.0,0.0,0.0,0.0,0.0,0.0,0.0,0.0,0.2917,0.3418,0.3531,0.3811,0.4201,0.5037,0.5592,0.5924,0.5924,0.6366,0.0,0.0,0.0,0.0,0.0,0.0,1.0692,0.0,0.0,0.0,0.0,0.0,0.0,0.0,0.0,0.0,0.0,0.0,0.0,0.0,0.0,1.7153,1.7477,1.7582,1.7582,1.7582,1.7582,1.7687,1.7964,1.8826,1.9937,2.1175,2.2181,2.3203,2.4143,2.4341,2.4341,2.4202,2.4341,0.0,2.3746,2.2987,2.2114,2.1038,1.9992,1.9151,1.8754,1.859,1.8698,1.9192,1.9847,1.9878,1.9043,2.0204,2.04,1.9242,1.9176,1.9176,1.9176,1.9176,2.0151,2.2013,2.2325,2.3088,2.4202,2.4202,2.4202,2.4202,2.4202,2.4202,2.4202,2.4202,2.4202,2.4202,2.4202,2.4202,2.4202,2.4341,2.439,2.444,0.0,0.0,0.0,0.0,0.0,0.0,0.0,-0.0784,0.0449,0.1627,0.1795,0.1795,0.1795,0.1795,0.1795,0.1795,0.0,0.0,0.0,0.0,0.0,0.0,0.0,0.0,0.0,0.2581,0.2862,0.3253,0.3475,0.3587,0.3643,0.4367,0.4704,0.4704,0.4704,0.5091,0.0,0.0,0.0,0.0,0.0,0.0,1.0692,0.0,0.0,0.0,0.0,0.0,0.0,0.0,0.0,0.0,0.0,0.0,0.0,0.0,1.7582,1.7582,1.7582,1.7582,1.7582,1.7582,1.7582,1.7635,1.7799,1.8415,1.9435,2.0979,2.1937,2.2852,2.4192,2.4587,2.4587,2.4341,2.4489,2.439,2.3646,2.302,2.2257,2.1266,1.9405,1.849,1.9237,1.9264,1.9445,2.0056,2.0422,2.0378,1.9792,1.9947,1.9986,1.9857,1.9849,1.9642,1.9176,2.0055,2.1132,2.2526,2.2929,2.3488,2.4202,2.4202,2.4202,2.4202,2.4202,2.4202,0.0,2.4202,2.4251,2.4291,2.4291,2.439,2.4498,2.4587,2.4627,2.4686,0.0,0.0,0.0,0.0,0.0,0.0,0.0,0.0,0.0,0.0,0.1795,0.1795,0.1795,0.1795,0.1795,0.0,0.0,0.0,0.0,0.0,0.0,0.0,0.0,0.0,0.0,0.2413,0.2693,0.275,0.3309,0.3587,0.3587,0.3587,0.3587,0.3587,0.3587,0.3699,0.0,0.0,0.0,0.0,0.0,0.0,0.0,0.0,0.0,0.0,0.0,0.0,0.0,0.0,0.0,0.0,0.0,0.0,0.0,0.0,0.0,0.0,0.0,1.7582,1.7582,1.7582,1.7582,1.7582,1.7635,0.0,0.0,2.0775,2.1481,2.2341,2.4381,2.4883,2.4833,2.4578,2.4735,2.4381,2.2728,2.2601,2.2317,2.1502,2.0045,1.9555,2.07,2.0509,2.0527,2.1094,2.1006,2.1163,2.1725,1.9488,1.9035,2.0842,2.0885,2.0416,1.9435,2.1446,2.2526,2.2627,2.3696,2.4202,2.4202,2.4202,2.4202,2.4202,2.4202,2.4202,2.4202,2.4251,2.4341,2.4538,2.4538,2.4686,2.4883,2.4932,2.4932,2.499,0.0,0.0,0.0,0.0,0.0,0.0,0.0,0.0,0.0,0.0,0.0,0.1795,0.1795,0.1795,0.0,0.0,0.0,0.0,0.0,0.0,0.0,0.0,0.0,0.0,0.0,0.2637,0.2917,0.3363,0.3531,0.3587,0.3587,0.3587,0.3587,0.3587,0.3587,0.4589,0.0,0.0,0.0,0.0,0.0,0.0,0.0,0.0,0.0,0.0,1.0692,1.0692,0.0,0.0,0.0,0.0,0.0,0.0,0.0,0.0,1.7582,1.7582,1.7582,0.0,1.7582,1.7582,1.7582,1.7635,0.0,0.0,0.0,0.0,2.1081,2.2097,2.342,2.4529,2.5137,2.4833,2.503,2.4627,2.3044,2.1218,2.011,2.0182,1.89,1.9032,2.1798,2.0995,2.0432,2.0772,2.2134,2.2108,2.0316,2.0204,2.0406,2.0885,2.0885,2.1191,2.17,2.2215,2.2929,2.3795,2.4053,2.4202,2.4202,2.4202,2.4202,2.4202,2.4341,2.444,2.444,2.4637,2.4735,2.4784,2.4784,2.4833,2.4932,2.5137,2.5186,2.5235,0.0,0.0,0.0,0.0,0.0,0.0,0.0,0.0,0.0,0.0,0.0,0.0,0.0,0.0,0.0,0.0,0.0,0.0,0.0,0.0,0.0,0.0,0.0,0.0,0.23,0.2413,0.2692,0.3197,0.3307,0.3474,0.3587,0.3587,0.3587,0.3587,0.3587,0.4921,0.0,0.0,0.0,0.0,1.0692,0.0,0.0,0.0,0.0,0.0,1.0692,1.0692,0.0,1.0692,1.0692,1.1122,0.0,0.0,0.0,0.0,1.7582,1.7635,1.7747,1.7799,1.7799,1.7799,1.7905,1.8003,1.8167,0.0,0.0,0.0,2.1234,2.224,2.2802,2.3908,2.4667,2.4381,2.4075,2.3502,2.2475,2.1245,2.0284,1.9784,1.9514,1.9864,2.1102,2.0994,2.0971,2.1252,2.1655,2.1213,1.9817,1.9978,2.0364,2.0885,2.1395,2.1912,2.2476,2.3038,2.3596,2.4202,2.4202,2.4251,2.4341,2.4251,2.4301,2.4498,2.4538,2.4587,2.4677,2.4833,2.4981,2.5088,2.5088,2.5137,2.5284,2.543,2.5489,2.5489,0.0,0.0,0.0,0.0,0.0,0.0,0.0,0.0,0.0,0.0,0.0,0.0,0.0,0.0,0.0,0.0,0.0,0.0,0.0,0.0,0.0,0.0,0.0,0.1795,0.1851,0.2076,0.2356,0.2693,0.297,0.325,0.3531,0.3587,0.3587,0.3587,0.3811,0.5089,0.0,0.0,0.8637,1.0692,1.0692,0.0,0.0,0.0,0.0,0.0,0.0,0.0,0.0,1.0692,1.0692,1.1122,1.3383,0.0,0.0,0.0,0.0,0.0,1.7859,1.7964,1.8016,1.8069,1.822,1.8422,1.8482,0.0,0.0,0.0,0.0,2.224,2.224,2.3135,2.384,2.3768,2.2852,2.1929,2.1499,2.1366,2.0958,1.9992,2.0487,2.0777,2.0416,2.0952,2.1407,2.1646,2.0856,2.0257,1.9993,1.9784,2.021,2.1344,2.2114,2.2577,2.2778,2.3746,2.4202,2.4202,2.4202,2.4301,2.448,2.4341,2.4489,2.4883,2.4686,2.4735,2.4981,2.499,2.5137,2.5333,2.5333,2.5489,2.5693,2.5693,2.5693,2.5693,0.0,0.0,0.0,0.0,0.0,0.0,0.0,0.0,0.0,0.0,0.0,0.0,0.0,0.0,0.0,0.0,0.0,0.0,0.0,0.0,0.0,0.0,0.1795,0.1907,0.2132,0.2188,0.2356,0.2693,0.297,0.3137,0.3194,0.3475,0.3587,0.3643,0.4646,0.5868,0.7193,0.8195,0.9416,1.0692,1.0692,0.0,0.0,0.0,0.0,0.0,0.0,0.0,0.0,1.0692,1.0692,1.1122,1.3383,0.0,0.0,0.0,0.0,0.0,1.7635,1.7852,1.8069,1.8272,1.837,1.8482,1.8757,0.0,0.0,0.0,0.0,0.0,2.114,2.2038,2.3044,2.389,2.2944,2.1676,2.0436,1.9324,1.9246,2.1021,1.944,1.9573,2.3073,2.1637,2.0491,2.0537,2.2009,2.2303,2.0818,2.1522,2.2518,2.3646,2.2929,2.3029,2.4183,2.4192,2.4202,2.4202,2.4202,2.4301,2.448,2.4489,2.4637,2.4932,2.5088,2.5186,2.5235,2.5489,2.5586,2.5635,2.5635,2.5635,2.5693,2.5693,2.5693,2.5693,0.0,0.0,0.0,0.0,0.0,0.0,0.0,0.0,0.0,0.0,0.0,0.0,0.0,0.0,0.0,0.0,0.0,0.0,0.0,0.0,0.0,0.1795,0.1795,0.1851,0.1964,0.1964,0.2132,0.2413,0.2748,0.2971,0.3137,0.4088,0.459,0.4646,0.5813,0.6977,0.8085,0.8644,0.9585,1.0692,0.0,0.0,0.0,0.0,0.0,0.0,0.0,0.0,0.0,0.0,1.0692,1.1122,1.3383,0.0,0.0,0.0,0.0,0.0,1.8227,1.8391,1.8496,1.8646,1.8534,1.8482,1.8817,1.8921,0.0,0.0,2.013,2.0731,2.013,2.0936,2.154,2.1336,2.1887,2.1836,2.0459,2.0423,2.0635,2.0924,2.0471,2.0593,2.1832,2.1374,2.1071,2.1071,2.1837,2.1976,2.1148,2.2013,2.2728,2.3238,2.3388,2.3786,2.448,2.439,2.444,2.4587,2.4587,2.4686,2.4932,2.4784,2.4932,2.5333,2.5294,2.5382,2.5538,2.5645,2.5693,2.5693,2.5693,2.5693,2.5693,2.5693,2.5693,2.5693,0.0,0.0,0.0,0.0,0.0,0.0,0.0,0.0,0.0,0.0,0.0,0.0,0.0,0.0,0.0,0.0,0.0,0.0,0.0,0.0,0.1795,0.1795,0.1795,0.1795,0.1795,0.1851,0.202,0.2188,0.258,0.3083,0.364,0.4869,0.5536,0.5868,0.7033,0.8029,0.8923,0.9199,0.986,1.0692,0.0,0.0,0.0,0.0,0.0,0.0,0.0,0.0,0.0,0.0,0.0,0.0,0.0,0.0,0.0,1.7206,1.8016,1.8122,1.8653,1.8757,1.8757,1.8757,1.8698,1.8639,1.8869,1.8921,1.9078,1.9279,1.9931,2.0285,1.9428,2.0181,2.0585,1.9532,2.0936,2.1633,2.0328,2.1123,2.1454,2.0514,2.0976,2.1179,2.0609,2.1081,2.154,2.1785,2.1844,2.1794,2.1684,2.2518,2.2929,2.2878,2.3786,2.439,2.4578,2.4686,2.4784,2.4883,2.4883,2.5039,2.5284,2.5088,2.5235,2.5693,2.5489,2.5489,2.5693,2.5693,2.5693,2.5693,2.5693,2.5693,2.5693,2.5693,2.5693,2.5693,0.0,0.0,0.0,0.0,0.0,0.0,0.0,0.0,0.0,0.0,0.0,0.0,0.0,0.0,0.0,0.0,0.0,0.0,0.0,0.0,0.1795,0.1795,0.1795,0.1795,0.1795,0.202,0.2188,0.2188,0.2802,0.3808,0.526,0.5371,0.598,0.703,0.8254,0.8809,0.8978,1.0084,1.0637,1.0692,1.0692,0.0,0.0,0.0,0.0,0.0,0.0,0.0,0.0,0.0,0.0,0.0,0.0,0.0,1.462,1.7206,1.8016,1.8069,1.8377,1.8422,1.8422,1.8422,1.8848,1.9175,1.8974,1.9071,1.9279,1.9279,1.9376,1.9376,1.9324,2.0181,2.0885,2.0783,2.0885,2.0534,1.9175,1.91,1.9405,2.0034,1.9272,1.9524,2.1735,2.114,2.0987,2.1988,2.2961,2.3311,2.2793,2.3759,2.4291,2.4093,2.4341,2.4587,2.4883,2.5137,2.5137,2.4883,2.4883,2.5039,2.5284,2.5284,2.544,2.5693,2.5684,2.5684,2.5693,2.5693,2.5693,2.5693,2.5693,2.5693,2.5693,2.5693,2.5693,2.5693,0.0,0.0,0.0,0.0,0.0,0.0,0.0,0.0,0.0,0.0,0.0,0.0,0.0,0.0,0.0,0.0,0.0,0.0,0.0,0.0,0.1795,0.1795,0.1795,0.1851,0.202,0.2132,0.2188,0.2188,0.3583,0.4975,0.6478,0.7202,0.7811,0.8254,0.9471,1.0025,1.0029,1.0523,1.0692,1.0692,1.0692,1.0692,0.0,0.0,0.0,0.0,0.0,0.0,0.0,0.0,1.0692,1.1122,0.0,1.4078,1.4669,1.7411,1.8272,1.8325,1.8848,1.8952,1.8907,1.8757,1.9018,1.9227,1.8974,1.8974,1.9078,1.9279,1.9279,1.9279,1.9279,1.9628,1.9931,1.9931,1.9931,1.9732,1.9227,1.913,1.9532,2.0483,2.0225,2.057,2.2181,2.2593,2.2634,2.2391,2.3818,2.4332,2.3461,2.4273,2.4686,2.4646,2.4686,2.4883,2.5137,2.5235,2.5333,2.5391,2.5391,2.543,2.5538,2.5538,2.5586,2.5693,2.5693,2.5693,2.5693,2.5693,2.5693,2.5693,2.5693,2.5693,2.5693,2.5693,2.5693,2.5693,0.0,0.0,0.0,0.0,0.0,0.0,0.0,0.0,0.0,0.0,0.0,0.0,0.0,0.0,0.0,0.0,0.0,0.0,0.0,0.1795,0.1795,0.1795,0.1907,0.202,0.2188,0.2746,0.3026,0.3026,0.4752,0.6308,0.7695,0.853,0.9089,0.953,1.0304,1.0692,1.0692,1.0692,1.0692,1.0692,1.0692,1.0692,0.0,0.0,0.0,0.0,0.0,0.0,0.0,0.0,1.0692,1.1017,0.0,0.0,1.4245,1.6929,1.7628,1.7621,1.8311,1.8527,1.8579,1.8377,0.0,1.913,1.9026,1.9026,1.9078,1.9279,1.9279,1.9376,1.9732,1.9532,1.9428,1.9724,1.9532,1.9279,1.9279,1.9576,2.0078,2.0834,2.1183,2.1684,2.2442,2.3135,2.3434,2.3035,2.4205,2.4726,2.4233,2.4735,2.499,2.4883,2.4981,2.5137,2.5284,2.5382,2.5538,2.5693,2.5693,2.5693,2.5693,2.5693,2.5693,2.5693,2.5693,2.5693,2.5693,2.5693,2.5693,2.5693,2.5693,2.5693,2.5693,2.5693,2.5693,2.5693,0.0,0.0,0.0,0.0,0.0,0.0,0.0,0.0,0.0,0.0,0.0,0.0,0.0,0.0,0.0,0.0,0.0,0.0,0.0,0.1795,0.1795,0.1795,0.2076,0.2188,0.2244,0.4029,0.4921,0.4921,0.642,0.775,0.8923,0.8923,0.953,1.0692,1.0692,1.0692,1.0692,1.0692,1.0692,1.0692,1.0692,1.0692,1.0692,0.0,0.0,0.0,0.0,0.0,0.0,0.0,1.0692,1.0907,0.0,0.0,0.0,1.5595,1.5873,1.5601,1.644,1.6863,1.7081,1.7081,1.8003,1.8974,1.9227,1.9279,1.9279,1.9279,1.9279,1.9628,2.0688,2.0034,1.9628,2.0731,1.9983,1.9279,1.9279,2.0233,2.0885,2.0885,2.1836,2.2492,2.2484,2.2492,2.2935,2.3989,2.4088,2.4452,2.5235,2.5284,2.5186,2.4932,2.5186,2.5284,2.5284,2.5586,2.5693,2.5693,2.5693,2.5693,2.5693,2.5693,2.5693,2.5693,2.5693,2.5693,2.5693,2.5693,2.5693,2.5693,2.5693,2.5693,2.5693,2.5693,2.5693,2.5693,0.0,0.0,0.0,0.0,0.0,0.0,0.0,0.0,0.0,0.0,0.0,0.0,0.0,0.0,0.0,0.0,0.0,0.0,0.0,0.1795,0.1795,0.1795,0.2076,0.269,0.3804,0.6362,0.7697,0.7697,0.8143,0.8975,1.0194,1.0194,1.0359,1.0692,1.0692,1.0692,1.0692,1.0692,1.0692,1.0692,1.0692,1.0692,1.0692,0.0,0.0,0.0,0.0,0.0,0.0,0.0,0.0,0.0,0.0,0.0,0.0,1.4626,1.5007,1.5007,1.5636,1.5843,1.6168,1.7199,1.774,1.822,1.9116,1.9279,1.9279,1.9279,1.9279,1.9376,1.9732,1.9524,1.9376,1.9732,1.9532,1.9279,1.9279,1.9576,2.0027,2.0834,2.1183,2.1684,2.2442,2.3185,2.3434,2.2994,2.4362,2.502,2.4501,2.5177,2.5538,2.5489,2.5538,2.5586,2.5586,2.5635,2.5693,2.5693,2.5693,2.5693,2.5693,2.5693,2.5693,2.5693,2.5693,2.5693,2.5693,2.5693,2.5693,2.5693,2.5693,2.5693,2.5693,2.5693,2.5693,2.5693,0.0,0.0,0.0,0.0,0.0,0.0,0.0,0.0,0.0,0.0,0.0,0.0,0.0,0.0,0.0,0.0,0.0,0.0,0.0,0.0,0.1888,0.206,0.2802,0.4208,0.631,0.8106,0.92,0.964,0.964,0.9974,1.0692,1.0692,1.0692,1.0692,1.0692,1.0692,1.0692,1.0692,1.0692,1.0692,1.0692,1.0692,1.0692,0.0,0.0,0.0,0.0,0.0,0.0,0.0,0.0,0.0,0.0,0.0,0.0,1.3334,1.3609,1.3555,1.4078,1.44,1.4888,1.6227,1.6982,1.7733,1.9011,1.9279,1.9279,1.9279,1.9279,1.9279,1.9279,1.9279,1.9279,1.9279,1.9279,1.9279,1.9279,1.968,2.0181,2.0834,2.1285,2.1785,2.2433,2.3085,2.3384,2.3135,2.4353,2.4962,2.4756,2.5323,2.5693,2.5693,2.5693,2.5693,2.5693,2.5693,2.5693,2.5693,2.5693,2.5693,2.5693,2.5693,2.5693,2.5693,2.5693,2.5693,2.5693,2.5693,2.5693,2.5693,2.5693,2.5693,2.5693,2.5693,2.5693,2.5693,0.0,0.0,0.0,0.0,0.0,0.0,0.0,0.0,0.0,0.0,0.0,0.0,0.0,0.0,0.0,0.0,0.0,0.0,0.0,0.0,0.2062,0.2534,0.4231,0.6404,0.9104,0.9313,0.9805,1.0716,1.07,1.0692,1.0692,1.0692,1.0692,1.0692,1.0692,1.0692,1.0692,1.0692,1.0692,1.0692,1.0692,1.0692,1.0692,1.0692,0.0,0.0,0.0,0.0,0.0,0.0,0.0,0.0,1.0692,1.0857,1.1236,1.1987,1.1887,1.1618,1.215,1.2689,1.3393,1.4615,1.6009,1.7509,1.8959,1.9279,1.9279,1.9279,1.9279,1.9279,1.9279,1.9279,1.9279,1.9279,1.9279,1.9279,1.9279,2.013,2.0731,2.0731,2.1633,2.224,2.2341,2.2433,2.2935,2.4038,2.4196,2.4658,2.5635,2.5693,2.5693,2.5693,2.5693,2.5693,2.5693,2.5693,2.5693,2.5693,2.5693,2.5693,2.5693,2.5693,2.5693,2.5693,2.5693,2.5693,2.5693,2.5693,2.5693,2.5693,2.5693,2.5693,2.5693,2.5693,2.5693,2.5693,0.0,0.0,0.0,0.0,0.0,0.0,0.0,0.0,0.0,0.0,0.0,0.0,0.0,0.0,0.0,0.0,0.0,0.0,0.0,0.0,0.2356,0.3471,0.6215,0.8125,0.9032,1.0061,1.0719,1.0967,1.0765,1.0692,1.0692,1.0692,1.0692,1.0692,1.0692,1.0692,1.0692,1.0692,1.0692,1.0692,1.0692,1.0692,1.0692,1.0692,1.0692,0.0,0.0,0.0,0.0,0.0,0.0,0.0,1.0692,1.0747,1.0802,1.1017,1.0962,1.0966,1.1286,1.1669,1.2268,1.3663,1.5755,1.7786,1.9011,1.9279,1.9279,1.9279,1.9279,1.9279,1.9279,1.9279,1.9279,1.9279,1.9279,1.9279,1.9279,1.948,1.9628,1.9628,1.9835,2.0336,2.1132,2.1988,2.2935,2.4038,2.4864,2.5479,2.5693,2.5693,2.5693,2.5693,2.5693,2.5693,2.5693,2.5693,2.5693,2.5693,2.5693,2.5693,2.5693,2.5693,2.5693,2.5693,2.5693,2.5693,2.5693,2.5693,2.5693,2.5693,2.5693,2.5693,2.5693,2.5693,2.5693,2.5693,0.0,0.0,0.0,0.0,0.0,0.0,0.0,0.0,0.0,0.0,0.0,0.0,0.0,0.0,0.0,0.0,0.0,0.0,0.0,0.0,0.0,0.0,0.7008,0.8648,1.0182,1.0777,1.1049,1.1024,1.0785,1.0692,1.0692,1.0692,1.0692,1.0692,1.0692,1.0692,1.0692,1.0692,1.0692,1.0692,1.0692,1.0692,1.0692,1.0692,1.0692,1.0692,1.0692,0.0,0.0,0.0,0.0,0.0,0.0,0.0,1.0747,1.0857,1.0911,1.0907,1.1072,1.1459,1.2164,1.357,1.5761,1.774,1.8325,1.8907,1.9279,1.9279,1.9279,1.9279,1.9279,1.9279,1.9279,1.9279,1.9279,1.9279,1.9279,1.9279,1.9279,1.9279,1.9279,1.9732,2.0783,2.1387,2.2383,2.3989,2.4599,2.5177,2.5684,2.5693,2.5693,2.5693,2.5693,2.5693,2.5693,2.5693,2.5693,2.5693,2.5693,2.5693,2.5693,2.5693,2.5693,2.5693,2.5693,2.5693,2.5693,2.5693,2.5693,2.5693,2.5693,2.5693,2.5693,2.5693,2.5693,2.5693,0.0,0.0,0.0,0.0,0.0,0.0,0.0,0.0,0.0,0.0,0.0,0.0,0.0,0.0,0.0,0.0,0.0,0.0,0.0,0.0,0.0,0.0,0.7667,0.9077,1.1426,1.1275,1.1151,1.1013,1.0798,1.0692,1.0692,1.0692,1.0692,1.0692,1.0692,1.0692,1.0692,1.0692,1.0692,1.0692,1.0692,1.0692,1.0692,1.0692,1.0692,1.0692,1.0692,1.0692,1.0692,1.0692,0.0,0.0,0.0,0.0,1.0747,1.1017,1.1072,1.1126,1.1185,1.1564,1.2327,1.384,1.5607,1.71,1.7529,1.8325,1.9063,1.9272,1.9279,1.9279,1.9279,1.9279,1.9279,1.9279,1.9279,1.9279,1.9279,1.9279,1.9279,1.9279,1.9279,1.9732,2.0783,2.0885,2.1785,2.3939,2.4088,2.4559,2.5635,2.5693,2.5693,2.5693,2.5693,2.5693,2.5693,2.5693,2.5693,2.5693,2.5693,2.5693,2.5693,2.5693,2.5693,2.5693,2.5693,2.5693,2.5693,2.5693,2.5693,2.5693,2.5693,2.5693,2.5693,2.5693,2.5693,2.5693,0.0,0.0,0.0,0.0,0.0,0.0,0.0,0.0,0.0,0.0,0.0,0.0,0.0,0.0,0.0,0.0,0.0,0.0,0.0,0.0,0.0,0.0,0.9562,1.0653,1.1298,1.1219,1.1212,1.1187,1.0854,1.0692,1.0692,1.0692,1.0692,1.0692,1.0692,1.0692,1.0692,1.0692,1.0692,1.0692,1.0692,1.0692,1.0692,1.0692,1.0692,1.0692,1.0692,1.0692,1.0692,1.0692,1.0692,0.0,0.0,0.0,1.0747,1.1017,1.1072,1.1181,1.1459,1.1787,1.2327,1.384,1.4439,1.5185,1.7153,1.774,1.8108,1.9116,1.9279,1.9279,1.9279,1.9279,1.9279,1.9279,1.9279,1.9279,1.9279,1.9279,1.9279,1.9279,1.9279,1.9732,2.0783,2.0885,2.1785,2.3939,2.4088,2.4559,2.5635,2.5693,2.5693,2.5693,2.5693,2.5693,2.5693,2.5693,2.5693,2.5693,2.5693,2.5693,2.5693,2.5693,2.5693,2.5693,2.5693,2.5693,2.5693,2.5693,2.5693,2.5693,2.5693,2.5693,2.5693,2.5693,2.5693,2.5693,0.0,0.0,0.0,0.0,0.0,0.0,0.0,0.0,0.0,0.0,0.0,0.0,0.0,0.0,0.0,0.0,0.0,0.0,0.0,0.0,0.0,0.8517,0.9441,1.0482,1.1587,1.1348,1.1224,1.1224,1.0867,1.0692,1.0692,1.0692,1.0692,1.0692,1.0692,1.0692,1.0692,1.0692,1.0692,1.0692,1.0692,1.0692,1.0692,1.0692,1.0692,1.0692,1.0692,1.0692,1.0692,1.0692,1.0692,1.0692,1.0692,0.0,0.0,0.0,1.14,1.1459,1.1951,1.2001,1.2164,1.298,1.3684,1.4648,1.6293,1.7147,1.7898,1.9063,1.9279,1.9279,1.9279,1.9279,1.9279,1.9279,1.9279,1.9279,1.9279,1.9279,1.9279,1.9279,1.9279,1.948,1.9983,1.9983,2.0885,2.3035,2.3185,2.3949,2.5586,2.5693,2.5693,2.5693,2.5693,2.5693,2.5693,2.5693,2.5693,2.5693,2.5693,2.5693,2.5693,2.5693,2.5693,2.5693,2.5693,2.5693,2.5693,2.5693,2.5693,2.5693,2.5693,2.5693,2.5693,2.5693,2.5693,2.5693,0.0,0.0,0.0,0.0,0.0,0.0,0.0,0.0,0.0,0.0,0.0,0.0,0.0,0.0,0.0,0.0,0.0,0.0,0.0,0.0,0.0,0.937,0.9684,1.0404,1.1707,1.1386,1.12,1.1155,1.0846,1.0692,1.0692,1.0692,1.0692,1.0692,1.0692,1.0692,1.0692,1.0692,1.0692,1.0692,1.0692,1.0692,1.0692,1.0692,1.0692,1.0692,1.0692,1.0692,1.0692,1.0692,1.0692,1.0692,1.0692,1.0692,0.0,0.0,0.0,1.1787,1.2273,1.2278,1.2169,1.2327,1.3088,1.4056,1.5227,1.6346,1.747,1.8639,1.9116,1.9279,1.9279,1.9279,1.9279,1.9279,1.9279,1.9279,1.9279,1.9279,1.9279,1.9279,1.9279,1.9279,1.9279,1.9279,2.0181,2.2341,2.2484,2.3452,2.5586,2.5693,2.5693,2.5693,2.5693,2.5693,2.5693,2.5693,2.5693,2.5693,2.5693,2.5693,2.5693,2.5693,2.5693,2.5693,2.5693,2.5693,2.5693,2.5693,2.5693,2.5693,2.5693,2.5693,2.5693,2.5693,2.5693,2.5693,0.0,0.0,0.0,0.0,0.0,0.0,0.0,0.0,0.0,0.0,0.0,0.0,0.0,0.4886,0.5708,0.5712,0.0,0.0,0.0,0.0,0.0,1.1088,1.1212,0.0,1.1516,1.1321,1.1143,1.098,1.0789,1.0692,1.0692,1.0692,1.0692,1.0692,1.0692,1.0692,1.0692,1.0692,1.0692,1.0692,1.0692,1.0692,1.0692,1.0692,1.0692,1.0692,1.0692,1.0692,1.0692,1.0692,1.0692,1.0692,1.0692,1.0692,1.0747,0.0,0.0,0.0,1.2332,1.2382,1.2382,1.2387,1.2441,1.2817,1.4002,1.5173,1.6293,1.747,1.8534,1.9279,1.9279,1.9279,1.9279,1.9279,1.9279,1.9279,1.9279,1.9279,1.9279,1.9279,1.9279,1.9279,1.9279,1.9279,2.0181,2.2341,2.2484,2.3452,2.5586,2.5693,2.5693,2.5693,2.5693,2.5693,2.5693,2.5693,2.5693,2.5693,2.5693,2.5693,2.5693,2.5693,2.5693,2.5693,2.5693,2.5693,2.5693,2.5693,2.5693,2.5693,2.5693,2.5693,2.5693,2.5693,2.5693,2.5693,0.0,0.0,0.0,0.0,0.0,0.0,0.0,0.0,0.0,0.0,0.0,0.0,0.0,0.6068,0.6571,0.6571,0.7299,0.0,0.0,0.0,0.0,1.1121,1.1292,1.139,1.1325,1.1147,1.1029,1.1024,1.0785,1.0692,1.0692,1.0692,1.0692,1.0692,1.0692,1.0692,1.0692,1.0692,1.0692,1.0692,1.0692,1.0692,1.0692,1.0692,1.0692,1.0692,1.0692,1.0692,1.0747,1.0911,1.0966,1.0966,1.0966,1.0966,1.1017,1.135,1.1678,1.2219,1.3251,1.3576,1.3576,1.3576,1.3576,1.3684,1.4116,1.4541,1.5339,1.7206,1.7898,1.8429,1.9168,1.9279,1.9279,1.9279,1.9279,1.9279,1.9279,1.9279,1.9279,1.9279,1.9279,1.9279,1.9279,1.9279,2.0181,2.2341,2.2484,2.3452,2.5586,2.5693,2.5693,2.5693,2.5693,2.5693,2.5693,2.5693,2.5693,2.5693,2.5693,2.5693,2.5693,2.5693,2.5693,2.5693,2.5693,2.5693,2.5693,2.5693,2.5693,2.5693,2.5693,2.5693,2.5693,2.5693,2.5693,2.5693,0.0,0.0,0.0,0.0,0.0,0.0,0.0,0.0,0.0,0.0,0.0,0.0,0.0,0.0,0.8201,0.8101,0.89,0.9831,1.0681,1.1098,1.1229,1.1059,1.129,1.1321,1.1143,1.1082,1.0997,1.0875,1.0814,1.0753,1.0692,1.0692,1.0692,1.0692,1.0692,1.0692,1.0692,1.0692,1.0692,1.0692,1.0692,1.0692,1.0692,1.0692,1.0692,1.0692,1.0802,1.0857,1.0857,1.1185,1.1181,1.1131,1.1236,1.1295,1.1345,1.1623,1.1841,1.2327,1.3792,1.4223,1.4277,1.4696,1.475,1.4643,1.4277,1.4809,1.566,1.6776,1.7628,1.8377,1.9168,1.9279,1.9279,1.9279,1.9279,1.9279,1.9279,1.9279,1.9279,1.9279,1.9279,1.9279,1.9279,1.9279,2.0181,2.2341,2.2484,2.3452,2.5586,2.5693,2.5693,2.5693,2.5693,2.5693,2.5693,2.5693,2.5693,2.5693,2.5693,2.5693,2.5693,2.5693,2.5693,2.5693,2.5693,2.5693,2.5693,2.5693,2.5693,2.5693,2.5693,2.5693,2.5693,2.5693,2.5693,2.5693,0.0,0.0,0.0,0.0,0.0,0.0,0.0,0.0,0.0,0.6861,0.0,0.0,0.0,0.0,0.0,1.0573,1.0638,1.0713,1.0713,1.0993,1.122,1.1216,0.0,0.0,0.0,0.0,0.0,0.0,0.0,0.0,0.0,1.0692,1.0692,1.0692,1.0692,1.0692,1.07,1.0692,1.0692,1.0692,1.0692,1.0692,1.0692,1.0692,1.0692,1.0747,1.1017,1.1126,1.1185,1.1514,1.1404,1.1181,1.1514,1.1678,1.1728,1.2001,1.211,1.2436,0.0,0.0,0.0,1.5648,1.5968,1.5648,1.4487,1.598,1.7259,1.618,1.7726,1.9272,1.9272,1.9279,1.9279,1.9279,1.9279,1.9279,1.9279,1.9279,1.9279,1.9279,1.9279,1.9279,1.9279,1.9279,2.0181,2.2282,2.2433,2.3402,2.5538,2.5684,2.5693,2.5693,2.5693,2.5693,2.5693,2.5693,2.5693,2.5693,2.5693,2.5693,2.5693,2.5693,2.5693,2.5693,2.5693,2.5693,2.5693,2.5693,2.5693,2.5693,2.5693,2.5693,2.5693,2.5693,2.5693,2.5693,0.0,0.0,0.0,0.0,0.0,0.0,0.0,0.0,0.0,0.0,0.0,0.0,1.0594,1.1129,1.1511,1.1463,1.1351,1.1306,1.1306,1.1239,1.1167,1.1045,1.1037,1.0952,0.0,0.0,0.0,0.0,0.0,0.0,0.0,0.0,0.0,1.0692,1.0692,1.0765,1.0883,1.0749,1.0692,1.0692,1.0692,1.0802,1.0966,1.0966,1.1131,1.135,1.1459,1.1459,1.1514,1.1787,1.1678,1.1618,1.2536,1.3393,1.4132,1.44,1.446,1.4781,1.624,0.0,0.0,0.0,0.0,0.0,1.5707,1.5921,1.6505,1.7041,1.7635,1.8325,1.9168,1.9279,1.9279,1.9279,1.9279,1.9279,1.9279,1.9279,1.9279,1.9279,1.9279,1.9279,1.9279,1.9279,1.9879,2.1234,2.1336,2.2291,2.4452,2.5274,2.5693,2.5693,2.5693,2.5693,2.5693,2.5693,2.5693,2.5693,2.5693,2.5693,2.5693,2.5693,2.5693,2.5693,2.5693,2.5693,2.5693,2.5693,2.5693,2.5693,2.5693,2.5693,2.5693,2.5693,2.5693,2.5693,0.0,0.0,0.0,0.0,0.0,0.0,0.0,0.0,0.0,0.0,0.0,0.0,1.1522,1.1583,1.1663,1.1663,1.1492,1.1382,1.1382,1.1281,1.1179,1.1078,1.1074,1.0992,1.081,0.0,0.0,0.0,0.0,0.0,0.0,0.0,0.0,0.0,1.0806,1.0907,1.107,1.096,1.0911,1.0907,1.0945,1.1083,1.124,1.127,1.1459,1.1623,1.1732,1.1787,1.1787,1.206,1.2382,1.2758,1.3295,1.4358,1.5423,1.5583,1.5583,1.5908,1.7259,1.7582,1.7687,1.8213,0.0,0.0,1.6882,1.6982,1.7351,1.7582,1.7957,1.8534,1.9168,1.9279,1.9279,1.9279,1.9279,1.9279,1.9279,1.9279,1.9279,1.9279,1.9279,1.9279,1.9279,1.9279,1.9732,2.0834,2.0885,2.1836,2.3989,2.5118,2.5693,2.5693,2.5693,2.5693,2.5693,2.5693,2.5693,2.5693,2.5693,2.5693,2.5693,2.5693,2.5693,2.5693,2.5693,2.5693,2.5693,2.5693,2.5693,2.5693,2.5693,2.5693,2.5693,2.5693,2.5693,2.5693,0.0,0.0,0.0,0.0,0.0,0.0,0.0,0.0,0.0,0.0,1.1776,1.1776,1.1776,1.163,1.1529,1.1529,1.1362,1.1252,1.1252,1.1232,1.1224,1.1224,1.1224,1.1151,1.1001,0.0,0.0,0.0,0.0,0.0,0.0,0.0,0.0,0.0,0.0,0.0,1.1252,1.1252,1.1322,1.1322,1.1414,1.1443,1.1539,1.1645,1.1731,1.1763,1.1982,1.2078,1.206,1.2278,1.3197,1.4164,1.3943,1.4793,1.5968,1.618,1.618,1.6346,1.747,1.7793,1.8003,1.9063,1.9279,0.0,1.8003,1.8586,1.9011,1.8003,1.8586,1.9279,1.9279,1.9279,1.9279,1.9279,1.9279,1.9279,1.9279,1.9279,1.9279,1.9279,1.9279,1.9279,1.9279,1.9279,1.968,2.0629,2.0936,2.1937,2.384,2.5069,2.5693,2.5693,2.5693,2.5693,2.5693,2.5693,2.5693,2.5693,2.5693,2.5693,2.5693,2.5693,2.5693,2.5693,2.5693,2.5693,2.5693,2.5693,2.5693,2.5693,2.5693,2.5693,2.5693,2.5693,2.5693,2.5693,0.0,0.0,0.0,0.0,0.0,0.0,0.0,0.0,0.0,1.1776,1.1776,1.1776,1.1776,1.1744,1.1723,1.1723,1.1553,1.1447,1.1447,1.1305,1.1224,1.1224,1.1224,1.1208,1.1175,1.1204,0.0,0.0,0.0,0.0,0.0,0.0,0.0,0.0,0.0,1.1273,1.1443,1.1741,1.1938,1.198,1.1765,1.192,1.2372,1.2388,1.2449,1.259,1.265,1.2532,1.2278,1.2114,1.3034,1.4326,1.4894,1.5429,1.6287,1.8101,1.7996,1.7523,1.8639,1.8959,1.9011,1.922,1.9279,0.0,1.9011,1.9116,1.922,1.9011,1.9168,1.9279,1.9279,1.9279,1.9279,1.9279,1.9279,1.9279,1.9279,1.9279,1.9279,1.9279,1.9279,1.9279,1.9279,1.9279,1.9376,1.9576,2.1234,2.2383,2.2793,2.4667,2.5693,2.5693,2.5693,2.5693,2.5693,2.5693,2.5693,2.5693,2.5693,2.5693,2.5693,2.5693,2.5693,2.5693,2.5693,2.5693,2.5693,2.5693,2.5693,2.5693,2.5693,2.5693,2.5693,2.5693,2.5693,2.5693,0.0,0.0,0.0,0.0,0.0,0.0,0.0,0.0,0.0,1.1776,1.1776,1.1776,1.1776,1.1776,1.1776,1.1776,1.1691,0.0,1.1638,1.1549,1.15,1.15,1.15,1.1455,1.1362,1.1362,1.1317,0.0,0.0,0.0,0.0,0.0,0.0,0.0,0.0,1.2038,1.2798,1.3159,1.3803,1.4455,1.2925,1.2467,1.2748,1.2816,1.2889,1.2975,1.2975,1.2781,1.2587,1.2315,1.3457,1.5013,1.4846,1.6074,1.7726,1.8265,1.8429,1.8586,1.9116,1.9279,1.9279,1.9279,1.9279,0.0,0.0,1.9279,1.9279,1.9279,1.9279,1.9279,1.9279,1.9279,1.9279,1.9279,1.9279,1.9279,1.9279,1.9279,1.9279,1.9279,1.9279,1.9279,1.9279,1.9279,1.9279,1.9279,2.1285,2.2291,2.1735,2.4264,2.543,2.4913,2.543,2.5693,2.5693,2.5693,2.5693,2.5693,2.5693,2.5693,2.5693,2.5693,2.5693,2.5693,2.5693,2.5693,2.5693,2.5693,2.5693,2.5693,2.5693,2.5693,2.5693,2.5693,2.5693,2.5693,1.131,0.0,0.0,0.0,0.0,0.0,0.0,0.0,0.0,1.1776,1.1776,1.1776,1.1776,1.1776,1.1776,1.1776,1.1776,0.0,1.1776,1.1776,1.1776,1.1776,1.1776,1.1707,1.1557,1.1553,1.148,0.0,0.0,0.0,0.0,0.0,0.0,0.0,0.0,1.2862,1.4242,1.4545,1.5435,1.648,1.4315,1.3551,1.3766,1.3649,1.3724,1.3851,1.3811,1.3662,1.3457,1.3312,1.444,1.5767,1.5123,1.6655,1.8527,1.8055,1.8429,1.9011,1.922,1.9279,1.9279,1.9279,1.9279,1.9279,0.0,0.0,0.0,1.9279,1.9279,1.9279,1.9279,1.9279,1.9279,1.9279,1.9279,1.9279,1.9279,1.9279,1.9279,1.9279,1.9279,1.9279,1.9279,1.9279,1.9279,1.9279,2.1081,2.1836,2.0936,2.3759,2.4962,2.4137,2.5118,2.5693,2.5693,2.5693,2.5693,2.5693,2.5693,2.5693,2.5693,2.5693,2.5693,2.5693,2.5693,2.5693,2.5693,2.5693,2.5693,2.5693,2.5693,2.5693,2.5693,2.5693,2.5693,2.5693,1.1708,1.1712,0.0,0.0,0.0,0.0,0.0,0.0,0.0,1.1776,1.1776,1.1776,1.1776,1.1776,1.1776,1.1776,1.1776,1.1776,1.1776,1.1776,1.1776,1.1776,1.1776,1.1764,1.1744,1.1744,1.1736,1.1711,0.0,0.0,0.0,0.0,0.0,0.0,1.2148,1.3044,1.4545,1.4906,1.5144,1.5322,1.5306,1.5939,1.6751,1.5735,1.5873,1.6618,1.6449,1.6151,1.5955,1.6218,1.6138,1.6111,1.7206,1.6961,1.6664,1.8527,1.8482,1.8003,1.9011,1.9279,1.9279,1.9279,1.9279,1.9279,1.9279,0.0,1.9279,1.9279,0.0,1.9279,1.9279,0.0,0.0,1.9279,1.9279,1.9279,1.9279,1.9279,1.9279,1.9279,1.9279,1.9279,1.9279,1.9279,1.9279,1.9279,2.0439,2.1038,2.0885,2.3044,2.4245,2.4088,2.5118,2.5693,2.5693,2.5693,2.5693,2.5693,2.5693,2.5693,2.5693,2.5693,2.5693,2.5693,2.5693,2.5693,2.5693,2.5693,2.5693,2.5693,2.5693,2.5693,2.5693,2.5693,2.5693,2.5693,1.1776,1.1776,1.1776,0.0,0.0,0.0,0.0,0.0,0.0,1.1776,1.1776,1.1776,1.1776,1.1776,1.1776,1.1776,1.1776,1.1776,1.1776,1.1776,1.1776,1.1776,1.1776,1.1776,1.1776,1.1776,1.1776,1.1776,1.1776,0.0,0.0,0.0,0.0,0.0,1.2951,1.3963,1.602,1.6321,1.6856,1.756,1.7683,1.85,1.9325,1.6626,1.6323,1.7237,1.7029,1.6859,1.6732,1.6594,1.6923,1.7312,1.6892,1.7402,1.8169,1.8268,1.8429,1.8691,1.9168,1.9279,1.9279,1.9279,1.9279,1.9279,1.9279,1.9279,1.9279,1.9279,0.0,0.0,0.0,0.0,0.0,0.0,1.9279,1.9279,1.9279,1.9279,1.9279,1.9279,1.9279,1.9279,1.9279,1.9279,1.9279,1.9279,2.0277,2.0637,1.9983,2.2584,2.3791,2.3185,2.4824,2.5693,2.5693,2.5693,2.5693,2.5693,2.5693,2.5693,2.5693,2.5693,2.5693,2.5693,2.5693,2.5693,2.5693,2.5693,2.5693,2.5693,2.5693,2.5693,2.5693,2.5693,2.5693,2.5693,1.1776,1.1776,1.1776,1.1776,0.0,0.0,0.0,0.0,1.2191,1.1837,1.207,1.2191,1.1837,1.1776,1.1776,1.1776,1.1776,1.1776,1.1776,1.1776,1.1776,1.1776,1.1776,1.1833,1.1893,1.1893,1.1953,1.2074,0.0,0.0,0.0,0.0,0.0,0.0,1.4257,1.5327,1.7144,1.7677,1.8092,1.8325,1.9029,1.9853,2.0443,1.804,1.7449,1.7944,1.8141,1.8135,1.802,1.7749,1.8172,1.8639,1.7479,1.8276,1.9473,1.8387,1.8639,1.9279,1.9279,1.9279,1.9279,1.9279,1.9279,1.9279,1.9279,1.9279,1.9279,1.9279,1.9279,0.0,0.0,0.0,1.9279,1.9279,0.0,1.9279,1.9279,1.9279,1.9279,1.9279,1.9279,1.9279,1.9279,1.9279,1.9279,1.9279,2.0034,2.013,1.9324,2.1785,2.2985,2.2534,2.4313,2.5382,2.5693,2.5693,2.5693,2.5693,2.5693,2.5693,2.5693,2.5693,2.5693,2.5693,2.5693,2.5693,2.5693,2.5693,2.5693,2.5693,2.5693,2.5693,2.5693,2.5693,2.5732,2.583,1.1776,1.1776,1.1776,1.1776,1.1776,0.0,0.0,1.284,1.3195,1.1953,1.29,1.3195,1.1957,1.1776,1.1776,1.1776,1.1776,1.1776,1.1776,1.1776,1.1776,1.1776,1.1776,1.1889,1.2178,1.2178,1.2359,1.2659,0.0,0.0,0.0,0.0,0.0,0.0,1.6321,1.7085,1.7443,1.8739,1.7858,1.5924,1.8325,1.9325,1.9499,2.0622,2.0263,1.9383,2.0608,2.0878,2.0652,2.0943,2.0489,1.9767,2.0004,1.973,1.9294,1.9279,1.9272,1.9279,1.9279,1.9279,1.9279,1.9279,1.9279,1.9279,1.9279,1.9279,1.9279,1.9279,1.9279,1.9279,1.9279,1.9279,1.9279,0.0,1.9279,0.0,0.0,1.9279,1.9279,1.9279,1.9279,1.9279,1.9279,1.9279,1.9279,1.9279,1.9324,1.9324,1.9279,2.038,2.1438,2.2492,2.3592,2.4658,2.5684,2.5693,2.5693,2.5693,2.5693,2.5693,2.5693,2.5693,2.5693,2.5693,2.5693,2.5693,2.5693,2.5693,2.5693,2.5693,2.5693,2.5693,2.5693,2.5693,2.5868,2.61,1.4242,1.4326,1.3799,1.2074,1.2487,1.3315,1.4212,1.3963,1.355,1.3135,1.2724,1.2603,1.302,1.3075,1.3375,1.4267,1.4326,1.4326,1.4326,1.3674,1.3255,1.3075,1.2603,1.2715,1.3412,1.3655,1.4247,1.5192,1.5192,0.0,0.0,0.0,0.0,0.0,1.7319,1.7793,1.8674,1.9145,1.8797,1.8208,1.9853,2.0033,1.9441,2.0737,2.0917,2.0622,2.1031,2.1137,2.1028,2.0925,2.0669,2.034,2.0025,1.9777,1.961,1.9397,1.9279,1.9279,1.9279,1.9279,1.9279,1.9279,1.9279,1.9279,1.9279,1.9279,1.9279,1.9279,1.9279,1.9279,1.9279,1.9279,0.0,0.0,0.0,1.9279,0.0,1.9279,1.9279,1.9279,1.9279,1.9279,1.9279,1.9279,1.9279,1.9279,1.9279,1.9279,1.9279,2.0336,2.1089,2.1438,2.3185,2.4295,2.4648,2.5333,2.5693,2.5693,2.5693,2.5693,2.5693,2.5693,2.5693,2.5693,2.5693,2.5693,2.5693,2.5693,2.5693,2.5693,2.5693,2.5693,2.5693,2.5693,2.5868,2.6149,1.5526,1.5575,1.51,1.3439,1.3849,1.4679,1.5451,1.5268,1.4911,1.4441,1.4143,1.4138,1.449,1.4609,1.502,1.5854,1.5913,1.5741,1.5268,1.4971,1.4495,1.3844,1.3844,1.3959,1.4128,1.5015,1.5607,1.602,1.6545,1.6844,0.0,0.0,0.0,0.0,0.0,1.8971,1.9325,1.9795,1.9441,1.8739,2.0033,2.0321,2.009,2.0917,2.1211,2.1211,2.1211,2.1211,2.1181,2.0969,2.0742,2.0479,2.0062,1.9769,1.9603,1.9338,1.9279,1.9279,1.9279,1.9279,1.9279,1.9279,1.9279,1.9279,1.9279,1.9279,1.9279,1.9279,1.9279,1.9279,1.9279,1.9279,1.9279,0.0,0.0,0.0,0.0,1.9279,1.9279,1.9279,1.9279,1.9279,1.9279,1.9279,1.9279,1.9279,1.9279,1.9279,1.9279,1.9983,2.0483,2.0885,2.2584,2.3534,2.3534,2.4971,2.5528,2.5118,2.5528,2.5693,2.5693,2.5693,2.5693,2.5693,2.5693,2.5693,2.5693,2.5693,2.5693,2.5693,2.5693,2.5781,2.582,2.582,2.6062,2.6448,1.5703,1.5811,1.5806,1.5811,1.5747,1.5747,1.5752,1.6809,1.7097,1.5865,1.6973,1.7372,1.6262,1.6427,1.6598,1.6656,1.6721,1.6191,1.4955,1.5666,1.5612,1.4381,1.5435,1.5494,1.4381,1.6144,1.6556,1.5381,1.6856,0.0,0.0,0.0,0.0,0.0,2.068,2.05,1.9441,2.068,1.9795,1.7677,1.8913,2.0148,2.1211,2.1211,2.1211,2.1211,2.1211,2.1211,2.1203,2.1189,2.0764,2.0176,2.0161,1.9784,1.9279,1.9279,1.9279,1.9279,1.9279,1.9279,1.9279,1.9279,1.9279,1.9279,1.9279,1.9279,1.9279,1.9279,1.9279,1.9279,1.9279,1.9279,1.9279,0.0,0.0,0.0,1.9279,1.9279,1.9279,1.9279,1.9279,1.9279,1.9279,1.9279,1.9279,1.9279,1.9279,1.9279,1.9279,1.9279,1.9783,2.0783,2.1937,2.2484,2.2433,2.4618,2.5177,2.4088,2.5167,2.5693,2.5693,2.5693,2.5693,2.5693,2.5693,2.5693,2.5693,2.5684,2.5742,2.5732,2.5732,2.5917,2.6149,2.6149,2.6448,2.6948,1.8358,1.8415,1.8473,1.8693,1.7917,1.756,1.8298,1.8286,1.7975,1.7384,1.7079,1.7073,1.7735,1.7852,1.826,1.9261,1.9319,1.9203,1.8848,1.8389,1.7923,1.7325,1.7149,1.7202,1.7606,1.8319,1.9029,1.9615,2.0033,0.0,2.0206,0.0,0.0,0.0,0.0,2.1031,2.0737,2.1031,2.0795,2.0263,2.0565,2.0917,2.1211,2.1211,2.1211,2.1211,2.1211,2.1211,2.1174,2.0933,2.0574,2.0194,1.9959,1.9601,1.9279,1.9279,1.9279,1.9279,1.9279,1.9279,1.9279,1.9279,1.9279,1.9279,1.9279,1.9279,1.9279,1.9279,1.9279,1.9279,1.9279,1.9279,1.9279,1.9279,1.9279,1.9279,1.9279,1.9279,1.9279,1.9279,1.9279,1.9279,1.9279,1.9279,1.9279,1.9279,1.9279,1.9279,1.9279,1.9279,1.9428,1.968,2.154,2.2139,2.1336,2.4214,2.5177,2.4088,2.5167,2.5693,2.5693,2.5693,2.5693,2.5693,2.5693,2.5693,2.5742,2.5917,2.6004,2.6014,2.6207,2.6458,2.6699,2.6699,2.6805,2.6948,1.9479,1.9707,1.9815,1.9989,1.9499,1.9261,1.97,1.9455,1.9152,1.8964,1.8603,1.8603,1.9319,1.9557,1.9917,2.0622,2.068,2.0443,1.9917,1.9737,1.939,1.8635,1.8739,1.8784,1.8609,1.9615,2.0148,2.0141,2.0852,2.1211,2.1211,0.0,0.0,0.0,0.0,2.1211,2.1211,2.1211,2.1211,2.1211,2.1211,2.1211,0.0,2.105,2.0998,2.0976,2.0837,2.0874,2.0947,2.0562,2.0296,1.9996,1.9874,1.9595,1.9279,1.9279,1.9279,1.9279,1.9279,1.9279,1.9279,1.9279,1.9279,1.9279,1.9279,1.9279,1.9279,1.9279,1.9279,1.9279,1.9279,1.9279,1.9279,1.9279,1.9279,1.9279,1.9279,1.9279,1.9279,1.9279,1.9279,1.9279,1.9279,1.9279,1.9279,1.9279,1.9279,1.9279,1.9279,1.9279,1.9279,1.9279,2.0936,2.1285,2.0233,2.3402,2.4461,2.3434,2.4971,2.5693,2.5693,2.5693,2.5693,2.5693,2.5693,2.5781,2.5868,2.6052,2.6149,2.6294,2.6544,2.6757,2.69,2.7034,2.7081,2.7081,1.9761,2.0097,2.0328,2.0328,2.0551,2.0666,2.0443,2.045,2.0385,2.0385,2.0608,2.078,2.078,2.1024,2.1211,2.1211,2.1211,2.0737,1.9622,2.0314,2.0321,1.9229,2.0206,2.0141,1.8797,2.0385,2.0493,1.9132,2.0493,0.0,0.0,0.0,0.0,0.0,0.0,2.1211,2.1211,2.1211,2.1211,2.1203,2.1167,2.1145,2.1108,2.0786,2.0655,2.0618,2.0234,2.0384,2.0555,2.0281,1.9989,1.9808,1.9764,1.9558,1.9279,1.9279,1.9279,1.9279,1.9279,1.9279,1.9279,1.9279,1.9279,1.9279,1.9279,1.9279,1.9279,1.9279,1.9279,1.9279,1.9279,1.9279,1.9279,1.9279,1.9279,1.9279,1.9279,1.9279,1.9279,1.9279,1.9279,0.0,1.9279,1.9279,1.9279,1.9279,1.9279,1.9279,1.9279,1.9279,1.9279,1.9279,2.0483,2.0585,1.9532,2.2693,2.3791,2.2735,2.4716,2.5693,2.5693,2.5693,2.5742,2.5732,2.5732,2.5917,2.6149,2.6197,2.6342,2.664,2.6842,2.6948,2.6996,2.7214,2.7309,2.7309,2.0148,2.027,2.0385,2.0601,2.0666,2.078,2.1031,2.1031,2.091,2.0666,2.091,2.1089,2.1089,2.1153,2.1211,2.1211,2.1211,2.1096,2.0859,2.1031,2.1031,2.0802,2.0974,2.0974,2.0737,2.1031,2.1031,2.0795,2.1031,0.0,0.0,0.0,0.0,0.0,0.0,2.1211,2.1211,2.1211,2.1211,2.1189,2.0918,2.0808,2.0772,2.045,2.0263,2.0219,1.9959,2.0055,2.0219,1.9952,1.9867,1.9764,1.9447,1.9375,1.9279,1.9279,1.9279,1.9279,1.9279,1.9279,1.9279,1.9279,1.9279,1.9279,1.9279,1.9279,1.9279,1.9279,1.9279,1.9279,1.9279,1.9279,1.9279,1.9279,1.9279,1.9279,1.9279,1.9279,1.9279,1.9279,1.9279,1.9279,1.9279,1.9279,1.9279,1.9279,1.9279,1.9279,1.9279,1.9279,1.9279,1.9279,2.1183,2.1684,2.0629,2.3809,2.4864,2.384,2.5118,2.5693,2.5693,2.5693,2.583,2.6052,2.6052,2.6197,2.6448,2.6651,2.6938,2.7167,2.7214,2.7214,2.7214,2.7262,2.7309,2.7309,2.0493,2.068,2.0795,2.0967,2.0967,2.1024,2.1211,2.1211,2.1146,2.0967,2.1089,2.1211,2.1211,2.1211,2.1211,2.1211,2.1211,2.1211,2.1211,2.1211,2.1211,2.1211,2.1211,2.1211,2.1211,2.1211,2.1211,2.1211,2.1211,2.1211,0.0,0.0,0.0,2.0955,2.0955,2.0955,2.0955,2.0955,2.0955,2.0933,2.0603,2.0416,2.0435,2.0113,2.0097,2.016,1.988,1.9918,2.0128,1.9821,1.9769,1.9739,1.9732,1.9732,1.968,1.9532,1.9532,1.948,1.9324,1.9279,1.9324,1.948,1.9376,1.9324,1.948,1.9376,1.9279,1.9279,1.9279,1.9279,1.9279,1.9279,1.9279,1.9279,1.9279,1.9279,1.9279,1.9279,1.9279,1.9279,1.9279,1.9279,1.9279,1.9428,1.9428,1.9324,1.9279,1.9279,1.9279,1.9279,1.9279,1.9279,2.0834,2.1438,2.0885,2.3552,2.4609,2.4088,2.5167,2.5781,2.5917,2.5917,2.6052,2.6304,2.6304,2.6448,2.6747,2.6986,2.7167,2.7309,2.7309,2.7309,2.7309,2.7309,2.7309,2.7309,2.078,2.1024,2.1211,2.1211,2.1211,2.1211,2.1211,2.1211,2.1211,2.1211,2.1211,2.1211,2.1211,2.1211,2.1211,2.1211,2.1211,2.1211,2.1211,2.1211,2.1211,2.1211,2.1211,2.1211,2.1211,2.1211,2.1211,2.1211,2.1211,2.1174,0.0,0.0,0.0,0.0,2.0684,2.0655,2.072,2.0591,2.0618,2.0589,2.0267,2.0135,2.0098,1.9883,1.9917,2.0091,1.9874,1.9931,2.0078,1.9939,1.9835,1.9828,2.0027,2.0078,2.0078,1.9835,1.9783,1.9732,1.9532,1.9428,1.9428,1.9732,1.9576,1.948,1.9732,1.9576,1.9376,1.9376,1.9324,1.9279,1.9279,1.9279,1.9279,1.9279,1.9279,1.9279,1.9279,1.9279,1.9279,1.9279,1.9279,1.9279,1.9279,1.948,1.9628,1.9732,1.9524,1.9376,1.9279,1.9279,1.9428,1.9732,2.0731,2.1387,2.1633,2.3493,2.4442,2.4541,2.5362,2.5917,2.6197,2.6197,2.6342,2.6602,2.6602,2.6747,2.6986,2.7214,2.7309,2.7309,2.7309,2.7309,2.7309,2.7309,2.7309,2.7309,2.1089,2.1211,2.1211,2.1211,2.1211,2.1211,2.1211,2.1211,2.1211,2.1211,2.1211,2.1211,2.1211,2.1211,2.1211,2.1211,2.1211,2.1211,2.1211,2.1211,2.1211,2.1211,2.1211,2.1211,2.1211,2.1211,2.1211,2.1211,2.1211,2.1057,2.0772,0.0,0.0,2.1137,2.0545,2.045,2.0706,2.0406,2.0227,2.0197,1.9938,1.9859,1.9823,1.9747,1.9725,1.9769,1.999,2.0078,2.013,2.0359,2.0248,2.0086,2.0078,2.0078,2.0078,2.0086,2.0078,2.0078,2.0027,1.9835,1.9732,1.9983,1.9879,1.9732,1.9983,1.9879,1.968,1.968,1.948,1.9279,1.9279,1.9279,1.9279,1.9279,1.9279,1.9279,1.9279,1.9279,1.9279,1.9279,1.9279,1.9279,1.9279,1.9324,1.9828,2.1038,2.0233,1.9576,1.9324,1.9279,1.9879,2.1081,2.1937,2.2935,2.4137,2.5069,2.5664,2.5897,2.5994,2.6197,2.6448,2.6448,2.6602,2.6853,2.6853,2.6986,2.7262,2.7309,2.7309,2.7309,2.7309,2.7309,2.7309,2.7309,2.7309,2.7309,2.1153,2.1211,2.1211,2.1211,2.1211,2.1211,2.1211,2.1211,2.1211,2.1211,2.1211,2.1211,2.1211,2.1211,2.1211,2.1211,2.1211,2.1211,2.1211,2.1211,2.1211,2.1211,2.1211,2.1211,2.1211,2.1211,2.1211,2.1211,2.1211,2.1145,2.102,2.1152,2.0998,2.0611,2.03,2.0201,2.0135,2.0011,1.9952,1.9923,1.9601,1.9627,1.9762,1.9732,1.9887,2.0205,2.03,2.0454,2.0609,2.0719,2.0565,2.0351,2.0506,2.0557,2.0557,2.0403,2.0351,2.03,2.0138,2.0034,1.9983,2.0248,2.0145,1.9983,2.03,1.999,1.968,1.968,1.948,1.9331,1.9524,1.9532,1.9576,1.9724,1.9783,1.9732,1.9576,1.9532,1.948,1.9324,1.9279,1.9376,1.9532,1.968,2.0285,2.143,2.0979,2.0688,2.0731,2.0731,2.0987,2.154,2.2484,2.3543,2.4747,2.5703,2.6207,2.6352,2.6352,2.6496,2.6747,2.6747,2.689,2.7129,2.7129,2.7214,2.7309,2.7309,2.7309,2.7309,2.7309,2.7309,2.7309,2.7309,2.7309,2.7309,2.1211,2.1211,2.1211,2.1211,2.1211,2.1211,2.1211,2.1211,2.1211,2.1211,2.1211,2.1211,2.1211,2.1211,2.1211,2.1211,2.1211,2.1211,2.1211,2.1211,2.1211,2.1211,2.1211,2.1211,2.1211,2.1211,2.1211,2.1211,2.1211,2.1159,2.1064,2.0969,2.0728,2.0314,2.0179,1.9974,1.9808,1.9713,1.9676,1.9654,1.9471,1.9524,1.9732,1.9887,2.0153,2.0514,2.0573,2.0719,2.0925,2.0925,2.0771,2.0668,2.0822,2.0925,2.0873,2.0668,2.0617,2.0565,2.0395,2.0292,2.03,2.0565,2.0411,2.03,2.0565,2.0256,1.9887,1.9835,1.968,1.9576,1.9783,1.9828,1.9879,2.0086,2.0078,2.0027,1.9828,1.9828,1.9732,1.9576,1.9532,1.9628,1.9776,1.9983,2.0585,2.1735,2.1633,2.1582,2.1684,2.1387,2.1532,2.2291,2.2944,2.3989,2.5489,2.6149,2.6544,2.6602,2.6602,2.6747,2.7034,2.7034,2.7129,2.7309,2.7309,2.7309,2.7309,2.7309,2.7309,2.7309,2.7309,2.7309,2.7309,2.7309,2.7309,2.7309,2.1211,2.1211,2.1211,2.1211,2.1211,2.1211,2.1211,2.1211,2.1211,2.1211,2.1211,2.1211,2.1211,2.1211,2.1211,2.1211,2.1211,2.1211,2.1211,2.1211,2.1211,2.1211,2.1211,2.1211,2.1211,2.1211,2.1211,2.1211,2.1211,2.1042,2.072,2.0343,2.0358,2.0691,2.0047,1.9823,1.9793,1.947,1.9331,1.9331,1.9583,1.968,1.9783,2.0308,2.047,2.0514,2.0822,2.0925,2.0925,2.0925,2.0925,2.0925,2.0925,2.0925,2.0925,2.0925,2.0925,2.0865,2.0865,2.0719,2.0573,2.0822,2.0668,2.0573,2.0822,2.0668,2.0411,2.0138,2.0078,2.0078,2.0078,2.0078,2.0078,2.0078,2.0078,2.0078,2.0078,2.0078,2.0078,2.0078,2.0078,2.0078,2.0078,2.0078,2.0629,2.1988,2.2089,2.1988,2.1735,2.068,2.1234,2.3592,2.3434,2.4442,2.6853,2.6651,2.6651,2.69,2.69,2.7034,2.7309,2.7309,2.7309,2.7309,2.7309,2.7309,2.7309,2.7309,2.7309,2.7309,2.7309,2.7309,2.7309,2.7309,2.7309,2.7309,2.1211,2.1211,2.1211,2.1211,2.1211,2.1211,2.1211,2.1211,2.1211,2.1211,2.1211,2.1211,2.1211,2.1211,2.1211,2.1211,2.1211,2.1211,2.1211,2.1211,2.1211,2.1211,2.1211,2.1211,2.1211,2.1211,2.1211,2.1211,2.1211,2.1159,2.105,2.0947,2.072,2.0329,2.0179,1.9842,1.9425,1.9375,1.9428,1.9576,1.968,1.9939,2.0256,2.0411,2.0617,2.0771,2.0873,2.0925,2.0925,2.0925,2.0925,2.0925,2.0925,2.0925,2.0925,2.0925,2.0925,2.0925,2.0925,2.0822,2.0771,2.0873,2.0822,2.0822,2.0873,2.0668,2.0411,2.0138,2.0078,2.0138,2.0351,2.0351,2.0403,2.0609,2.066,2.0557,2.0411,2.0351,2.03,2.013,2.0078,2.0189,2.0359,2.0351,2.1251,2.3294,2.2802,2.2367,2.2266,2.2601,2.3185,2.3939,2.459,2.5684,2.7167,2.7071,2.7071,2.7177,2.7177,2.7214,2.7309,2.7309,2.7309,2.7309,2.7309,2.7309,2.7309,2.7309,2.7309,2.7309,2.7309,2.7309,2.7309,2.7309,2.7309,2.7309,2.1211,2.1211,2.1211,2.1211,2.1211,2.1211,2.1211,2.1211,2.1211,2.1211,2.1211,2.1211,2.1211,2.1211,2.1211,2.1211,2.1211,2.1211,2.1211,2.1211,2.1211,2.1211,2.1211,2.1211,2.1211,2.1211,2.1211,2.1211,2.1211,2.1211,2.1203,2.1086,2.0742,2.0176,2.0106,1.9769,1.9331,1.9428,1.9532,1.9732,1.9939,2.0205,2.0514,2.0617,2.0771,2.0925,2.0925,2.0925,2.0925,2.0925,2.0925,2.0925,2.0925,2.0925,2.0925,2.0925,2.0925,2.0925,2.0925,2.0925,2.0925,2.0925,2.0925,2.0925,2.0925,2.0771,2.0617,2.0447,2.0395,2.0447,2.0617,2.0668,2.0719,2.0865,2.0925,2.0822,2.0668,2.0668,2.0617,2.0395,2.0395,2.0454,2.0617,2.0668,2.1267,2.2802,2.2669,2.2476,2.2476,2.3502,2.4285,2.4688,2.5343,2.6235,2.7309,2.7309,2.7309,2.7309,2.7309,2.7309,2.7309,2.7309,2.7309,2.7309,2.7309,2.7309,2.7309,2.7309,2.7309,2.7309,2.7309,2.7309,2.7309,2.7309,2.7309,2.7309,2.1432,2.1432,2.1432,2.1318,2.1375,2.1375,2.1211,2.1261,2.1261,2.1211,2.1211,2.1211,2.1211,2.1211,2.1211,2.1211,2.1211,2.1211,2.1211,2.1211,2.1211,2.1211,2.1211,2.1211,2.1211,2.1211,2.1211,2.1211,2.1211,2.1211,2.1203,2.0874,2.0489,2.0168,1.9908,1.9632,1.9324,1.9576,1.9732,1.9783,2.0308,2.0514,2.0573,2.0822,2.0925,2.0925,2.0925,2.0925,2.0925,2.0925,2.0925,2.0925,2.0925,2.0925,2.0925,2.0925,2.0925,2.0925,2.0925,2.0925,2.0925,2.0925,2.0925,2.0925,2.0925,2.0925,2.0925,2.0925,2.0925,2.0925,2.0925,2.0925,2.0925,2.0925,2.0925,2.0925,2.0925,2.0925,2.0925,2.0925,2.0925,2.0925,2.0925,2.0925,2.0968,2.1121,2.2072,2.2677,2.282,2.38,2.4737,2.5693,2.579,2.6284,2.7309,2.7309,2.7309,2.7309,2.7309,2.7309,2.7309,2.7309,2.7309,2.7309,2.7309,2.7309,2.7309,2.7309,2.7309,2.7309,2.7309,2.7309,2.7309,2.7309,2.7309,2.7309,2.3847,2.3847,2.3575,2.2757,2.3303,2.3247,2.1482,2.1987,2.2263,2.1318,2.1211,2.1211,2.1211,2.1211,2.1211,2.1211,2.1211,2.1211,2.1211,2.1211,2.1211,2.1211,2.1211,2.1211,2.1211,2.1211,2.1211,2.1211,2.1211,2.1211,2.1203,2.0874,2.0489,2.0168,1.9908,1.9737,1.9628,1.968,1.9939,2.0308,2.047,2.0617,2.0822,2.0873,2.0925,2.0925,2.0925,2.0925,2.0925,2.0925,2.0925,2.0925,2.0925,2.0925,2.0925,2.0925,2.0925,2.0925,2.0925,2.0925,2.0925,2.0925,2.0925,2.0925,2.0925,2.0925,2.0925,2.0925,2.0925,2.0925,2.0925,2.0925,2.0925,2.0925,2.0925,2.0925,2.0925,2.0925,2.0925,2.0925,2.0925,2.0925,2.0925,2.0925,2.1564,2.3203,2.3592,2.4442,2.6071,2.6418,2.6274,2.5742,2.6476,2.7061,2.7309,2.7309,2.7309,2.7309,2.7309,2.7309,2.7309,2.7309,2.7309,2.7309,2.7309,2.7309,2.7309,2.7309,2.7309,2.7309,2.7309,2.7309,2.7309,2.7309,2.7309,2.7309,2.4727,2.4727,2.4505,2.3911,2.4292,2.4283,2.2966,2.2918,2.2757,2.2093,2.1539,2.1211,2.1211,2.1211,2.1211,2.1211,2.1211,2.1211,2.1211,2.1211,2.1211,2.1211,2.1211,2.1211,2.1211,2.1211,2.1211,2.1211,2.1211,2.113,2.0976,2.0655,2.0325,2.0003,1.9841,1.9747,1.9732,1.9939,2.0205,2.0514,2.0617,2.0771,2.0925,2.0925,2.0925,2.0925,2.0925,2.0925,2.0925,2.0925,2.0925,2.0976,2.1471,2.1623,2.1725,2.2207,2.2021,2.1717,2.2215,2.2013,2.1623,2.1623,2.1623,2.1768,2.2266,2.1971,2.1776,2.2257,2.1962,2.1623,2.1623,2.1623,2.1471,2.0968,2.0925,2.0925,2.0925,2.0925,2.107,2.1573,2.1224,2.1267,2.2257,2.192,2.2316,2.3989,2.4541,2.5333,2.6524,2.7013,2.7013,2.6428,2.7013,2.7309,2.7309,2.7309,2.7309,2.7309,2.7309,2.7309,2.7309,2.7309,2.7309,2.7309,2.7309,2.7309,2.7309,2.7309,2.7309,2.7309,2.7309,2.7309,2.7309,2.7309,2.7309,2.7309,2.5223,2.5223,2.5168,2.5003,2.5113,2.5113,2.4774,2.4022,2.3472,2.3303,2.2207,2.1482,2.1482,2.1325,2.1211,2.1211,2.1211,2.1211,2.1211,2.1211,2.1211,2.1211,2.1211,2.1211,2.1211,2.1211,2.1211,2.1211,2.1159,2.0998,2.0713,2.034,2.0018,1.9854,1.9725,1.9732,1.9835,2.0308,2.0522,2.0565,2.0822,2.0925,2.0925,2.0925,2.0925,2.0925,2.0925,2.0925,2.0925,2.0925,2.1027,2.1326,2.2224,2.2627,2.297,2.4048,2.371,2.317,2.3899,2.3452,2.2719,2.2719,2.2719,2.297,2.3899,2.3411,2.302,2.3899,2.3361,2.2719,2.2719,2.2719,2.2417,2.1522,2.1369,2.1369,2.1369,2.1369,2.1717,2.2619,2.192,2.2114,2.3939,2.3261,2.3211,2.4236,2.5197,2.579,2.5936,2.6822,2.7309,2.7309,2.7309,2.7309,2.7309,2.7309,2.7309,2.7309,2.7309,2.7309,2.7309,2.7309,2.7309,2.7309,2.7309,2.7309,2.7309,2.7309,2.7309,2.7309,2.7309,2.7309,2.7309,2.7309,2.7309,2.7309,2.7736,2.7736,2.7403,2.6409,2.707,2.706,2.5003,2.5406,2.558,2.4561,2.3416,2.27,2.27,2.1816,2.1211,2.1211,2.1211,2.1211,2.1211,2.1211,2.1211,2.1211,2.1211,2.1211,2.1211,2.1211,2.1211,2.1211,2.0933,2.0772,2.0713,2.0113,1.9966,2.0112,1.9829,1.9946,2.0359,2.0462,2.0617,2.0822,2.0873,2.0925,2.0925,2.0925,2.0925,2.0925,2.0925,2.0925,2.0925,2.0925,2.1522,2.2274,2.2426,2.3111,2.4048,2.5138,2.5343,2.505,2.4285,2.3989,2.385,2.385,2.385,2.3899,2.4038,2.3989,2.389,2.4088,2.3989,2.385,2.385,2.385,2.38,2.3642,2.3592,2.3592,2.3592,2.3592,2.3692,2.384,2.3692,2.3741,2.4088,2.3939,2.4295,2.5392,2.5596,2.6091,2.7013,2.7214,2.7309,2.7309,2.7309,2.7309,2.7309,2.7309,2.7309,2.7309,2.7309,2.7309,2.7309,2.7309,2.7309,2.7309,2.7309,2.7309,2.7309,2.7309,2.7309,2.7309,2.7309,2.7309,2.7309,2.7309,2.7309,2.7309,2.8291,2.8291,2.813,2.7574,2.7906,2.7897,2.6834,2.6572,2.63,2.5735,2.4625,2.3911,2.3911,2.2862,2.215,2.215,2.1596,2.1489,2.215,2.1539,2.1211,2.1211,2.1211,2.113,2.0947,2.0947,2.0859,2.0684,2.0537,2.0424,2.0411,2.0162,2.0083,2.0158,2.0118,2.0256,2.0522,2.0668,2.0771,2.0925,2.0925,2.0925,2.0925,2.0925,2.0925,2.0925,2.0925,2.0925,2.0976,2.1573,2.2072,2.2719,2.3868,2.455,2.5187,2.6225,2.6572,2.6332,2.5236,2.4943,2.4943,2.4943,2.4943,2.5089,2.5674,2.5382,2.5138,2.5722,2.5382,2.4943,2.4943,2.4943,2.4786,2.4187,2.4088,2.4088,2.4088,2.4088,2.4285,2.4884,2.4442,2.4531,2.5722,2.5285,2.5382,2.6476,2.6572,2.6764,2.7251,2.7309,2.7309,2.7309,2.7309,2.7309,2.7309,2.7309,2.7309,2.7309,2.7309,2.7309,2.7309,2.7309,2.7309,2.7309,2.7309,2.7309,2.7309,2.7309,2.7309,2.7309,2.7309,2.7309,2.7309,2.7309,2.7309,2.7309,2.8291,2.8291,2.8291,2.8291,2.8291,2.8291,2.8291,2.752,2.6907,2.6907,2.5845,2.5113,2.5113,2.4078,2.3416,2.3416,2.2531,2.2418,2.3303,2.2531,2.1923,2.1653,2.1309,2.094,2.0618,2.0555,2.0431,2.0183,2.0211,2.0212,2.0173,2.0204,2.0181,2.0189,2.0411,2.0514,2.0624,2.0822,2.0925,2.0925,2.0925,2.0925,2.0925,2.0925,2.0925,2.0917,2.1173,2.1267,2.142,2.2518,2.302,2.3511,2.5197,2.5887,2.6235,2.7061,2.7309,2.7109,2.6284,2.6081,2.6081,2.6081,2.6081,2.6284,2.7109,2.6668,2.6332,2.7119,2.6668,2.6081,2.6081,2.6081,2.579,2.4982,2.4826,2.4826,2.4826,2.4826,2.5129,2.5984,2.5333,2.547,2.7156,2.6572,2.6428,2.7251,2.7309,2.7309,2.7309,2.7309,2.7309,2.7309,2.7309,2.7309,2.7309,2.7309,2.7309,2.7309,2.7309,2.7309,2.7309,2.7309,2.7309,2.7309,2.7309,2.7309,2.7309,2.7309,2.7309,2.7309,2.7309,2.7309,2.7309,2.7309,2.7309,2.7309,2.8291,2.8291,2.8291,2.8291,2.8291,2.8291,2.8291,2.8237,2.8184,2.8184,2.7133,2.6354,2.6354,2.5287,2.4561,2.4561,2.4505,2.4505,2.4561,2.4505,2.3958,2.2918,2.1523,2.0603,2.0227,2.0219,2.0205,2.0183,2.0206,2.0203,2.0219,2.0113,2.022,2.047,2.047,2.0617,2.0865,2.0865,2.0925,2.0925,2.0925,2.0925,2.0925,2.0925,2.0925,2.1019,2.203,2.2375,2.2577,2.3601,2.4648,2.5499,2.5645,2.638,2.7214,2.7262,2.7309,2.7262,2.7204,2.7167,2.7167,2.7167,2.7167,2.7204,2.7262,2.7251,2.7204,2.7262,2.7262,2.7167,2.7167,2.7167,2.7156,2.7061,2.7061,2.7061,2.7061,2.7061,2.7109,2.7156,2.7109,2.7109,2.7262,2.7214,2.7214,2.7309,2.7309,2.7309,2.7309,2.7309,2.7309,2.7309,2.7309,2.7309,2.7309,2.7309,2.7309,2.7309,2.7309,2.7309,2.7309,2.7309,2.7309,2.7309,2.7309,2.7309,2.7309,2.7309,2.7309,2.7309,2.7309,2.7309,2.7309,2.7309,2.7309,2.7309,2.8291,2.8291,2.8291,2.8291,2.8291,2.8291,2.8291,2.8291,2.8291,2.8291,2.7906,2.7628,2.7628,2.6518,2.579,2.579,2.5122,2.5003,2.579,2.579,2.5191,2.3753,2.2205,2.1217,2.0941,2.0306,1.9949,1.9895,1.9874,2.0076,2.0396,2.0362,2.0514,2.0771,2.0771,2.0822,2.0925,2.0925,2.0925,2.0925,2.0925,2.0925,2.0925,2.0925,2.0925,2.1019,2.2123,2.2476,2.2778,2.4501,2.5343,2.5839,2.6476,2.6965,2.7309,2.7309,2.7309,2.7309,2.7309,2.7309,2.7309,2.7309,2.7309,2.7309,2.7309,2.7309,2.7309,2.7309,2.7309,2.7309,2.7309,2.7309,2.7309,2.7309,2.7309,2.7309,2.7309,2.7309,2.7309,2.7309,2.7309,2.7309,2.7309,2.7309,2.7309,2.7309,2.7309,2.7309,2.7309,2.7309,2.7309,2.7309,2.7309,2.7309,2.7309,2.7309,2.7309,2.7309,2.7309,2.7309,2.7309,2.7309,2.7309,2.7309,2.7309,2.7309,2.7309,2.7309,2.7309,2.7309,2.7309,2.7309,2.7309,2.7309,2.7309,2.7309,2.8291,2.8291,2.8291,2.8291,2.8291,2.8291,2.8291,2.8291,2.8291,2.8291,2.8291,2.8291,2.8291,2.7574,2.7079,2.7079,2.6291,2.6173,2.7015,2.6836,2.6023,2.4552,2.3003,2.2014,2.1762,2.0684,2.0166,2.0181,1.9931,2.0042,2.0522,2.0573,2.0719,2.0925,2.0925,2.0925,2.0925,2.0925,2.0925,2.0925,2.0925,2.0925,2.0917,2.1267,2.142,2.1573,2.302,2.352,2.3759,2.5586,2.6187,2.6332,2.7061,2.7309,2.7309,2.7309,2.7309,2.7309,2.7309,2.7309,2.7309,2.7309,2.7309,2.7309,2.7309,2.7309,2.7309,2.7309,2.7309,2.7309,2.7309,2.7309,2.7309,2.7309,2.7309,2.7309,2.7309,2.7309,2.7309,2.7309,2.7309,2.7309,2.7309,2.7309,2.7309,2.7309,2.7309,2.7309,2.7309,2.7309,2.7309,2.7309,2.7309,2.7309,2.7309,2.7309,2.7309,2.7309,2.7309,2.7309,2.7309,2.7309,2.7309,2.7309,2.7309,2.7309,2.7309,2.7309,2.7309,2.7309,2.7309,2.7309,2.7309,2.7309,2.7309,2.7309,2.8291,2.8291,2.8291,2.8291,2.8291,2.8291,2.8291,2.8291,2.8291,2.8291,2.8291,2.8291,2.8291,2.8291,2.8291,2.8291,2.8291,2.8291,2.8291,2.749,2.6532,2.543,2.3885,2.2877,2.2492,2.1438,2.1038,2.1336,2.0534,2.0241,2.0522,2.0822,2.0925,2.0925,2.0925,2.0925,2.0917,2.0925,2.0925,2.0925,2.0925,2.0925,2.1019,2.2131,2.2526,2.2769,2.4952,2.5693,2.5839,2.6965,2.7309,2.7309,2.7309,2.7309,2.7309,2.7309,2.7309,2.7309,2.7309,2.7309,2.7309,2.7309,2.7309,2.7309,2.7309,2.7309,2.7309,2.7309,2.7309,2.7309,2.7309,2.7309,2.7309,2.7309,2.7309,2.7309,2.7309,2.7309,2.7309,2.7309,2.7309,2.7309,2.7309,2.7309,2.7309,2.7309,2.7309,2.7309,2.7309,2.7309,2.7309,2.7309,2.7309,2.7309,2.7309,2.7309,2.7309,2.7309,2.7309,2.7309,2.7309,2.7309,2.7309,2.7309,2.7309,2.7309,2.7309,2.7309,2.7309,2.7309,2.7309,2.7309,2.7309,2.7309,2.7309,2.7309,2.8291,2.8291,2.8291,2.8291,2.8291,2.8291,2.8291,2.8291,2.8291,2.8291,2.8291,2.8291,2.8291,2.8291,2.8291,2.8291,2.8291,2.8164,2.7924,2.7324,2.6722,2.6119,2.4601,2.3709,2.3642,2.2584,2.224,2.2685,2.2433,2.2198,2.1928,2.2761,2.2358,2.0976,2.2459,2.271,2.2072,2.2811,2.3153,2.3153,2.3153,2.3153,2.3203,2.3502,2.3601,2.38,2.5197,2.5693,2.5839,2.6965,2.7309,2.7309,2.7309,2.7309,2.7309,2.7309,2.7309,2.7309,2.7309,2.7309,2.7309,2.7309,2.7309,2.7309,2.7309,2.7309,2.7309,2.7309,2.7309,2.7309,2.7309,2.7309,2.7309,2.7309,2.7309,2.7309,2.7309,2.7309,2.7309,2.7309,2.7309,2.7309,2.7309,2.7309,2.7309,2.7309,2.7309,2.7309,2.7309,2.7309,2.7309,2.7309,2.7309,2.7309,2.7309,2.7309,2.7309,2.7309,2.7309,2.7309,2.7309,2.7309,2.7309,2.7309,2.7309,2.7309,2.7309,2.7309,2.7309,2.7309,2.7309,2.7309,2.7309,2.7309,2.7309,2.7309,2.8291,2.8291,2.8291,2.8291,2.8291,2.8291,2.8291,2.8291,2.8291,2.8291,2.8291,2.8291,2.8291,2.8291,2.8291,2.8291,2.8291,2.8037,2.7441,2.7168,2.6748,2.6162,2.5203,2.4707,2.4707,2.3791,2.3493,2.3939,2.3583,2.3352,2.3161,2.38,2.3402,2.2207,2.3493,2.375,2.3161,2.384,2.4088,2.4088,2.4088,2.4088,2.4137,2.459,2.4737,2.4884,2.5936,2.6332,2.6428,2.7061,2.7309,2.7309,2.7309,2.7309,2.7309,2.7309,2.7309,2.7309,2.7309,2.7309,2.7309,2.7309,2.7309,2.7309,2.7309,2.7309,2.7309,2.7309,2.7309,2.7309,2.7309,2.7309,2.7309,2.7309,2.7309,2.7309,2.7309,2.7309,2.7309,2.7309,2.7309,2.7309,2.7309,2.7309,2.7309,2.7309,2.7309,2.7309,2.7309,2.7309,2.7309,2.7309,2.7309,2.7309,2.7309,2.7309,2.7309,2.7309,2.7309,2.7309,2.7309,2.7309,2.7309,2.7309,2.7309,2.7309,2.7309,2.7309,2.7309,2.7309,2.7309,2.7309,2.7309,2.7309,2.7309,2.7309,2.8291,2.8291,2.8291,2.8291,2.8291,2.8291,2.8291,2.8291,2.8291,2.8291,2.8291,2.8291,2.8291,2.8291,2.8291,2.8291,2.8291,2.793,2.707,2.7012,2.6631,2.5723,2.5693,2.5684,2.5732,2.5001,2.4796,2.5089,2.4344,2.4088,2.4245,2.4335,2.4285,2.4088,2.4285,2.4335,2.4236,2.4335,2.4384,2.4384,2.4384,2.4384,2.4482,2.5489,2.5839,2.5984,2.6965,2.7309,2.7309,2.7309,2.7309,2.7309,2.7309,2.7309,2.7309,2.7309,2.7309,2.7309,2.7309,2.7309,2.7309,2.7309,2.7309,2.7309,2.7309,2.7309,2.7309,2.7309,2.7309,2.7309,2.7309,2.7309,2.7309,2.7309,2.7309,2.7309,2.7309,2.7309,2.7309,2.7309,2.7309,2.7309,2.7309,2.7309,2.7309,2.7309,2.7309,2.7309,2.7309,2.7309,2.7309,2.7309,2.7309,2.7309,2.7309,2.7309,2.7309,2.7309,2.7309,2.7309,2.7309,2.7309,2.7309,2.7309,2.7309,2.7309,2.7309,2.7309,2.7309,2.7309,2.7309,2.7309,2.7309,2.7309,2.7309,2.7309,2.8291,2.8291,2.8291,2.8291,2.8291,2.8291,2.8291,2.8291,2.8291,2.8291,2.8291,2.8291,2.8291,2.8291,2.8291,2.8291,2.8291,2.793,2.707,2.7012,2.6631,2.5723,2.5693,2.5781,2.6004,2.5849,2.5994,2.6448,2.6294,2.5897,2.5392,2.6225,2.5722,2.4187,2.5868,2.6129,2.5392,2.6274,2.661,2.661,2.661,2.661,2.662,2.686,2.6965,2.6965,2.7214,2.7309,2.7309,2.7309,2.7309,2.7309,2.7309,2.7309,2.7309,2.7309,2.7309,2.7309,2.7309,2.7309,2.7309,2.7309,2.7309,2.7309,2.7309,2.7309,2.7309,2.7309,2.7309,2.7309,2.7309,2.7309,2.7309,2.7309,2.7309,2.7309,2.7309,2.7309,2.7309,2.7309,2.7309,2.7309,2.7309,2.7309,2.7309,2.7309,2.7309,2.7309,2.7309,2.7309,2.7309,2.7309,2.7309,2.7309,2.7309,2.7309,2.7309,2.7309,2.7309,2.7309,2.7309,2.7309,2.7309,2.7309,2.7309,2.7309,2.7309,2.7309,2.7309,2.7309,2.7309,2.7309,2.7309,2.7309,2.7309,2.7299,2.8291,2.8291,2.8291,2.8291,2.8291,2.8291,2.8291,2.8291,2.8291,2.8291,2.8291,2.8291,2.8291,2.8291,2.8291,2.8291,2.8291,2.8018,2.7373,2.7129,2.6728,2.6074,2.5801,2.5878,2.6294,2.6294,2.6496,2.69,2.7034,2.688,2.6476,2.7013,2.6716,2.5674,2.6812,2.6965,2.6476,2.7061,2.7309,2.7309,2.7309,2.7309,2.7309,2.7309,2.7309,2.7309,2.7309,2.7309,2.7309,2.7309,2.7309,2.7309,2.7309,2.7309,2.7309,2.7309,2.7309,2.7309,2.7309,2.7309,2.7309,2.7309,2.7309,2.7309,2.7309,2.7309,2.7309,2.7309,2.7309,2.7309,2.7309,2.7309,2.7309,2.7309,2.7309,2.7309,2.7309,2.7309,2.7309,2.7309,2.7309,2.7309,2.7309,2.7309,2.7309,2.7309,2.7309,2.7309,2.7309,2.7309,2.7309,2.7309,2.7309,2.7309,2.7309,2.7309,2.7309,2.7309,2.7309,2.7309,2.7309,2.7309,2.7309,2.7309,2.7309,2.7309,2.7309,2.7309,2.7309,2.7309,2.7309,2.7309,2.7309,2.7404,2.7536,2.7631,2.8291,2.8291,2.8291,2.8291,2.8291,2.8291,2.8291,2.8291,2.8291,2.8291,2.8291,2.8291,2.8291,2.8291,2.8291,2.8291,2.8291,2.8115,2.7748,2.7256,2.6826,2.6406,2.5967,2.5975,2.6496,2.6496,2.6651,2.6948,2.7167,2.7309,2.7309,2.7309,2.7309,2.7309,2.7309,2.7309,2.7309,2.7309,2.7309,2.7309,2.7309,2.7309,2.7309,2.7309,2.7309,2.7309,2.7309,2.7309,2.7309,2.7309,2.7309,2.7309,2.7309,2.7309,2.7309,2.7309,2.7309,2.7309,2.7309,2.7309,2.7309,2.7309,2.7309,2.7309,2.7309,2.7309,2.7309,2.7309,2.7309,2.7309,2.7309,2.7309,2.7309,2.7309,2.7309,2.7309,2.7309,2.7309,2.7309,2.7309,2.7309,2.7309,2.7309,2.7309,2.7309,2.7309,2.7309,2.7309,2.7309,2.7309,2.7309,2.7309,2.7309,2.7309,2.7309,2.7309,2.7309,2.7309,2.7309,2.7309,2.7309,2.7309,2.7309,2.7309,2.7309,2.7309,2.7309,2.7309,2.7309,2.7309,2.7357,2.7309,2.7299,2.7547,2.782,2.8045,2.8291,2.8291,2.8291,2.8291,2.8291,2.8291,2.8291,2.8291,2.8291,2.8291,2.8291,2.8291,2.8291,2.8291,2.8291,2.8291,2.8291,2.8115,2.7748,2.7256,2.6826,2.6406,2.5967,2.5975,2.6496,2.6496,2.6736,2.7262,2.7262,2.7309,2.7309,2.7309,2.7309,2.7309,2.7309,2.7309,2.7309,2.7309,2.7309,2.7309,2.7309,2.7309,2.7309,2.7309,2.7309,2.7309,2.7309,2.7309,2.7309,2.7309,2.7309,2.7309,2.7309,2.7309,2.7309,2.7309,2.7309,2.7309,2.7309,2.7309,2.7309,2.7309,2.7309,2.7309,2.7309,2.7309,2.7309,2.7309,2.7309,2.7309,2.7309,2.7309,2.7309,2.7309,2.7309,2.7309,2.7309,2.7309,2.7309,2.7309,2.7309,2.7309,2.7309,2.7309,2.7309,2.7309,2.7309,2.7309,2.7309,2.7309,2.7309,2.7309,2.7309,2.7309,2.7309,2.7309,2.7309,2.7309,2.7309,2.7309,2.7309,2.7309,2.7309,2.7309,2.7309,2.7309,2.7309,2.7309,2.7309,2.7309,2.7489,2.7452,2.7299,2.7547,2.7925,2.8348,2.8291,2.8291,2.8291,2.8291,2.8291,2.8291,2.8291,2.8291,2.8291,2.8291,2.8291,2.8291,2.8291,2.8291,2.8291,2.8291,2.8291,2.8213,2.8027,2.7617,2.7187,2.6758,2.6467,2.6358,2.6506,2.6651,2.689,2.7309,2.7309,2.7309,2.7309,2.7309,2.7309,2.7309,2.7309,2.7309,2.7309,2.7309,2.7309,2.7309,2.7309,2.7309,2.7309,2.7309,2.7309,2.7309,2.7309,2.7309,2.7309,2.7309,2.7309,2.7309,2.7309,2.7309,2.7309,2.7309,2.7309,2.7309,2.7309,2.7309,2.7309,2.7309,2.7309,2.7309,2.7309,2.7309,2.7309,2.7309,2.7309,2.7309,2.7309,2.7309,2.7309,2.7309,2.7309,2.7309,2.7309,2.7309,2.7309,2.7309,2.7309,2.7309,2.7309,2.7309,2.7309,2.7309,2.7309,2.7309,2.7309,2.7309,2.7309,2.7309,2.7309,2.7309,2.7309,2.7309,2.7309,2.7309,2.7309,2.7309,2.7309,2.7309,2.7309,2.7309,2.7309,2.7309,2.7309,2.7309,2.7357,2.7452,2.7452,2.7536,2.7715,2.7809,2.8149,2.8617]}]]